[[{"header":{"parameterUnit":"m.s-1","parameterCategory":1,"la1":30.6,"la2":29.2853,"lo1":-89.7004,"lo2":-87.6739,"dy":0.0162,"dx":0.0183,"nx":112,"ny":82,"refTime":"2026-04-26T00:00:00:Z","depth":0,"parameterNumber":2,"parameterNumberName":"U-component_of_WINDS"},"data":[0.0,0.0,0.0,0.0,0.0,0.0,0.0,0.0,0.0,0.0,0.0,0.0,0.0,0.0,0.0,0.0,0.0,0.0,0.0,0.0,0.0,0.0,0.0,0.0,0.0,0.0,0.0,0.0,0.0,0.0,0.0,0.0,0.0,0.0,0.0,0.0,0.0,0.0,0.0,0.0,0.0,0.0,0.0,0.0,0.0,0.0,0.0,0.0,0.0,0.0,0.0,0.0,0.0,0.0,0.0,0.0,0.0,0.0,0.0,0.0,0.0,0.0,0.0,0.0,0.0,0.0,0.0,0.0,0.0,0.0,0.0,0.0,0.0,0.0,0.0,0.0,0.0,0.0,0.0,0.0,0.0,0.0,0.0,0.0,0.0,0.0,0.0,0.0,0.0,0.0,0.0,-4.1841,-4.6913,-4.9639,-4.9055,-4.6982,-4.4403,-4.1329,0.0,0.0,0.0,0.0,0.0,0.0,0.0,0.0,0.0,0.0,0.0,0.0,0.0,0.0,0.0,0.0,0.0,0.0,0.0,0.0,0.0,0.0,0.0,0.0,0.0,0.0,0.0,0.0,0.0,0.0,0.0,0.0,0.0,0.0,0.0,0.0,0.0,0.0,0.0,0.0,0.0,0.0,0.0,0.0,0.0,0.0,0.0,0.0,0.0,0.0,0.0,0.0,0.0,0.0,0.0,0.0,0.0,0.0,0.0,0.0,0.0,0.0,0.0,0.0,0.0,0.0,0.0,0.0,0.0,0.0,0.0,0.0,0.0,0.0,0.0,0.0,0.0,0.0,0.0,0.0,0.0,0.0,0.0,0.0,0.0,0.0,0.0,0.0,0.0,0.0,0.0,0.0,0.0,0.0,0.0,0.0,0.0,0.0,0.0,0.0,0.0,0.0,0.0,0.0,-3.9313,-4.5365,-4.8351,-4.9805,-4.9536,-4.777,-4.5401,-4.2365,0.0,0.0,0.0,0.0,0.0,0.0,0.0,0.0,0.0,0.0,0.0,0.0,0.0,0.0,0.0,0.0,0.0,0.0,0.0,0.0,0.0,0.0,0.0,0.0,0.0,0.0,0.0,0.0,0.0,0.0,0.0,0.0,0.0,0.0,0.0,0.0,0.0,0.0,0.0,0.0,0.0,0.0,0.0,0.0,0.0,0.0,0.0,0.0,0.0,0.0,0.0,0.0,0.0,0.0,0.0,0.0,0.0,0.0,0.0,0.0,0.0,0.0,0.0,0.0,0.0,0.0,0.0,0.0,0.0,0.0,0.0,0.0,0.0,0.0,0.0,0.0,0.0,0.0,0.0,0.0,0.0,0.0,0.0,0.0,0.0,0.0,0.0,0.0,0.0,0.0,0.0,0.0,0.0,0.0,0.0,0.0,0.0,0.0,0.0,0.0,0.0,0.0,0.0,-3.8336,-4.2703,-4.6408,-4.8551,-4.9323,-4.8294,-4.6563,-4.4005,-4.0389,-3.6082,0.0,0.0,0.0,0.0,0.0,0.0,0.0,0.0,0.0,0.0,0.0,0.0,0.0,0.0,0.0,0.0,0.0,0.0,0.0,0.0,0.0,0.0,0.0,0.0,0.0,0.0,0.0,0.0,0.0,0.0,0.0,0.0,0.0,0.0,0.0,0.0,0.0,0.0,0.0,0.0,0.0,0.0,0.0,0.0,0.0,0.0,0.0,0.0,0.0,0.0,0.0,0.0,0.0,0.0,0.0,0.0,0.0,0.0,0.0,0.0,0.0,0.0,0.0,0.0,0.0,0.0,0.0,0.0,0.0,0.0,0.0,0.0,0.0,0.0,0.0,0.0,0.0,0.0,0.0,0.0,0.0,0.0,0.0,0.0,0.0,0.0,0.0,0.0,0.0,0.0,0.0,0.0,0.0,0.0,0.0,0.0,0.0,0.0,0.0,0.0,0.0,0.0,-4.1635,-4.4924,-4.6438,-4.802,-4.8254,-4.6555,-4.4542,-4.1789,-3.8018,-3.433,0.0,0.0,0.0,0.0,0.0,0.0,0.0,0.0,0.0,0.0,0.0,0.0,0.0,0.0,0.0,0.0,0.0,0.0,0.0,0.0,0.0,0.0,0.0,0.0,0.0,0.0,0.0,0.0,0.0,0.0,0.0,0.0,0.0,0.0,0.0,0.0,0.0,0.0,0.0,0.0,0.0,0.0,0.0,0.0,0.0,0.0,0.0,0.0,0.0,0.0,0.0,0.0,0.0,0.0,0.0,0.0,0.0,0.0,0.0,0.0,0.0,0.0,0.0,0.0,0.0,0.0,0.0,0.0,0.0,0.0,0.0,0.0,0.0,0.0,0.0,0.0,0.0,0.0,0.0,0.0,0.0,0.0,0.0,0.0,0.0,0.0,0.0,0.0,0.0,0.0,0.0,0.0,0.0,0.0,0.0,0.0,0.0,0.0,0.0,0.0,0.0,0.0,-4.1717,-4.4452,-4.5818,-4.6641,-4.6416,-4.4726,-4.207,-3.9265,-3.6408,-3.2229,0.0,0.0,0.0,0.0,0.0,0.0,0.0,0.0,0.0,0.0,0.0,0.0,0.0,0.0,0.0,0.0,0.0,0.0,0.0,0.0,0.0,0.0,0.0,0.0,0.0,0.0,0.0,0.0,0.0,0.0,0.0,0.0,0.0,0.0,0.0,0.0,0.0,0.0,0.0,0.0,0.0,0.0,0.0,0.0,0.0,0.0,0.0,0.0,0.0,0.0,0.0,0.0,0.0,0.0,0.0,0.0,0.0,0.0,0.0,0.0,0.0,0.0,0.0,0.0,0.0,0.0,0.0,0.0,0.0,0.0,0.0,0.0,0.0,0.0,0.0,0.0,0.0,0.0,0.0,0.0,0.0,0.0,0.0,0.0,0.0,0.0,0.0,0.0,0.0,0.0,0.0,0.0,0.0,0.0,0.0,0.0,0.0,0.0,0.0,0.0,0.0,0.0,-4.1326,-4.3989,0.0,-4.6039,-4.5544,-4.3156,-4.1151,-3.8434,-3.4721,0.0,0.0,0.0,0.0,0.0,0.0,0.0,0.0,0.0,0.0,0.0,0.0,0.0,0.0,0.0,0.0,0.0,0.0,0.0,0.0,0.0,0.0,0.0,0.0,0.0,0.0,0.0,0.0,0.0,0.0,0.0,0.0,0.0,0.0,0.0,0.0,0.0,0.0,0.0,0.0,0.0,0.0,0.0,0.0,0.0,0.0,0.0,0.0,0.0,0.0,0.0,0.0,0.0,0.0,0.0,0.0,0.0,0.0,0.0,0.0,0.0,0.0,0.0,0.0,0.0,0.0,0.0,0.0,0.0,0.0,0.0,0.0,0.0,0.0,0.0,0.0,0.0,0.0,0.0,0.0,0.0,0.0,0.0,0.0,0.0,0.0,0.0,0.0,0.0,0.0,0.0,0.0,0.0,0.0,0.0,0.0,0.0,0.0,0.0,0.0,0.0,0.0,-3.7119,-4.0555,-4.3046,0.0,-4.49,-4.4182,-4.1602,-3.9955,-3.7403,-3.3431,0.0,0.0,0.0,0.0,0.0,0.0,0.0,0.0,0.0,0.0,0.0,0.0,0.0,0.0,0.0,0.0,0.0,0.0,0.0,0.0,0.0,0.0,0.0,0.0,0.0,0.0,0.0,0.0,0.0,0.0,0.0,0.0,0.0,0.0,0.0,0.0,0.0,0.0,0.0,0.0,0.0,0.0,0.0,0.0,0.0,0.0,0.0,0.0,0.0,0.0,0.0,0.0,0.0,0.0,0.0,0.0,0.0,0.0,0.0,0.0,0.0,0.0,0.0,0.0,0.0,0.0,0.0,0.0,0.0,0.0,0.0,0.0,0.0,0.0,0.0,0.0,0.0,0.0,0.0,0.0,0.0,0.0,0.0,0.0,0.0,0.0,0.0,0.0,0.0,0.0,0.0,0.0,0.0,0.0,0.0,0.0,0.0,0.0,0.0,0.0,0.0,0.0,-3.6497,-3.9431,-4.1579,-4.2847,-4.2981,-4.2115,-4.0007,-3.8288,-3.5967,0.0,0.0,0.0,0.0,0.0,0.0,0.0,0.0,0.0,0.0,0.0,0.0,0.0,0.0,0.0,0.0,0.0,0.0,0.0,0.0,0.0,0.0,0.0,0.0,0.0,0.0,0.0,0.0,0.0,0.0,0.0,0.0,0.0,0.0,0.0,0.0,0.0,0.0,0.0,0.0,0.0,0.0,0.0,0.0,0.0,0.0,0.0,0.0,0.0,0.0,0.0,0.0,0.0,0.0,0.0,0.0,0.0,0.0,0.0,0.0,0.0,0.0,0.0,0.0,0.0,0.0,0.0,0.0,0.0,0.0,0.0,0.0,0.0,0.0,0.0,0.0,0.0,0.0,0.0,0.0,0.0,0.0,0.0,0.0,0.0,0.0,0.0,0.0,0.0,0.0,0.0,0.0,0.0,0.0,0.0,0.0,0.0,0.0,0.0,0.0,0.0,0.0,0.0,-3.5979,-3.9076,-4.1258,-4.226,-4.2622,-4.2029,-4.0178,-3.9179,-3.7085,-3.346,0.0,0.0,0.0,0.0,0.0,0.0,0.0,0.0,0.0,0.0,0.0,0.0,0.0,0.0,0.0,0.0,0.0,0.0,0.0,0.0,0.0,0.0,0.0,0.0,0.0,0.0,0.0,0.0,0.0,0.0,0.0,0.0,0.0,0.0,0.0,0.0,0.0,0.0,0.0,0.0,0.0,0.0,0.0,0.0,0.0,0.0,0.0,0.0,0.0,0.0,0.0,0.0,0.0,0.0,0.0,0.0,0.0,0.0,0.0,0.0,0.0,0.0,0.0,0.0,0.0,0.0,0.0,0.0,0.0,0.0,0.0,0.0,0.0,0.0,0.0,0.0,0.0,0.0,0.0,0.0,0.0,0.0,0.0,0.0,0.0,0.0,0.0,0.0,0.0,0.0,0.0,0.0,0.0,0.0,0.0,0.0,0.0,0.0,0.0,0.0,0.0,0.0,-3.5009,-3.8456,-4.0802,-4.1625,-4.1916,-4.1518,-4.0216,-3.9305,-3.7273,-3.3721,0.0,0.0,0.0,0.0,0.0,0.0,0.0,0.0,0.0,0.0,0.0,0.0,0.0,0.0,0.0,0.0,0.0,0.0,0.0,0.0,0.0,0.0,0.0,0.0,0.0,0.0,0.0,0.0,0.0,0.0,0.0,0.0,0.0,0.0,0.0,0.0,0.0,0.0,0.0,0.0,0.0,0.0,0.0,0.0,0.0,0.0,0.0,0.0,0.0,0.0,0.0,0.0,0.0,0.0,0.0,0.0,0.0,0.0,0.0,0.0,0.0,0.0,0.0,0.0,0.0,0.0,0.0,0.0,0.0,0.0,0.0,0.0,0.0,0.0,0.0,0.0,0.0,0.0,0.0,0.0,0.0,0.0,0.0,0.0,0.0,0.0,0.0,0.0,0.0,0.0,0.0,0.0,0.0,0.0,0.0,0.0,0.0,0.0,0.0,0.0,0.0,0.0,-3.3906,-3.7636,-4.0191,-4.0931,-4.1004,-4.0728,-4.0075,-3.8957,-3.6939,-3.3794,0.0,0.0,0.0,0.0,0.0,0.0,0.0,0.0,0.0,0.0,0.0,0.0,0.0,0.0,0.0,0.0,0.0,0.0,0.0,0.0,0.0,0.0,0.0,0.0,0.0,0.0,0.0,0.0,0.0,0.0,0.0,0.0,0.0,0.0,0.0,0.0,0.0,0.0,0.0,0.0,0.0,0.0,0.0,0.0,0.0,0.0,0.0,0.0,0.0,0.0,0.0,0.0,0.0,0.0,0.0,0.0,0.0,0.0,0.0,0.0,-4.438,0.0,0.0,0.0,0.0,0.0,0.0,0.0,0.0,0.0,0.0,0.0,0.0,0.0,0.0,0.0,0.0,0.0,0.0,0.0,0.0,0.0,0.0,0.0,0.0,0.0,0.0,0.0,0.0,0.0,0.0,0.0,0.0,0.0,0.0,0.0,0.0,0.0,0.0,0.0,0.0,0.0,-3.3848,-3.6867,-3.9044,-4.0191,-4.0307,-4.006,-3.945,-3.9146,-3.7622,-3.4414,-3.2135,0.0,0.0,0.0,0.0,0.0,0.0,0.0,0.0,0.0,0.0,0.0,0.0,0.0,0.0,0.0,0.0,0.0,0.0,0.0,0.0,0.0,0.0,0.0,0.0,0.0,0.0,0.0,0.0,0.0,0.0,0.0,0.0,0.0,0.0,0.0,0.0,0.0,0.0,0.0,0.0,0.0,0.0,0.0,0.0,0.0,0.0,0.0,0.0,0.0,0.0,0.0,0.0,0.0,0.0,0.0,0.0,0.0,0.0,0.0,0.0,-4.6776,0.0,0.0,0.0,0.0,0.0,0.0,0.0,0.0,0.0,0.0,0.0,0.0,0.0,0.0,0.0,0.0,0.0,0.0,0.0,0.0,0.0,0.0,0.0,0.0,0.0,0.0,0.0,0.0,0.0,0.0,0.0,0.0,0.0,0.0,0.0,0.0,0.0,0.0,0.0,0.0,-3.3456,-3.6446,-3.858,-3.9567,-3.9668,-3.9538,-3.9233,-3.8638,-3.7186,-3.4574,-3.2309,0.0,0.0,0.0,0.0,0.0,0.0,0.0,0.0,0.0,0.0,0.0,0.0,0.0,0.0,0.0,0.0,0.0,0.0,0.0,0.0,0.0,0.0,0.0,0.0,0.0,0.0,0.0,0.0,0.0,0.0,0.0,0.0,0.0,0.0,0.0,0.0,0.0,0.0,0.0,0.0,0.0,0.0,0.0,0.0,0.0,0.0,0.0,0.0,0.0,0.0,0.0,0.0,0.0,-5.4011,-5.4701,-5.5288,-5.5288,-5.5632,-5.6046,-5.3063,-5.13,-5.0365,0.0,0.0,0.0,0.0,0.0,0.0,0.0,0.0,0.0,0.0,0.0,0.0,0.0,0.0,0.0,0.0,0.0,0.0,0.0,0.0,0.0,0.0,0.0,0.0,0.0,-3.8631,-3.7224,0.0,0.0,0.0,0.0,0.0,0.0,0.0,0.0,0.0,0.0,0.0,0.0,-3.3097,-3.6156,-3.8304,-3.8957,-3.903,-3.903,-3.8991,-3.7895,-3.6447,-3.4602,-3.2304,-3.013,0.0,0.0,0.0,0.0,0.0,0.0,0.0,0.0,0.0,0.0,0.0,0.0,0.0,0.0,0.0,0.0,0.0,0.0,0.0,0.0,0.0,0.0,0.0,0.0,0.0,0.0,0.0,0.0,0.0,0.0,0.0,0.0,-3.8424,-3.8597,0.0,0.0,0.0,0.0,0.0,0.0,0.0,0.0,0.0,0.0,0.0,0.0,0.0,-5.2873,-5.3615,-5.5874,-5.7064,-5.7167,-5.7926,-5.8323,-5.8426,-5.8426,-5.8478,-5.8581,-5.8771,0.0,-5.3489,-5.2136,0.0,0.0,0.0,0.0,0.0,0.0,0.0,0.0,0.0,0.0,0.0,0.0,0.0,0.0,0.0,0.0,0.0,0.0,0.0,0.0,0.0,0.0,-4.4027,-4.3517,-4.1934,-4.0299,0.0,-3.6806,-3.4103,-3.2684,-3.0807,0.0,0.0,0.0,0.0,0.0,0.0,0.0,-3.3155,-3.5778,-3.7651,-3.8275,-3.8333,-3.8257,-3.8097,-3.7448,-3.6381,-3.4853,-3.3542,-3.1857,-2.9659,-2.7769,0.0,0.0,0.0,0.0,0.0,0.0,0.0,0.0,0.0,0.0,0.0,0.0,0.0,0.0,0.0,0.0,0.0,0.0,0.0,0.0,0.0,0.0,0.0,0.0,0.0,0.0,0.0,0.0,0.0,-3.8579,-4.0747,-4.0683,-4.2403,-4.3081,0.0,0.0,0.0,0.0,0.0,0.0,0.0,0.0,0.0,-5.2567,-5.5615,-5.7581,-5.8323,-6.0168,-6.1306,-6.1737,-6.2048,-6.2444,-6.2875,-6.2875,-6.2875,-6.2893,-6.3238,-6.1764,-5.8886,-5.538,-5.2386,-4.9607,0.0,0.0,0.0,0.0,-4.3248,-4.369,-4.4764,-4.5144,0.0,-4.5144,0.0,0.0,0.0,0.0,0.0,0.0,0.0,0.0,0.0,0.0,-4.5331,-4.4474,-4.3176,-4.1818,-4.0654,-3.8737,-3.6777,0.0,-3.332,-3.1462,-2.974,0.0,0.0,0.0,0.0,-3.2048,-3.4288,-3.6156,-3.7535,-3.8144,-3.8202,-3.8142,-3.7929,-3.7227,-3.6392,-3.5368,-3.4209,-3.2754,-3.0988,-2.907,-2.7313,0.0,0.0,0.0,0.0,0.0,0.0,0.0,0.0,0.0,0.0,0.0,0.0,0.0,0.0,0.0,0.0,0.0,0.0,0.0,0.0,0.0,0.0,0.0,0.0,0.0,0.0,0.0,0.0,-4.1086,-4.3251,-4.344,-4.5475,-4.6286,0.0,0.0,0.0,0.0,0.0,0.0,-5.0188,-5.3184,-5.546,-5.6753,-5.9564,-6.141,-6.2168,-6.3513,-6.4462,-6.4997,-6.4997,-6.5307,-6.5876,-6.5876,-6.5876,-6.5876,-6.5669,-6.47,-6.2945,-5.8373,-5.5172,-5.2766,-4.9268,-4.7467,-4.6813,-4.7045,-4.7372,-4.783,-4.8873,-4.9347,-4.9489,-4.9489,0.0,-4.5798,-4.3337,0.0,0.0,0.0,0.0,-4.2837,-4.4351,-4.5397,-4.5827,-4.4761,-4.3658,-4.2464,-4.1029,-3.9931,-3.8711,0.0,-3.5352,-3.3823,-3.2483,0.0,0.0,0.0,0.0,-3.3819,-3.5436,-3.6736,-3.7709,-3.8159,-3.8202,-3.8032,-3.7624,-3.6894,-3.6139,-3.538,-3.4313,-3.3127,-3.1712,-3.0076,-2.8372,-2.6657,0.0,0.0,0.0,0.0,0.0,0.0,0.0,0.0,0.0,0.0,0.0,0.0,0.0,0.0,0.0,0.0,0.0,0.0,0.0,0.0,0.0,0.0,0.0,0.0,0.0,0.0,0.0,0.0,0.0,-4.731,-4.9441,0.0,0.0,0.0,0.0,-4.9717,-5.2442,-5.4149,-5.4218,-5.7133,-5.9168,-5.9944,-6.222,-6.3772,-6.4514,-6.5359,-6.579,-6.5824,-6.5824,-6.5842,-6.5876,-6.5876,-6.5876,-6.5842,-6.5083,-6.4494,-6.3811,-6.0962,-5.8233,-5.5637,-5.2812,-5.171,-5.1559,-5.0943,-5.1575,-5.2744,-5.2823,-5.3265,-5.3787,-5.3787,-5.0916,-4.7164,-4.5735,-4.3626,0.0,0.0,-4.3858,-4.5052,-4.5587,-4.576,-4.5672,-4.5177,-4.3747,-4.235,-4.1688,-4.0904,-3.9808,0.0,-3.6924,-3.5764,-3.4486,0.0,-3.3285,-3.3344,-3.4433,-3.5508,-3.617,-3.7375,-3.8173,-3.8202,-3.8202,-3.7806,-3.6857,-3.6204,-3.538,-3.4359,-3.3854,-3.2984,-3.1574,-3.0681,-2.9279,-2.7294,-2.4979,0.0,0.0,0.0,0.0,0.0,0.0,0.0,0.0,0.0,0.0,0.0,0.0,0.0,0.0,0.0,0.0,0.0,0.0,0.0,0.0,0.0,0.0,0.0,0.0,0.0,0.0,0.0,0.0,-5.1235,-5.3804,0.0,-5.4063,-5.3753,-5.4029,-5.5012,-5.6529,-5.8064,-5.9564,-6.1582,-6.3272,-6.4531,-6.5824,-6.6618,-6.6893,-6.7169,-6.7307,-6.7307,-6.7307,-6.7307,-6.7307,-6.7307,-6.7307,-6.7256,-6.6497,-6.5663,-6.4664,-6.2321,-5.9828,-5.7217,-5.491,-5.3739,-5.3376,-5.3581,-5.3976,-5.4376,-5.4376,-5.4561,-5.4624,-5.3739,-5.1663,-4.9322,-4.8412,-4.6504,-4.4802,-4.5519,-4.579,-4.5995,-4.6746,-4.6493,-4.59,-4.5308,-4.382,-4.2332,-4.1737,-4.0704,-3.984,-3.9406,-3.8352,-3.7375,-3.6925,-3.5981,-3.5299,-3.5299,-3.6054,-3.6693,-3.6925,-3.768,-3.8202,-3.8202,-3.8202,-3.7843,-3.6977,-3.6221,-3.5424,-3.4461,-3.3409,-3.2531,-3.1892,-3.074,-2.9486,-2.8152,-2.6233,-2.4371,0.0,0.0,0.0,0.0,0.0,0.0,0.0,0.0,0.0,0.0,0.0,0.0,0.0,0.0,0.0,0.0,0.0,0.0,0.0,0.0,0.0,0.0,0.0,0.0,0.0,0.0,-5.2546,-5.4339,-5.6995,-5.8392,-5.7616,-5.7322,-5.7581,-5.8599,-5.9616,-6.0978,-6.2755,-6.4289,-6.5686,-6.6945,-6.7721,-6.8101,-6.8101,-6.8101,-6.8101,-6.8101,-6.8101,-6.8101,-6.8101,-6.8101,-6.8101,-6.8049,-6.7049,-6.6131,-6.513,-6.2681,-6.0571,-5.8712,-5.6906,-5.592,-5.5541,-5.5762,-5.5797,-5.5718,-5.5244,-5.5086,-5.4897,-5.3803,-5.244,-5.1137,-5.0657,-4.9188,-4.7703,-4.7951,-4.7743,-4.7422,-4.7651,-4.69,-4.5901,-4.5302,-4.3541,-4.1952,-4.1594,-4.0637,-3.9886,-4.0266,-3.9476,-3.8668,-3.8437,-3.7788,-3.7201,-3.6983,-3.7317,-3.7607,-3.7607,-3.7955,-3.8202,-3.8202,-3.8028,-3.7577,-3.672,-3.5978,-3.5068,-3.3959,-3.302,-3.2221,-3.1517,-3.051,-2.9465,-2.8425,-2.633,-2.4331,-2.2419,0.0,0.0,0.0,0.0,0.0,0.0,0.0,0.0,0.0,0.0,0.0,0.0,0.0,0.0,0.0,0.0,0.0,0.0,0.0,0.0,0.0,0.0,0.0,-4.7815,-5.1203,-5.4391,-5.6633,-5.8909,-5.9995,-5.9237,-5.9858,-6.0306,-6.0306,-6.1703,-6.2875,-6.3617,-6.51,-6.6255,-6.6997,-6.7721,-6.8101,-6.8101,-6.8101,-6.8101,-6.8101,-6.8101,-6.8101,-6.8101,-6.8101,-6.8083,-6.798,-6.6514,-6.5684,-6.5062,-6.213,-6.0644,-6.0157,-5.8821,-5.8321,-5.8226,-5.75,-5.7231,-5.6949,-5.5591,-5.5102,-5.4944,-5.4308,-5.3345,-5.2442,-5.2442,-5.1658,-5.059,-4.9897,-4.9697,-4.9443,-4.8316,-4.6915,-4.5689,-4.5204,-4.3046,-4.1156,-4.136,-4.0673,-4.0126,-4.0616,-4.0217,-3.9618,-3.8942,-3.9035,-3.8971,-3.8304,-3.8202,0.0,-3.8202,-3.8202,-3.8202,-3.8202,-3.7665,-3.6954,-3.6057,-3.5474,-3.4427,-3.2837,-3.2704,-3.1956,-3.0378,-2.995,-2.919,-2.7987,-2.5237,-2.2946,-2.1161,0.0,0.0,0.0,0.0,0.0,0.0,0.0,0.0,0.0,0.0,0.0,0.0,0.0,0.0,0.0,0.0,0.0,0.0,0.0,0.0,0.0,0.0,-4.9557,-5.04,-5.4081,-5.7305,-5.9064,-6.1272,-6.2582,-6.2358,-6.253,-6.2668,-6.2668,-6.3548,-6.4427,-6.5221,-6.6169,-6.7031,-6.7756,-6.798,-6.8101,-6.8101,-6.8101,-6.8101,-6.8101,-6.8101,-6.8101,-6.8101,-6.8101,-6.7807,-6.7238,-6.629,-6.5319,-6.4254,-6.1872,-6.0644,-6.0157,-5.8821,-5.8321,-5.8289,-5.8053,-5.7342,-5.641,-5.6031,-5.5225,-5.4356,-5.4166,-5.3778,-5.3377,-5.3171,-5.2412,-5.1469,-5.0633,-5.0066,-4.9443,-4.8316,-4.6915,-4.5689,-4.5204,-4.3046,-4.1216,-4.1604,-4.0776,-4.0126,-4.0616,-4.0858,-4.0648,-3.969,-3.9338,-3.8971,-3.8304,-3.8202,0.0,-3.8202,-3.8202,-3.8202,-3.8202,-3.7665,-3.7005,-3.6287,-3.565,-3.4683,-3.3145,-3.253,-3.1622,-3.0364,-2.9263,-2.81,-2.6735,-2.502,-2.3604,0.0,0.0,0.0,0.0,0.0,0.0,0.0,0.0,0.0,0.0,0.0,0.0,0.0,0.0,0.0,0.0,0.0,0.0,0.0,0.0,0.0,0.0,-5.0107,-5.2869,-5.388,-5.666,-5.9147,-6.0635,-6.2518,-6.3673,-6.36,-6.36,-6.36,-6.36,-6.3996,-6.4565,-6.5359,-6.579,-6.6531,-6.7601,-6.7635,-6.779,-6.8101,-6.8101,-6.8101,-6.8101,-6.8101,-6.8101,-6.8083,-6.7773,-6.7394,0.0,-6.5859,-6.4889,-6.393,-6.1771,-6.0644,0.0,0.0,0.0,0.0,0.0,-5.7121,-5.6141,-5.5841,-5.5019,-5.4103,-5.4103,-5.3947,-5.3789,-5.3584,-5.304,-5.225,-5.1117,-5.0491,-4.9796,-4.8392,-4.6915,-4.5689,-4.5204,-4.3046,-4.1202,-4.1558,-4.0776,-4.0126,-4.0616,-4.1086,0.0,-4.0366,-3.9859,-3.9363,-3.8725,-3.8376,-3.8202,-3.8202,-3.8202,-3.8202,-3.8202,-3.7418,-3.6722,-3.6344,-3.5488,0.0,0.0,0.0,-3.1293,-2.9748,-2.8812,0.0,0.0,0.0,0.0,0.0,0.0,0.0,0.0,-2.1386,-2.1964,0.0,0.0,0.0,0.0,0.0,0.0,0.0,0.0,0.0,0.0,0.0,0.0,0.0,0.0,0.0,0.0,-5.3199,-5.6003,-5.7436,-5.8896,-6.0247,-6.1467,-6.2974,-6.3837,-6.3637,-6.36,-6.36,-6.36,-6.3669,-6.3996,-6.4669,0.0,0.0,0.0,0.0,-6.7307,-6.7963,-6.8049,-6.8101,-6.8101,-6.8101,-6.8049,-6.7945,-6.729,-6.6893,-6.6652,-6.529,-6.4425,-6.3828,-6.1738,-6.056,-5.9984,-5.8746,-5.8321,-5.8241,-5.7579,-5.6852,-5.6094,-5.5462,0.0,0.0,-5.4103,-5.399,-5.3833,-5.3789,-5.3528,-5.2865,-5.1425,-5.0882,-5.0331,-4.8484,-4.6915,-4.5689,-4.525,-4.3148,-4.1284,-4.1466,-4.0818,-4.0296,-4.0659,-4.1128,-4.1308,-4.0956,-4.0437,-3.99,-3.9291,-3.8638,-3.8202,-3.8202,-3.8202,-3.8202,-3.8202,0.0,0.0,-3.6315,-3.5212,-3.4076,-3.2987,-3.2259,-3.0978,-2.8923,-2.856,-2.7858,-2.6735,-2.5888,-2.5264,-2.476,-2.476,-2.4784,-2.482,-2.3821,-2.4073,0.0,0.0,0.0,0.0,0.0,0.0,0.0,0.0,0.0,0.0,0.0,0.0,0.0,0.0,0.0,-5.2874,-5.5601,-5.7623,-5.857,-6.0025,-6.1175,-6.1779,-6.3046,-6.3873,-6.3837,-6.371,-6.36,-6.36,-6.4152,-6.4548,-6.4686,-6.5307,-6.579,-6.6083,-6.6669,-6.7066,-6.7204,-6.779,-6.8101,-6.8101,0.0,0.0,-6.7204,-6.7066,-6.6307,-6.5117,-6.4824,-6.4133,-6.3094,-6.1537,-6.0022,-5.8655,-5.8397,-5.8321,-5.8305,-5.8116,-5.7279,-5.6173,-5.6031,-5.5162,-5.4103,-5.4103,-5.406,-5.4017,-5.3833,-5.3746,0.0,-5.1511,-5.0995,-5.0472,-4.8526,-4.6915,-4.5748,-4.5475,-4.3728,-4.2115,-4.208,-4.1655,-4.1234,-4.0972,-4.1311,-4.1617,-4.1544,-4.0712,-3.99,-3.9291,-3.8638,-3.8202,-3.8202,-3.8202,-3.8202,-3.8202,-3.7549,-3.6896,-3.6359,-3.5619,-3.4621,-3.3231,-3.188,-3.0474,-2.9105,-2.861,-2.7925,-2.6891,-2.6671,-2.6537,-2.6429,-2.6429,-2.6645,-2.7079,-2.5997,-2.5648,0.0,0.0,0.0,0.0,0.0,0.0,0.0,0.0,0.0,0.0,0.0,-4.5863,-4.86,0.0,-5.2892,-5.5613,-5.7386,-5.8667,-5.944,-6.0563,-6.1465,-6.1949,-6.2945,-6.3727,-6.402,-6.3965,-6.3856,-6.3747,-6.4092,-6.4263,-6.4134,-6.4514,-6.491,-6.5272,-6.5652,-6.6204,-6.698,-6.7359,-6.7721,-6.8101,-6.7721,-6.7303,-6.6806,-6.6049,-6.5237,-6.4366,-6.4006,-6.3346,-6.2408,-6.0887,-5.9504,-5.8321,-5.8321,-5.8321,-5.8321,-5.8321,-5.7435,-5.6189,-5.6189,-5.5272,-5.4103,-5.4103,-5.4103,-5.4103,-5.399,-5.3609,-5.2977,-5.1715,-5.0916,-5.014,-4.8561,-4.6988,-4.5748,-4.5535,-4.3997,-4.2518,-4.2367,-4.2139,-4.1838,-4.1425,-4.166,-4.1782,-4.1449,-4.0677,-4.0002,-3.9697,-3.8826,-3.8202,-3.8202,-3.8202,-3.8202,-3.8202,-3.7665,-3.7041,-3.6359,-3.5305,-3.4111,-3.2867,-3.191,-3.073,-2.929,-2.9035,-2.8411,-2.7332,-2.7294,-2.7294,-2.7294,-2.7294,-2.7702,-2.8498,-2.7957,-2.756,0.0,0.0,0.0,0.0,0.0,0.0,0.0,0.0,-4.4308,-4.6425,-4.8109,-4.9846,-5.2021,-5.3717,-5.5472,-5.7684,-5.8702,-5.9422,-6.0019,-6.0651,-6.127,-6.1891,-6.275,-6.3485,-6.399,-6.4146,-6.4126,-6.3982,-6.391,-6.3837,-6.3673,-6.3637,-6.3858,-6.4462,-6.4634,-6.529,-6.6531,-6.6704,-6.7066,-6.7669,-6.7066,-6.6587,-6.6203,-6.4834,-6.4046,-6.3665,-6.2858,-6.2139,-6.1439,-6.0157,-5.9107,-5.8305,-5.8116,-5.8069,-5.8069,-5.8069,-5.7279,-5.6173,-5.6031,-5.5162,-5.4103,-5.4103,-5.4103,-5.4103,-5.4103,-5.3485,-5.2607,-5.1848,-5.0866,-4.9722,-4.847,-4.7003,-4.5748,-4.5535,-4.4136,-4.2768,-4.2624,-4.2477,-4.2224,-4.1776,-4.1897,-4.1889,-4.1207,-4.0539,-4.006,-3.9944,-3.8942,-3.8202,-3.8202,-3.8202,-3.8202,-3.8202,-3.7665,-3.6983,-3.6199,-3.47,-3.3448,-3.2533,-3.1964,-3.1022,-2.9514,-2.9475,-2.903,-2.8041,-2.8086,-2.8186,-2.8186,-2.8186,-2.8619,-2.9448,-2.9448,-2.922,-4.1511,-4.2852,-4.481,-4.5321,-4.5744,-4.6241,0.0,0.0,-4.7345,-4.896,-5.0539,-5.2119,-5.3752,-5.5297,-5.6894,-5.8597,-5.9492,-6.0001,-6.0089,-6.0177,-6.0528,-6.1303,-6.2503,-6.331,-6.3397,-6.3903,-6.4198,-6.4162,-6.3982,-6.3873,-6.3873,-6.371,-6.3634,-6.372,-6.4358,-6.4772,-6.4962,-6.5652,-6.6048,-6.6135,-6.6048,-6.552,-6.462,-6.3876,-6.3063,-6.2194,-6.1276,-6.0475,-5.9865,-5.9476,-5.8927,-5.8211,-5.7579,-5.7342,-5.7342,-5.7342,-5.6852,-5.6094,-5.5462,-5.4735,-5.4103,-5.4103,-5.4103,-5.4103,-5.4103,-5.3629,-5.2823,-5.1737,-5.0725,-4.965,-4.8089,-4.6741,-4.5748,-4.5535,-4.4365,-4.3227,-4.2937,-4.2695,-4.2394,-4.1817,-4.1897,-4.1889,-4.1207,-4.0539,-3.9915,-3.9378,-3.8667,-3.8202,-3.8202,-3.8202,-3.8202,-3.8202,-3.7665,-3.6809,-3.561,-3.4337,-3.3353,-3.2713,-3.1783,-3.0782,-2.9731,-2.9774,-2.9618,-2.9124,-2.9581,-2.9821,-2.9821,-2.9821,-2.9881,-3.0001,-3.0001,-2.9965,-4.4048,-4.5335,-4.7156,0.0,-4.91,-4.9951,-5.0682,-5.0822,-5.1066,-5.2155,-5.3612,-5.5033,-5.6139,-5.7245,-5.8369,0.0,-5.9896,-6.0089,-6.0089,-6.0089,-6.0212,-6.0563,-6.1516,-6.229,-6.2745,-6.301,-6.3292,-6.366,-6.3589,-6.3639,-6.3892,-6.3837,-6.371,-6.3582,-6.3893,-6.4272,-6.4703,-6.5031,-6.539,-6.574,-6.5237,-6.4556,-6.3611,-6.2797,-6.1886,-6.0986,-6.0355,-5.9854,-5.9387,-5.9046,-5.8417,-5.7627,-5.7342,-5.6979,-5.6615,-5.6615,-5.6173,-5.5525,-5.5197,-5.4672,-5.4103,-5.4103,-5.4103,-5.4103,-5.4103,-5.3329,-5.2329,-5.1738,-5.0429,-4.8974,-4.801,-4.6784,-4.5676,-4.5238,-4.4502,-4.3641,-4.2896,-4.2783,-4.2635,-4.2055,-4.1732,-4.1308,-4.0626,-3.9987,-3.9363,-3.871,-3.8376,-3.8202,-3.8202,-3.8202,-3.8072,-3.7723,-3.678,-3.5988,-3.545,-3.4309,-3.3227,-3.239,-3.1516,-3.052,-2.938,-2.9595,-2.9606,-2.9292,-2.9821,-3.0086,-3.0086,-3.0086,-3.0242,-3.0585,-3.0585,-3.0711,-4.5998,-4.7445,0.0,-5.0189,-5.1555,-5.2804,-5.3366,-5.3489,-5.3717,-5.4489,-5.5349,-5.628,-5.728,-5.779,-5.8421,-5.9598,-5.9791,-5.9861,-6.0072,-6.0089,-6.0089,-6.0089,-6.0616,-6.1178,-6.1704,-6.2143,-6.2601,-6.3011,-6.3221,-6.3433,-6.3707,-6.3842,-6.3837,-6.3673,-6.3637,-6.3858,-6.4393,-6.4393,-6.4573,-6.4967,-6.4196,-6.3424,-6.2673,-6.1566,-6.0567,-5.9723,-5.9448,-5.9181,-5.9001,-5.8449,-5.7795,-5.7184,-5.6789,-5.6331,-5.5873,-5.5683,-5.5399,-5.5055,-5.4865,-5.453,-5.4103,-5.4103,-5.4103,-5.4071,-5.3882,-5.2965,-5.1887,-5.1434,-4.9973,-4.8412,-4.7892,-4.6799,-4.5647,-4.4964,-4.4409,-4.3771,-4.2783,-4.2678,-4.2615,-4.2179,-4.1555,-4.0887,-4.022,-3.9596,-3.8971,-3.8304,-3.8202,-3.8202,-3.8202,-3.8057,-3.7651,-3.6852,-3.5959,-3.5334,-3.5145,-3.4125,-3.3108,-3.2087,-3.122,-3.0216,-2.904,-2.946,-2.9673,-2.9508,-3.0182,-3.0518,-3.0518,-3.0518,-3.0766,-3.1139,-3.1139,-3.1344,-4.7033,0.0,-5.1191,-5.1088,-5.267,-5.4244,-5.4261,-5.4279,-5.4507,-5.5314,-5.4893,-5.484,-5.635,-5.6069,-5.6368,-5.8667,-5.9036,-5.9282,-6.0001,-6.0089,-6.0089,-6.0089,-6.0107,-6.0142,0.0,-6.1511,-6.2406,-6.2424,-6.2975,-6.3292,-6.331,-6.3691,-6.391,-6.3873,-6.371,-6.36,-6.3617,-6.3617,-6.3523,-6.335,-6.2697,-6.2156,-6.1692,-6.0087,-5.9017,-5.8367,-5.8367,-5.8367,-5.8257,-5.7532,-5.7231,-5.7073,-5.5686,-5.5134,-5.5039,-5.4403,-5.4577,-5.4991,-5.4356,-5.4119,-5.4103,-5.4103,-5.4103,-5.3976,-5.3329,-5.2618,-5.1793,-5.0647,-4.9367,-4.8175,-4.751,-4.6594,-4.5676,-4.4801,-4.4093,-4.3415,-4.2739,-4.236,-4.2121,-4.2092,-4.1555,-4.0887,-4.022,-3.9596,-3.8971,-3.8304,-3.8202,-3.8202,-3.8202,-3.7694,-3.6838,-3.5595,-3.5421,-3.5145,-3.4501,-3.375,-3.2868,-3.1869,-3.0871,-2.9858,-2.8831,-2.962,-3.0062,-3.0062,-3.1127,-3.1657,-3.1657,-3.1657,-3.1669,-3.1681,-3.1681,-3.1693,-4.8505,0.0,-5.2672,-5.3117,-5.494,-5.649,-5.5946,-5.5823,-5.5613,-5.4858,-5.4103,-5.3875,-5.4893,-5.4875,-5.5314,-5.7105,-5.8299,-5.9106,-5.9334,-5.9791,-6.0089,-6.0089,-5.9668,0.0,0.0,0.0,0.0,-6.1634,-6.2305,-6.2886,-6.3292,-6.3815,-6.4054,-6.391,-6.371,-6.3526,-6.3377,-6.3377,-6.3097,-6.243,-6.1317,-6.0525,-6.0071,-5.9209,-5.8355,-5.7579,-5.7579,-5.7311,-5.6868,-5.6631,-5.6268,-5.5749,-5.5276,-5.4846,-5.4419,-5.4182,-5.4245,-5.4403,-5.4182,-5.4103,-5.4103,-5.4103,-5.3803,-5.3392,-5.3186,-5.227,-5.1193,-5.0491,-4.9211,-4.7934,-4.7424,-4.6255,-4.5068,-4.4371,-4.3675,-4.3024,-4.2402,-4.2196,-4.2092,-4.2092,-4.1192,-4.0365,-4.0133,-3.9233,-3.8463,-3.8231,-3.8202,-3.8202,-3.8202,-3.7288,-3.6475,-3.604,-3.5241,-3.4646,-3.4428,-3.3736,-3.2818,-3.1659,-3.0796,-2.9957,-2.9165,-2.9754,-3.0254,-3.0603,-3.1344,-3.1705,-3.1705,-3.1705,-3.1705,-3.1705,-3.1705,-3.1705,-4.9954,-5.2147,-5.4068,-5.4261,-5.5859,-5.7175,-5.6385,-5.5981,-5.542,-5.4173,-5.2857,-5.2172,-5.2944,-5.28,-5.3291,-5.5437,-5.7062,-5.8307,-5.8899,-5.9633,-6.0089,-6.0089,-5.9685,-5.958,0.0,0.0,0.0,-6.0826,-6.181,-6.2584,-6.2957,-6.3764,-6.4126,-6.4018,-6.3747,-6.3489,-6.3319,-6.3059,-6.2335,-6.1136,-6.02,-5.9492,-5.8911,-5.8355,-5.7763,-5.7216,-5.6963,-5.6599,-5.6173,-5.592,-5.5541,-5.507,-5.4818,-5.4482,-5.4103,-5.4103,-5.4103,-5.4103,-5.4103,-5.4103,-5.4055,-5.3818,-5.3455,-5.3013,-5.2491,-5.1701,-5.0886,-5.0254,-4.9094,-4.7919,-4.7538,-4.6209,-4.488,-4.4182,-4.3485,-4.2818,-4.2223,-4.2092,-4.2092,-4.2092,-4.1207,-4.0379,-4.0133,-3.9044,-3.8202,-3.8202,-3.8202,-3.813,-3.7912,-3.6954,-3.6228,-3.5996,-3.5038,-3.4414,-3.4414,-3.3736,-3.2783,-3.1573,-3.094,-3.0207,-2.9321,-2.9989,-3.053,-3.091,-3.144,-3.1705,-3.1705,-3.1705,-3.1705,-3.1705,-3.1705,-3.1705,-5.1412,-5.3669,-5.5507,-5.4682,-5.5613,-5.6508,-5.5701,-5.4893,-5.4068,-5.3218,-5.1164,-4.9732,0.0,0.0,-5.0402,-5.3572,-5.5394,-5.6961,-5.8657,-5.9615,-6.0089,0.0,0.0,0.0,0.0,0.0,0.0,-6.0089,0.0,-6.2389,-6.2389,-6.3537,-6.4198,-6.4198,-6.382,-6.3526,-6.3282,-6.2586,-6.1308,-5.9559,-5.9387,-5.8911,-5.8241,-5.7532,-5.7184,-5.7073,-5.6426,-5.611,-5.6031,-5.5351,-5.5039,-5.4976,-5.4356,-5.4103,-5.4103,-5.4103,-5.4103,-5.4103,-5.4103,-5.4071,-5.3945,-5.3313,-5.306,-5.2744,-5.1385,-5.0983,-5.0744,-4.9866,-4.899,-4.8244,-4.7764,-4.6483,-4.5054,-4.4211,-4.3499,-4.2789,-4.2223,-4.2092,-4.2092,-4.2092,-4.1526,-4.0829,-4.0162,-3.903,-3.8202,-3.8202,-3.8202,-3.7999,-3.7433,-3.6765,-3.6112,-3.5508,-3.4835,-3.4409,-3.438,-3.3695,-3.2789,-3.1576,-3.1254,-3.0595,-2.9417,-3.0338,-3.0891,-3.0958,-3.1452,-3.1705,-3.1705,-3.1705,-3.1705,-3.1705,-3.1705,-3.1705,-5.3656,-5.604,-5.7912,-5.7122,-5.7649,-5.7895,-5.5946,-5.4893,-5.3594,-5.1084,-4.8731,-4.7136,0.0,0.0,0.0,-5.0811,-5.3922,0.0,-5.7555,-5.912,0.0,-6.0089,0.0,-5.951,-6.0054,-5.9598,0.0,0.0,-6.1511,-6.2389,-6.2389,-6.3641,-6.4287,-6.4198,-6.3946,-6.3563,-6.3076,-6.1756,-6.0541,-5.9387,-5.8956,-5.834,-5.7484,-5.7295,-5.6647,-5.5607,-5.5434,-5.5114,-5.4609,-5.4435,-5.4356,-5.434,-5.4166,-5.4103,-5.4103,-5.4103,-5.4103,-5.4103,-5.4103,-5.3771,-5.3329,-5.3171,-5.2381,-5.1448,-5.1125,-5.0611,-5.0113,-4.9684,-4.9178,-4.8656,-4.8229,-4.6608,-4.4995,-4.4608,-4.339,-4.2281,-4.2121,-4.2092,-4.2092,-4.2092,-4.1149,-4.0162,-3.9538,-3.8754,-3.8202,-3.8202,-3.8202,-3.8144,-3.7984,-3.7433,-3.6794,-3.6141,-3.5383,-3.4681,-3.402,-3.3513,-3.2752,-3.1713,-3.1431,-3.1075,-3.0501,-3.0735,-3.1103,-3.15,-3.1633,-3.1705,-3.1705,-3.1705,-3.1705,-3.1705,-3.1705,-3.1705,-5.4945,-5.7087,-5.872,-5.7561,-5.7614,-5.7333,-5.5016,-5.3085,-5.1119,-4.8679,-4.6014,0.0,-4.437,0.0,0.0,0.0,0.0,0.0,-5.5882,-5.7959,-5.9356,0.0,-5.9304,0.0,-5.9846,-5.9514,-5.9444,0.0,-6.1165,-6.2055,-6.2371,-6.336,-6.4044,-6.4287,-6.4054,-6.3305,-6.2082,-6.1045,-5.9794,-5.8374,-5.8103,-5.7573,-5.6757,-5.6457,-5.5828,-5.507,0.0,-5.4466,-5.4103,-5.4103,-5.4103,-5.4103,-5.4103,-5.4103,-5.4103,-5.4103,-5.4103,-5.4055,-5.3755,-5.3202,-5.2633,-5.2633,-5.1875,-5.0951,-5.0611,-5.0232,-4.9876,-4.9757,-4.9421,-4.8959,-4.8521,-4.6808,-4.5066,-4.479,-4.3357,-4.2092,-4.2092,-4.2092,-4.2092,-4.2092,-4.1018,-3.9987,-3.9654,-3.8826,-3.8202,-3.8202,-3.8202,-3.8202,-3.8202,-3.768,-3.7172,-3.678,-3.5892,-3.5075,-3.4384,-3.3795,-3.3049,-3.2033,-3.1777,-3.1501,-3.107,-3.1182,-3.1404,-3.1705,-3.1705,-3.1705,-3.1705,-3.1705,-3.1705,-3.1717,-3.1958,-3.2034,-5.5812,-5.753,-5.8773,-5.7158,-5.6613,-5.5823,-5.3418,-5.0417,-4.7661,-4.5933,0.0,-4.0969,-4.1446,-4.1911,-4.3185,-4.6191,0.0,-5.2155,-5.3983,-5.6465,-5.8151,-5.8222,-5.8951,-5.9437,-5.9437,-5.9437,-5.9437,-5.9437,-6.0346,-6.1276,-6.2129,-6.2749,-6.338,-6.3974,-6.3599,-6.2493,-6.0597,-6.0144,-5.8966,-5.7089,-5.7089,-5.6726,-5.6015,-5.537,-5.5039,-5.4913,0.0,0.0,-5.4103,-5.4103,-5.4103,-5.4103,-5.4103,-5.4103,-5.4103,-5.4103,-5.404,-5.3882,-5.3313,-5.257,-5.1875,-5.1875,-5.1401,-5.0721,-5.0105,-4.9876,-4.9876,-4.9876,-4.9574,-4.9135,-4.8687,-4.6919,-4.5181,-4.4726,-4.3326,-4.2092,-4.2092,-4.2092,-4.2092,-4.2092,-4.1018,-4.0104,-4.0104,-3.9044,-3.8202,-3.8202,-3.8202,-3.8202,-3.8202,-3.7738,-3.7404,-3.7317,-3.6416,-3.5563,-3.4994,-3.4265,-3.3394,-3.2378,-3.2196,-3.1881,-3.1351,-3.154,-3.1705,-3.1705,-3.1705,-3.1705,-3.1705,-3.1705,-3.1753,-3.1837,-3.2274,-3.2539,-5.7236,-5.8663,-5.9527,-5.7983,-5.6631,-5.4928,-5.1961,-4.8398,0.0,0.0,-3.9678,-3.7511,-3.805,-3.8353,-3.9691,-4.3304,0.0,0.0,0.0,0.0,-5.6815,0.0,0.0,0.0,0.0,0.0,0.0,0.0,0.0,-5.9513,-6.0906,-6.1708,-6.2057,-6.1863,-6.1123,-6.0184,-5.8921,-5.8277,-5.7436,-5.6362,-5.6362,-5.5999,-5.5276,-5.5149,-5.4814,-5.4277,-5.415,0.0,-5.4103,-5.4103,-5.4103,-5.4103,-5.4103,-5.4103,-5.4103,-5.4103,-5.3755,-5.3265,-5.3155,-5.2254,-5.1148,-5.1148,-5.0674,-5.0089,-4.9963,-4.9876,-4.9876,-4.9876,-4.9466,-4.8867,-4.8464,-4.6693,-4.4936,-4.4492,-4.3207,-4.2092,-4.2092,-4.2092,-4.2092,-4.2092,-4.1018,-4.0104,-4.0104,-3.9044,-3.8202,-3.8202,-3.8202,-3.8202,-3.8202,-3.8115,-3.7854,-3.736,-3.6708,-3.5836,-3.4691,-3.4106,-3.3418,-3.2504,-3.2404,-3.2197,-3.1892,-3.1757,-3.1705,-3.1705,-3.1705,-3.1705,-3.1705,-3.1705,-3.1946,-3.2358,-3.2454,-3.2743,-5.7702,-5.8931,-5.9721,-5.8193,-5.6272,-5.3952,-5.0879,0.0,0.0,0.0,-3.7421,-3.5273,-3.5684,0.0,0.0,0.0,0.0,0.0,0.0,0.0,0.0,0.0,0.0,0.0,0.0,0.0,0.0,0.0,0.0,-5.8711,-6.0047,-6.084,-6.1147,-6.084,-6.0252,-5.9432,-5.8355,-5.7793,-5.6868,-5.5636,-5.5636,-5.5272,-5.4593,-5.4593,-5.4403,-5.4103,-5.4103,0.0,-5.4103,-5.4103,-5.4103,-5.4103,-5.4103,-5.3882,-5.3581,-5.3581,-5.3139,-5.2491,-5.2128,-5.1559,-5.0951,-5.0548,-5.02,-4.9876,-4.9876,-4.9876,-4.9876,-4.9876,-4.9426,-4.8811,-4.8411,-4.6643,-4.4889,-4.4434,-4.316,-4.2092,-4.2092,-4.2092,-4.2092,-4.2092,-4.1018,-4.0104,-4.0104,-3.9044,-3.8202,-3.8202,-3.8202,-3.8202,-3.8202,-3.8202,-3.8086,-3.7796,-3.7115,-3.6287,-3.5166,-3.4486,-3.3744,-3.2878,-3.2543,-3.2344,-3.2213,-3.1893,-3.1705,-3.1705,-3.1705,-3.1705,-3.1705,-3.1961,-3.2238,-3.2515,-3.3056,-3.344,-5.7754,-5.8931,-5.9721,-5.8162,-5.5732,-5.2939,-4.9839,-4.4717,0.0,0.0,-3.5534,-3.3386,-3.3734,0.0,-3.6061,0.0,0.0,0.0,0.0,0.0,0.0,0.0,0.0,0.0,0.0,0.0,0.0,0.0,0.0,0.0,-5.9168,-5.9748,-5.9945,-5.9739,-5.9309,-5.8557,-5.7626,-5.7145,-5.6253,-5.4865,-5.4865,-5.4624,-5.4103,-5.4103,-5.4103,-5.4103,-5.4103,0.0,0.0,-5.4103,-5.4103,-5.4087,-5.3945,-5.3566,-5.3092,-5.2934,-5.2412,-5.1717,-5.1164,-5.092,-5.0658,-5.0105,-4.9876,-4.9876,-4.9876,-4.9876,-4.9876,-4.9876,-4.9315,-4.8606,-4.8192,-4.6427,-4.4597,-4.3997,-4.2949,-4.2092,-4.2092,-4.2092,-4.2049,-4.1903,-4.0916,-4.006,-3.9929,-3.8957,-3.8202,-3.8202,-3.8202,-3.8202,-3.8202,-3.8202,-3.8202,-3.8202,-3.7481,-3.6598,-3.5655,-3.4855,-3.4021,-3.3167,-3.2692,-3.2431,-3.24,-3.1981,-3.1749,-3.1705,-3.1705,-3.1765,-3.1886,-3.2286,-3.2611,-3.2851,-3.361,-3.4054,-5.7596,-5.8931,-5.9706,-5.8024,-5.5118,-5.1801,-4.8609,0.0,0.0,-3.6405,-3.3503,-3.1436,-3.2014,-3.2091,-3.2984,0.0,0.0,-4.0204,0.0,0.0,0.0,0.0,0.0,0.0,0.0,0.0,0.0,0.0,0.0,0.0,-5.8019,-5.7941,-5.7773,-5.7603,-5.6962,-5.632,-5.5645,-5.5265,-5.4746,-5.4182,-5.4182,-5.4166,-5.4103,-5.4103,-5.4103,-5.4103,-5.4103,0.0,0.0,-5.4103,-5.4103,-5.404,-5.3439,-5.3155,-5.3028,-5.2365,-5.167,-5.1053,-5.103,-5.0548,-5.001,-4.9947,-4.9876,-4.9876,-4.9876,-4.9876,-4.9876,-4.9876,-4.8999,-4.7912,-4.7489,-4.5734,-4.3705,-4.2562,-4.2218,-4.2092,-4.2092,-4.2092,-4.1918,-4.1308,-4.0597,-3.9929,-3.9378,-3.8681,-3.8202,-3.8202,-3.8202,-3.8202,-3.8202,-3.8202,-3.8202,-3.8202,-3.7481,-3.6598,-3.5655,-3.4855,-3.4021,-3.3167,-3.281,-3.2593,-3.2388,-3.2125,-3.1893,-3.1705,-3.1705,-3.1958,-3.243,-3.2478,-3.2984,-3.385,-3.3946,-3.4246,-5.621,-5.75,-5.8164,-5.6377,-5.3719,-5.0562,-4.6797,0.0,-3.7379,-3.5273,-3.2765,-3.0959,-3.1037,-3.1347,-3.2277,-3.4336,-3.5909,-3.8245,-4.217,0.0,0.0,0.0,0.0,0.0,0.0,0.0,0.0,0.0,0.0,0.0,-5.716,-5.6987,-5.6812,-5.6564,-5.6037,-5.5515,-5.504,-5.4723,-5.4386,-5.4103,-5.4103,-5.4103,-5.4103,-5.4103,-5.4103,-5.4103,-5.4103,0.0,0.0,-5.3502,-5.325,-5.2823,-5.2554,-5.2191,-5.1796,-5.1496,-5.0943,-5.0342,-5.0342,-5.0168,-4.9876,-4.9876,-4.9876,-4.9876,-4.9876,-4.9876,-4.9837,-4.941,-4.8543,-4.7493,-4.6555,-4.4734,-4.301,-4.2284,-4.2092,-4.2092,-4.2092,-4.2092,-4.1903,-4.1221,-4.0554,-3.99,-3.9305,-3.8638,-3.8202,-3.8202,-3.8202,-3.8202,-3.8202,-3.8202,-3.8202,-3.8202,-3.7481,-3.6598,-3.5655,-3.4855,-3.4021,-3.3167,-3.2853,-3.268,-3.2593,-3.2213,-3.195,-3.1893,-3.2087,-3.2286,-3.2503,-3.3128,-3.3598,-3.4006,-3.4318,-3.4583,-5.4834,-5.6213,-5.6972,-5.5126,-5.2458,-4.93,0.0,-4.0797,-3.6649,-3.4515,-3.2331,-3.0712,-3.0531,-3.0919,-3.1747,-3.3226,-3.4518,-3.6539,-3.9984,0.0,0.0,0.0,0.0,0.0,0.0,0.0,0.0,0.0,0.0,0.0,0.0,-5.6057,-5.6093,-5.6086,-5.5629,-5.5221,-5.4822,-5.4597,-5.4386,-5.4103,-5.4103,-5.4103,-5.4103,-5.4103,-5.4103,-5.4103,0.0,0.0,0.0,-5.3107,-5.2681,-5.1986,-5.178,-5.1401,-5.0983,-5.0737,-5.0342,-4.9876,-4.9876,-4.9876,-4.9876,-4.9876,-4.9876,-4.9844,-4.9679,-4.9615,-4.9466,-4.8937,-4.791,-4.6602,-4.5177,-4.3778,-4.2581,-4.2216,-4.2092,-4.2092,-4.2092,-4.2092,-4.1845,-4.0974,-4.0423,-3.9842,-3.9044,-3.8507,-3.8202,-3.8202,-3.8202,-3.8202,-3.8202,-3.8202,-3.8202,-3.8202,-3.7596,-3.6755,-3.5789,-3.5032,-3.4189,-3.324,-3.3013,-3.284,-3.2723,-3.2344,-3.2081,-3.1994,-3.2316,-3.2575,-3.2743,-3.3609,-3.4066,-3.4234,-3.4607,-3.4775,-5.3725,-5.5514,-5.6567,-5.4761,-5.1549,-4.802,0.0,-3.9964,-3.5595,-3.4104,-3.205,-3.0506,-3.0506,-3.0506,-3.0986,-3.2464,-3.3326,-3.4849,-3.7831,0.0,0.0,0.0,0.0,0.0,0.0,0.0,0.0,0.0,0.0,0.0,0.0,-5.5017,-5.555,-5.6093,-5.5629,-5.5221,-5.4813,-5.4813,-5.4544,-5.4103,-5.4103,-5.4103,-5.4103,-5.4103,-5.4103,0.0,0.0,0.0,0.0,-5.3107,-5.2681,-5.1938,-5.1259,-5.1015,-5.092,-5.0184,-4.9931,-4.9876,-4.9876,-4.9876,-4.9876,-4.9876,-4.9876,-4.9789,-4.911,-4.8904,-4.885,-4.8655,-4.7029,-4.498,-4.3414,-4.2835,-4.2581,-4.2216,-4.2092,-4.2092,-4.2092,-4.2092,-4.17,-4.0365,-4.0104,-3.9697,-3.8434,-3.8202,-3.8202,-3.8202,-3.8202,-3.8202,-3.8202,-3.8202,-3.8202,-3.8202,-3.7839,-3.7173,-3.611,-3.5453,-3.4618,-3.3484,-3.3398,-3.3185,-3.2711,-3.2519,-3.2257,-3.1994,-3.2316,-3.2755,-3.3284,-3.3789,-3.4258,-3.4775,-3.4775,-3.4775,-5.1312,-5.2705,-5.3253,-5.134,-4.8975,-4.6129,-4.2427,-3.8714,-3.5446,-3.3464,-3.1686,-3.0506,-3.0506,-3.0506,-3.0969,-3.2448,-3.2901,0.0,0.0,0.0,0.0,0.0,0.0,0.0,0.0,0.0,0.0,0.0,0.0,0.0,0.0,-5.4517,-5.4788,-5.5316,-5.5369,-5.5221,-5.4781,-5.4597,-5.4147,-5.3423,-5.3882,-5.3866,-5.3439,-5.3882,0.0,0.0,0.0,0.0,0.0,-5.1654,-5.1227,-5.0563,-5.0342,-5.0247,-5.0232,-5.001,-4.9615,-4.922,-4.922,-4.892,-4.8541,-4.8541,-4.8541,-4.8494,-4.8272,-4.8525,-4.8567,-4.699,-4.5377,-4.3941,-4.3015,-4.2541,-4.2242,-4.2133,-4.2092,-4.2092,-4.2092,-4.2092,-4.17,-4.035,-4.0104,-3.9697,-3.842,-3.8202,-3.8202,-3.8202,-3.8202,-3.8202,-3.8202,-3.8202,-3.8202,-3.8202,-3.7953,-3.7481,-3.6702,-3.5937,-3.51,-3.4147,-3.3768,-3.3441,-3.2982,-3.2605,-3.2344,-3.2257,-3.2756,-3.3128,-3.3284,-3.415,-3.4619,-3.4775,-3.4775,-3.4775,-4.8399,-4.9548,-4.9948,-4.835,-4.6187,-4.3673,-4.068,-3.7483,-3.47,-3.305,-3.1537,-3.0506,-3.0506,-3.0506,-3.0969,-3.2448,-3.2702,0.0,0.0,0.0,0.0,0.0,0.0,0.0,0.0,0.0,0.0,0.0,0.0,0.0,0.0,-5.3816,-5.4051,-5.4399,-5.4861,-5.5069,-5.489,-5.4409,-5.3782,-5.3107,-5.325,-5.3092,-5.2712,-5.3123,0.0,0.0,0.0,0.0,0.0,-5.1015,-5.0563,-4.9876,-4.9876,-4.9876,-4.986,-4.9631,-4.9268,-4.8841,-4.8604,-4.8241,-4.7893,-4.7893,-4.7703,-4.7482,-4.7482,-4.7653,-4.7479,-4.5495,-4.4261,-4.3314,-4.2662,-4.2284,-4.2092,-4.2092,-4.2092,-4.2092,-4.2092,-4.2092,-4.17,-4.035,-4.0104,-3.9697,-3.842,-3.8202,-3.8202,-3.8202,-3.8202,-3.8202,-3.8202,-3.8202,-3.8202,-3.8202,-3.8104,-3.7825,-3.7414,-3.6573,-3.5656,-3.4675,-3.4301,-3.381,-3.324,-3.2865,-3.2661,-3.2695,-3.3159,-3.3461,-3.3573,-3.4414,-3.4775,-3.4775,-3.4775,-3.4775,0.0,-4.6197,-4.6857,-4.5772,-4.3427,-4.1011,-3.9497,-3.6381,0.0,-3.2762,-3.1504,-3.0522,-3.0572,-3.0572,-3.1052,-3.2531,-3.2834,0.0,0.0,0.0,0.0,0.0,0.0,0.0,0.0,0.0,0.0,0.0,0.0,0.0,0.0,-5.2986,-5.3367,-5.3417,-5.4137,-5.4688,-5.4952,-5.4088,-5.3423,-5.2949,-5.2317,-5.1986,-5.1938,-5.1986,0.0,0.0,0.0,0.0,0.0,-5.0936,-5.0516,-4.9876,-4.9876,-4.986,-4.9773,-4.9126,-4.8825,-4.8652,-4.8035,-4.7782,-4.7751,-4.7751,-4.7293,-4.6724,-4.6724,-4.6463,-4.5832,-4.4327,-4.3591,-4.309,-4.2284,-4.2092,-4.2092,-4.2092,-4.2092,-4.2092,-4.2092,-4.2092,-4.1715,-4.0423,-4.0162,-3.977,-3.8551,-3.8333,-3.8318,-3.8275,-3.8275,-3.826,-3.8217,-3.8202,-3.8202,-3.8202,-3.8202,-3.8202,-3.8202,-3.7327,-3.6296,-3.5196,-3.4922,-3.4384,-3.3526,-3.3278,-3.3196,-3.3231,-3.3491,-3.3807,-3.4054,-3.4546,-3.4775,-3.4775,-3.4775,-3.4775,-4.0694,0.0,-4.5733,-4.4035,-4.2517,-4.0746,0.0,-3.5628,-3.3425,-3.2133,-3.1118,-3.0671,-3.1234,-3.135,-3.1813,-3.3292,-3.4005,0.0,0.0,0.0,0.0,0.0,0.0,0.0,0.0,0.0,0.0,0.0,0.0,0.0,0.0,-5.2539,-5.287,-5.34,-5.3304,-5.341,-5.3734,-5.3206,-5.2451,-5.148,-5.1843,-5.1733,-5.1227,-5.1764,0.0,0.0,0.0,0.0,-5.0168,-5.0168,-5.0074,-4.9876,-4.9876,-4.96,-4.911,-4.8952,-4.8209,-4.7261,-4.7119,-4.6724,-4.6297,-4.6297,-4.6187,-4.6044,-4.6044,-4.5751,-4.5219,-4.4166,-4.3591,-4.309,-4.2284,-4.2092,-4.2092,-4.2092,-4.2092,-4.2092,-4.2092,-4.2092,-4.186,-4.1018,-4.0858,-4.0612,-3.9784,-3.9654,-3.9494,-3.903,-3.8971,-3.8783,-3.8275,-3.8202,-3.8202,-3.8202,-3.8202,-3.8202,-3.8202,-3.7711,-3.7134,-3.6492,-3.5843,-3.5046,-3.4189,-3.402,-3.379,-3.3442,-3.3937,-3.4351,-3.4595,-3.4715,-3.4775,-3.4775,-3.4775,-3.4775,-3.7991,-4.0365,-4.2243,-4.0822,-3.9961,-3.8841,-3.6605,-3.4386,-3.2564,-3.1763,0.0,-3.0721,-3.1466,-3.1879,-3.2597,-3.4054,-3.4916,0.0,0.0,0.0,0.0,0.0,0.0,0.0,0.0,0.0,0.0,0.0,0.0,0.0,0.0,-5.2409,-5.2556,-5.292,-5.2556,-5.2655,-5.3311,-5.2572,-5.1797,-5.1015,-5.1022,-5.0864,-5.05,-5.0879,-5.0848,0.0,0.0,0.0,-4.9876,-4.9876,-4.9876,-4.986,-4.9568,-4.922,-4.881,-4.8162,-4.7451,-4.6755,-4.6455,-4.6108,-4.5807,-4.5807,-4.5807,-4.5807,-4.5807,-4.5515,-4.5017,-4.4135,-4.3591,-4.309,-4.2284,-4.2092,-4.2092,-4.2092,-4.2092,-4.2092,-4.2092,-4.2092,-4.1903,-4.1221,-4.1091,-4.0887,-4.022,-4.0104,-3.99,-3.9291,-3.9204,-3.8957,-3.8289,-3.8202,-3.8202,-3.8202,-3.8202,-3.8202,-3.8202,-3.8014,-3.7634,-3.712,-3.6494,-3.5818,-3.5099,-3.4834,-3.4464,-3.4094,-3.4419,-3.4643,-3.4775,-3.4775,-3.4775,-3.4775,-3.4775,-3.4775,-3.6293,-3.7436,-3.8421,-3.7895,-3.7594,-3.7052,-3.5578,0.0,0.0,0.0,0.0,0.0,-3.1946,-3.2613,0.0,0.0,0.0,0.0,0.0,0.0,0.0,0.0,0.0,0.0,0.0,0.0,0.0,0.0,0.0,0.0,0.0,-5.2359,-5.2409,-5.2409,-5.2013,-5.2165,-5.2971,-5.1961,-5.124,-5.08,-5.0216,-4.9876,-4.9876,-4.9876,-4.9876,0.0,0.0,0.0,-4.9773,-4.9773,-4.971,-4.9552,-4.8968,-4.8667,-4.8415,-4.7229,-4.674,-4.6566,-4.6013,-4.5807,-4.5807,-4.5807,-4.5807,-4.5807,-4.5807,-4.5515,-4.5017,-4.4135,-4.3591,-4.309,-4.2284,-4.2092,-4.2092,-4.2092,-4.2092,-4.2092,-4.2092,-4.2092,-4.1932,-4.1366,-4.125,-4.1076,-4.0495,-4.0408,-4.0162,-3.945,-3.9334,-3.9059,-3.8304,-3.8202,-3.8202,-3.8202,-3.8202,-3.8202,-3.8202,-3.8202,-3.7976,-3.7457,-3.7056,-3.66,-3.6144,-3.567,-3.5302,-3.5048,-3.4944,-3.4884,-3.4775,-3.4823,-3.4823,-3.4775,-3.4775,-3.4775,-3.5177,-3.6417,-3.7635,-3.8738,-3.8994,-3.8586,-3.7102,-3.5048,0.0,0.0,0.0,0.0,0.0,-3.4485,0.0,0.0,0.0,0.0,0.0,0.0,0.0,0.0,0.0,0.0,0.0,0.0,0.0,0.0,0.0,0.0,0.0,-5.2078,-5.2409,-5.2409,-5.2013,-5.1675,-5.1442,-5.0996,-5.0538,-5.0089,-4.9963,-4.9876,-4.9876,-4.9876,-4.9876,0.0,0.0,-4.9584,-4.9047,-4.9047,-4.8715,-4.8193,-4.8083,-4.7672,-4.7087,-4.6882,-4.6439,-4.595,-4.5855,-4.5807,-4.5807,-4.5807,-4.5807,-4.5807,-4.5807,-4.5515,-4.5017,-4.4135,-4.3591,-4.309,-4.2284,-4.2092,-4.2092,-4.2092,-4.2092,-4.2092,-4.2092,-4.2092,-4.2063,-4.1961,-4.1947,-4.1903,-4.1802,-4.1787,-4.1381,-4.0147,-3.9958,-3.9538,-3.8362,-3.8202,-3.8202,-3.8202,-3.8202,-3.8202,-3.8202,-3.8202,-3.8165,-3.8052,-3.7672,-3.7366,-3.7171,-3.6674,-3.6308,-3.6088,-3.5702,-3.5271,-3.4775,-3.503,-3.503,-3.4775,-3.4775,-3.4775,-3.364,-3.5459,-3.7367,-3.8444,-3.9288,-3.9514,-3.803,-3.629,-3.4883,0.0,0.0,0.0,0.0,0.0,0.0,0.0,0.0,0.0,0.0,0.0,0.0,0.0,0.0,0.0,0.0,0.0,0.0,0.0,0.0,0.0,0.0,0.0,-5.1214,-5.1214,-5.0829,-5.0402,-4.9985,-4.9609,-4.963,-4.9876,-4.9876,-4.9876,-4.9876,-4.9876,-4.971,-4.9363,0.0,-4.8983,-4.8351,-4.8351,-4.8177,-4.7861,-4.7466,-4.7103,-4.6755,-4.6392,-4.6076,-4.5807,-4.5807,-4.5807,-4.5807,-4.5807,-4.5807,-4.5807,-4.5807,-4.5515,-4.5017,-4.4135,-4.3591,-4.309,-4.2284,-4.2092,-4.2092,-4.2092,-4.2092,-4.2092,-4.2092,-4.2092,-4.2092,-4.2092,-4.2092,-4.2092,-4.2092,-4.2092,-4.1642,-4.0292,-4.0104,-3.9639,-3.8362,-3.8202,-3.8202,-3.8202,-3.8202,-3.8202,-3.8202,-3.8202,-3.8165,-3.8028,-3.8278,-3.8148,-3.7587,-3.7232,-3.6788,-3.6307,-3.5536,-3.503,-3.4775,-3.4932,-3.4932,-3.4775,-3.4775,-3.498,-3.2376,-3.4468,-3.6771,-3.75,-3.8907,-3.9895,-3.8924,-3.7582,-3.6555,0.0,0.0,0.0,0.0,0.0,0.0,0.0,0.0,0.0,0.0,0.0,0.0,0.0,0.0,0.0,0.0,0.0,0.0,0.0,0.0,0.0,0.0,0.0,-5.022,-5.022,-4.9756,-4.9336,-4.8941,-4.8609,-4.8779,-4.9442,-4.9442,-4.9442,-4.9442,-4.9442,-4.9157,-4.8667,-4.8667,-4.8272,-4.764,-4.764,-4.7545,-4.7356,-4.6787,-4.6566,-4.6503,-4.5997,-4.5807,-4.5807,-4.5807,-4.5807,-4.5807,-4.5807,-4.5807,-4.5807,-4.5807,-4.5515,-4.5017,-4.4135,-4.3591,-4.309,-4.2284,-4.2092,-4.2092,-4.2092,-4.2092,-4.2092,-4.2092,-4.2092,-4.2092,-4.2092,-4.2092,-4.2092,-4.2092,-4.2092,-4.17,-4.051,-4.0321,-3.9871,-3.8609,-3.8434,-3.8376,-3.8217,-3.8202,-3.8202,-3.8202,-3.8202,-3.8199,-3.8183,-3.8907,-3.8941,-3.7992,-3.7794,-3.7356,-3.6496,-3.5488,-3.4932,-3.4775,-3.4872,-3.4872,-3.4775,-3.4775,-3.5112,-3.1846,-3.3342,-3.523,-3.5976,-3.7765,-3.9531,-4.0111,-3.9106,0.0,-3.8934,0.0,0.0,0.0,0.0,0.0,0.0,0.0,0.0,0.0,0.0,0.0,0.0,0.0,0.0,0.0,0.0,0.0,0.0,0.0,0.0,0.0,0.0,0.0,-5.022,-4.9634,-4.9141,-4.8723,-4.8408,-4.8152,-4.8035,-4.8035,-4.8035,-4.8035,-4.8035,-4.8019,-4.7972,-4.7972,-4.7561,-4.6882,-4.6882,-4.6518,-4.595,-4.5902,-4.5886,-4.5886,-4.5823,-4.5807,-4.5807,-4.5807,-4.5807,-4.5807,-4.5807,-4.5807,-4.5807,-4.5807,-4.5515,-4.5017,-4.4135,-4.3591,-4.309,-4.2284,-4.2092,-4.2092,-4.2092,-4.2092,-4.2092,-4.2092,-4.2092,-4.2092,-4.2092,-4.2092,-4.2092,-4.2092,-4.2092,-4.186,-4.1134,-4.1033,-4.0568,-3.9291,-3.9131,-3.8884,-3.8275,-3.8202,-3.8202,-3.8202,-3.8202,-3.8463,-3.9064,-3.9702,-3.9628,-3.8779,-3.8703,-3.8198,-3.7057,-3.6061,-3.5271,-3.4775,-3.5078,-3.503,-3.4775,-3.4775,-3.5112,-3.2249,-3.3557,-3.5181,-3.639,-3.7665,0.0,0.0,-4.0961,-4.1066,-4.1823,-4.1972,0.0,0.0,0.0,0.0,0.0,0.0,0.0,0.0,0.0,0.0,0.0,0.0,0.0,0.0,0.0,0.0,0.0,0.0,0.0,0.0,0.0,0.0,-4.8845,-4.8307,-4.7686,-4.7013,-4.6681,-4.6328,-4.5975,-4.7262,-4.7893,-4.7893,-4.7893,-4.7656,-4.7214,-4.7214,-4.6819,-4.6187,-4.6187,-4.6044,-4.5807,-4.5807,-4.5807,-4.5807,-4.5807,-4.5807,-4.5807,-4.5807,-4.5807,-4.5807,-4.5807,-4.5807,-4.5807,-4.5807,-4.5515,-4.5017,-4.4135,-4.3591,-4.309,-4.2284,-4.2092,-4.2092,-4.2092,-4.2092,-4.2092,-4.2092,-4.2092,-4.2092,-4.2092,-4.2092,-4.2092,-4.2092,-4.2092,-4.1874,-4.1192,-4.1091,-4.0641,-3.9363,-3.9204,-3.8942,-3.8275,-3.8202,-3.8202,-3.8202,-3.8202,-3.8492,-3.916,-3.977,-3.988,-3.9381,-3.9024,-3.8334,-3.7348,-3.6013,-3.5271,-3.5078,-3.4969,-3.4884,-3.4775,-3.4775,-3.5292,-3.2613,-3.3607,-3.4849,-3.6108,0.0,0.0,-4.0928,-4.196,-4.2771,-4.3761,-4.3959,-4.381,-4.3297,0.0,0.0,0.0,0.0,0.0,0.0,0.0,0.0,0.0,0.0,0.0,0.0,0.0,0.0,0.0,0.0,0.0,0.0,0.0,0.0,0.0,-4.7167,-4.6477,-4.5733,-4.529,-4.4918,-4.4655,-4.614,-4.7004,-4.7245,-4.7245,-4.6961,-4.6487,-4.6487,-4.6234,-4.5807,-4.5807,-4.5807,-4.5807,-4.5807,-4.5807,-4.5807,-4.5807,-4.5807,-4.5807,-4.5807,-4.5807,-4.5807,-4.5807,-4.5807,-4.5807,-4.5807,-4.5515,-4.5017,-4.4135,-4.3591,-4.309,-4.2284,-4.2092,-4.2092,-4.2092,-4.2092,-4.2092,-4.2092,-4.2092,-4.2092,-4.2092,-4.2092,-4.2092,-4.2092,-4.2092,-4.1932,-4.1482,-4.141,-4.1018,-3.9944,-3.9799,-3.9465,-3.8609,-3.8333,-3.8202,-3.8202,-3.8202,-3.8565,-3.9421,-3.9871,-3.998,-3.9704,-3.9191,-3.8482,-3.75,-3.6156,-3.5368,-3.5223,-3.503,-3.4884,-3.4775,-3.4775,-3.5388,-3.2917,-3.3226,-3.3988,0.0,0.0,0.0,-4.0928,-4.2005,-4.2949,-4.4423,-4.4721,-4.4735,-4.4688,0.0,0.0,0.0,0.0,0.0,0.0,0.0,0.0,0.0,0.0,0.0,0.0,0.0,0.0,0.0,0.0,0.0,0.0,0.0,0.0,0.0,-4.648,-4.5681,-4.5095,-4.4472,-4.422,-4.4251,-4.4496,-4.5002,-4.5771,-4.5807,-4.5807,-4.5807,-4.5807,-4.5807,-4.5807,-4.5807,-4.5807,-4.5807,-4.5807,-4.5807,-4.5807,-4.5807,-4.5807,-4.5807,-4.5807,-4.5807,-4.5807,-4.5807,-4.5807,-4.5807,-4.5807,-4.5515,-4.5017,-4.4135,-4.3591,-4.309,-4.2284,-4.2092,-4.2092,-4.2092,-4.2092,-4.2092,-4.2092,-4.2092,-4.2092,-4.2092,-4.2092,-4.2092,-4.2092,-4.2092,-4.2092,-4.2092,-4.2092,-4.186,-4.1192,-4.1091,-4.0597,-3.9334,-3.8609,-3.8202,-3.8202,-3.8202,-3.8739,-4.0017,-4.0104,-3.998,-3.9718,-3.9379,-3.8675,-3.7546,-3.6512,-3.5716,-3.5223,-3.5223,-3.5078,-3.4775,-3.4787,-3.54,-3.2768,-3.363,0.0,-3.6141,0.0,0.0,0.0,-4.3148,0.0,0.0,-4.6609,-4.5914,-4.487,0.0,0.0,0.0,0.0,0.0,0.0,0.0,0.0,0.0,0.0,0.0,0.0,0.0,0.0,0.0,0.0,0.0,0.0,0.0,0.0,0.0,-4.5104,-4.42,-4.2849,-4.291,-4.2634,-4.2068,-4.2726,-4.3861,-4.5368,-4.5515,-4.5589,-4.5589,-4.5735,-4.5807,-4.5807,-4.5807,-4.5807,-4.5807,-4.5807,-4.5807,-4.5807,-4.5807,-4.5807,-4.5807,-4.5807,-4.5807,-4.5807,-4.5807,-4.5807,-4.5807,-4.5807,-4.5515,-4.5017,-4.4135,-4.3591,-4.309,-4.2284,-4.2092,-4.2092,-4.2092,-4.2092,-4.2092,-4.2092,-4.2092,-4.2092,-4.2092,-4.2092,-4.2092,-4.2092,-4.2092,-4.2092,-4.2092,-4.2092,-4.186,-4.1192,-4.0321,-3.9625,-3.9247,-3.8609,-3.8202,-3.8202,-3.8202,-3.8739,-4.0017,-4.0104,-4.0182,-4.0407,-3.9612,-3.872,-3.7717,-3.6593,-3.592,-3.5764,-3.5368,-3.5175,-3.509,-3.5257,-3.5749,-3.3326,-3.4435,0.0,-3.7533,-3.9056,-4.0779,-4.3264,0.0,0.0,0.0,0.0,0.0,0.0,0.0,0.0,0.0,0.0,0.0,0.0,0.0,0.0,0.0,0.0,0.0,0.0,0.0,0.0,0.0,0.0,0.0,0.0,0.0,0.0,0.0,-4.3721,-4.2858,-4.158,-4.1628,-4.1427,-4.0988,-4.1504,-4.2582,-4.4127,-4.4728,-4.5061,-4.5247,-4.5609,-4.5807,-4.5807,-4.5807,-4.5807,-4.5807,-4.5807,-4.5807,-4.5807,-4.5807,-4.5807,-4.5807,-4.5807,-4.5807,-4.5807,-4.5807,-4.5807,-4.5807,-4.5807,-4.5515,-4.5017,-4.4135,-4.3591,-4.309,-4.2284,-4.2092,-4.2092,-4.2092,-4.2092,-4.2092,-4.2092,-4.2092,-4.2092,-4.2092,-4.2092,-4.2092,-4.2092,-4.2092,-4.2092,-4.2092,-4.2092,-4.1947,-4.1541,-4.0597,-3.9958,-3.9958,-3.9349,-3.8957,-3.8957,-3.8957,-3.9392,-4.0423,-4.0495,-4.0555,-4.0702,-3.9722,-3.8765,-3.7808,-3.6734,-3.6098,-3.6015,-3.5668,-3.5464,-3.538,-3.5721,-3.6156,-3.4137,0.0,0.0,-3.8669,-4.0398,0.0,-4.5069,0.0,-4.699,0.0,0.0,0.0,0.0,0.0,0.0,0.0,0.0,0.0,0.0,0.0,0.0,0.0,0.0,0.0,0.0,0.0,0.0,0.0,0.0,0.0,0.0,0.0,0.0,-4.3125,-4.2278,-4.152,-4.0872,-4.0538,-4.0436,0.0,-4.0615,-4.1172,-4.2168,-4.3463,-4.435,-4.4849,-4.552,-4.5807,-4.5807,-4.5807,-4.5807,-4.5807,-4.5807,-4.5807,-4.5807,-4.5807,-4.5807,-4.5807,-4.5807,-4.5807,-4.5807,-4.5807,-4.5807,-4.5807,-4.5807,-4.5515,-4.5017,-4.4135,-4.3591,-4.309,-4.2284,-4.2092,-4.2092,-4.2092,-4.2092,-4.2092,-4.2092,-4.2092,-4.2092,-4.2092,-4.2092,-4.2092,-4.2092,-4.2092,-4.2092,-4.2092,-4.2092,-4.2092,-4.2092,-4.1512,-4.1091,-4.1091,-4.0495,-4.0104,-4.0104,-4.0104,-4.0379,-4.1062,-4.1091,-4.0972,-4.0716,-3.9722,-3.8765,-3.7808,-3.6862,-3.6275,-3.6063,-3.6015,-3.5885,-3.5694,-3.6247,-3.6639,-3.2878,-3.4551,0.0,0.0,0.0,0.0,0.0,0.0,0.0,0.0,0.0,0.0,0.0,0.0,0.0,0.0,0.0,0.0,0.0,0.0,0.0,0.0,0.0,0.0,0.0,0.0,0.0,0.0,0.0,0.0,0.0,0.0,0.0,-4.0909,-4.0592,-4.001,-3.909,-3.9337,-3.9222,0.0,-3.9299,-3.9658,-3.9949,-4.2227,-4.3936,-4.512,-4.5609,-4.5807,-4.5807,-4.5807,-4.5807,-4.5807,-4.5807,-4.5807,-4.5807,-4.5807,-4.5807,-4.5807,-4.5807,-4.5807,-4.5807,-4.5807,-4.5807,-4.5807,-4.5807,-4.5515,-4.5017,-4.4135,-4.3591,-4.309,-4.2284,-4.2092,-4.2092,-4.2092,-4.2092,-4.2092,-4.2092,-4.2092,-4.2092,-4.2092,-4.2092,-4.2092,-4.2092,-4.2092,-4.2092,-4.2092,-4.2092,-4.2092,-4.2092,-4.1512,-4.1091,-4.1091,-4.0495,-4.0104,-4.0104,-4.0104,-4.0379,-4.1062,-4.1091,-4.0972,-4.0716,-3.9722,-3.8765,-3.7808,-3.6862,-3.6358,-3.6323,-3.6098,-3.6179,-3.6527,-3.6899,-3.7303,0.0,0.0,0.0,0.0,0.0,0.0,0.0,0.0,0.0,0.0,0.0,0.0,0.0,0.0,0.0,0.0,0.0,0.0,0.0,0.0,0.0,0.0,0.0,0.0,0.0,0.0,0.0,0.0,0.0,0.0,0.0,-4.0497,-4.0095,-3.9829,-3.9475,-3.8972,-3.8366,-3.8588,-3.8551,-3.8202,-3.8551,-3.8999,-3.9578,-4.1919,-4.3684,-4.4949,-4.5536,-4.5807,-4.5807,-4.5807,-4.5807,-4.5807,-4.5807,-4.5807,-4.5776,-4.5412,-4.5286,-4.5238,-4.4922,-4.4776,-4.4776,-4.4776,-4.4776,-4.4776,-4.4776,-4.4746,-4.4505,-4.3648,-4.335,-4.309,-4.2284,-4.2092,-4.2092,-4.2092,-4.2092,-4.2092,-4.2092,-4.2092,-4.2092,-4.2092,-4.2092,-4.2092,-4.2092,-4.2092,-4.2092,-4.2092,-4.2092,-4.2092,-4.2092,-4.1787,-4.157,-4.157,-4.1265,-4.1062,-4.1062,-4.1062,-4.1152,-4.1362,-4.1309,-4.0997,-4.0372,-3.9414,-3.8554,-3.7808,-3.6862,-3.6405,-3.6405,-3.6275,-3.6468,-3.6992,-3.7406,-3.7816,0.0,0.0,0.0,0.0,0.0,0.0,0.0,0.0,0.0,0.0,0.0,0.0,0.0,0.0,0.0,0.0,0.0,0.0,0.0,0.0,0.0,0.0,0.0,0.0,0.0,0.0,0.0,0.0,0.0,0.0,-4.0351,-3.9824,-3.9451,-3.9292,-3.8723,-3.8366,-3.8202,-3.8202,-3.8202,-3.8202,-3.8202,-3.8777,-3.9866,-4.1769,-4.3296,-4.4478,-4.5274,-4.5697,-4.5807,-4.5807,-4.5807,-4.5807,-4.5807,-4.5807,-4.5728,-4.4986,-4.4717,-4.4606,-4.3908,-4.3687,-4.3687,-4.3687,-4.3766,-4.3861,-4.3826,-4.3999,-4.4006,-4.3259,-4.3091,-4.3025,-4.2284,-4.2092,-4.2092,-4.2092,-4.2092,-4.2092,-4.2092,-4.2092,-4.2092,-4.2092,-4.2092,-4.2092,-4.2092,-4.2092,-4.2092,-4.2092,-4.2092,-4.2092,-4.2092,-4.2092,-4.2092,-4.2092,-4.2092,-4.2092,-4.2092,-4.2092,-4.1953,-4.166,-4.1409,-4.0859,-3.9908,-3.8895,-3.816,-3.7671,-3.6815,-3.6405,-3.6405,-3.6405,-3.6732,-3.7337,-3.7789,-3.8204,0.0,0.0,0.0,0.0,0.0,0.0,0.0,0.0,0.0,0.0,0.0,0.0,0.0,0.0,0.0,0.0,0.0,0.0,0.0,0.0,0.0,0.0,0.0,0.0,0.0,0.0,0.0,0.0,0.0,0.0,-3.9589,-3.9141,-3.8907,-3.8892,-3.8464,-3.824,-3.8202,-3.8202,-3.8202,-3.8202,-3.8202,-3.8777,-3.9837,-4.082,-4.2166,-4.3784,-4.4537,-4.5223,-4.5807,-4.5807,-4.5807,-4.5807,-4.5807,-4.5807,-4.5728,-4.4986,-4.4717,-4.4606,-4.3908,-4.3687,-4.3687,-4.3687,-4.4082,-4.4539,-4.4362,-4.4413,-4.4395,-4.3689,-4.3175,-4.2703,-4.2201,-4.2092,-4.2092,-4.2092,-4.2092,-4.2092,-4.2092,-4.2092,-4.2092,-4.2092,-4.2092,-4.2092,-4.2092,-4.2092,-4.2092,-4.2092,-4.2092,-4.2092,-4.2092,-4.2092,-4.2092,-4.2092,-4.2092,-4.2092,-4.2092,-4.2092,-4.1912,-4.148,-4.0986,-4.0287,-3.9438,-3.8413,-3.7684,-3.7201,-3.6687,-3.6405,-3.6405,-3.6405,-3.6885,-3.7902,-3.7977,-3.8567,-3.1205,-3.4849,-3.8112,0.0,0.0,0.0,0.0,0.0,0.0,0.0,0.0,0.0,0.0,0.0,0.0,0.0,0.0,0.0,0.0,0.0,0.0,0.0,0.0,0.0,0.0,0.0,0.0,0.0,0.0,-4.0056,-3.9424,-3.9017,-3.8782,-3.8782,-3.8427,-3.8202,-3.8202,-3.8202,-3.8202,-3.8202,-3.8202,-3.8512,-3.9104,-3.9901,-4.1264,-4.3044,-4.378,-4.4303,-4.4603,-4.4603,-4.4859,-4.5159,-4.478,-4.4859,-4.5065,-4.3974,-4.3579,-4.3485,-4.2774,-4.2521,-4.2521,-4.2521,-4.2942,-4.3355,-4.2993,-4.3308,-4.3632,-4.2863,-4.2674,-4.2622,-4.2201,-4.2092,-4.2092,-4.2092,-4.2092,-4.2092,-4.2092,-4.2092,-4.2092,-4.2092,-4.2092,-4.2092,-4.2092,-4.2092,-4.2092,-4.2092,-4.2092,-4.2092,-4.2092,-4.2092,-4.2092,-4.2092,-4.2092,-4.2051,-4.1897,-4.1773,-4.1423,-4.0802,-4.0215,-3.953,-3.8711,-3.788,-3.7235,-3.6862,-3.6546,-3.6405,-3.6405,-3.6405,-3.6923,-3.8002,-3.8002,-3.8617,-3.0874,-3.3872,-3.6555,-3.8941,0.0,0.0,0.0,0.0,0.0,0.0,0.0,0.0,0.0,0.0,0.0,0.0,0.0,0.0,0.0,0.0,0.0,0.0,0.0,0.0,0.0,0.0,0.0,0.0,0.0,-3.9915,-3.9424,-3.9017,-3.8723,-3.8597,-3.8339,-3.813,-3.797,-3.813,-3.8202,-3.8202,-3.8202,-3.8315,-3.8516,-3.9213,-4.0353,-4.1858,-4.2907,-4.3494,-4.3687,-4.3687,-4.3971,-4.4417,-4.3892,-4.4022,-4.4306,-4.3121,-4.2695,-4.2584,-4.1841,-4.1588,-4.1588,-4.1588,-4.207,-4.2539,-4.2038,-4.2548,-4.313,-4.2332,-4.2305,-4.2474,-4.2175,-4.2092,-4.2092,-4.2092,-4.2092,-4.2092,-4.2092,-4.2092,-4.2092,-4.2092,-4.2092,-4.2092,-4.2092,-4.2092,-4.2092,-4.2092,-4.2092,-4.2092,-4.2092,-4.2092,-4.2092,-4.2092,-4.2092,-4.1953,-4.166,-4.1367,-4.0887,-4.0085,-3.9353,-3.8607,-3.7939,-3.7294,-3.6828,-3.6628,-3.6499,-3.6405,-3.6405,-3.6405,-3.6923,-3.8002,-3.8002,-3.8617,-2.9152,-3.1205,0.0,0.0,0.0,0.0,0.0,0.0,0.0,0.0,0.0,0.0,0.0,0.0,0.0,0.0,0.0,0.0,0.0,0.0,0.0,0.0,0.0,0.0,0.0,0.0,0.0,0.0,0.0,-3.9818,-3.9409,-3.9017,-3.8517,-3.7978,-3.812,-3.7941,-3.736,-3.7912,-3.8202,-3.8202,-3.8202,-3.8315,-3.8516,-3.8922,-3.9388,-3.9924,-4.1709,-4.295,-4.3687,-4.3687,-4.3703,-4.3734,-4.3703,-4.3703,-4.3655,-4.2963,-4.2695,-4.2584,-4.1841,-4.1588,-4.1588,-4.1588,-4.237,-4.3243,-4.2638,-4.2985,-4.3452,-4.2831,-4.2404,-4.2133,-4.2092,-4.2092,-4.2092,-4.2092,-4.2092,-4.2092,-4.2092,-4.2092,-4.2092,-4.2092,-4.2092,-4.2092,-4.2092,-4.2092,-4.2092,-4.2092,-4.2092,-4.2092,-4.2092,-4.2092,-4.2092,-4.2092,-4.2092,-4.1912,-4.1438,-4.0944,-4.0273,-3.9424,-3.8413,-3.7638,-3.7155,-3.6687,-3.6452,-3.6405,-3.6405,-3.6405,-3.6405,-3.6405,-3.6923,-3.8002,-3.8002,-3.8617,-2.7081,-2.8917,0.0,0.0,0.0,0.0,0.0,0.0,0.0,0.0,0.0,0.0,0.0,0.0,0.0,0.0,0.0,0.0,0.0,0.0,0.0,0.0,0.0,0.0,0.0,0.0,0.0,0.0,0.0,0.0,-3.8609,-3.7952,-3.7399,-3.7072,-3.7434,-3.7709,-3.7883,-3.8086,-3.8202,-3.8202,-3.8202,-3.824,-3.8315,-3.8723,-3.9126,-3.9574,-4.0685,-4.1501,-4.2058,-4.2246,-4.2631,-4.3011,-4.2537,-4.2647,-4.2963,-4.2252,-4.1983,-4.1952,-4.1683,-4.1588,-4.1588,-4.1588,-4.2035,-4.2424,-4.1699,-4.2092,-4.2608,-4.1869,-4.1881,-4.2092,-4.2092,-4.2092,-4.2092,-4.2092,-4.2092,-4.2092,-4.2092,-4.2092,-4.2092,-4.2092,-4.2092,-4.2092,-4.2092,-4.2092,-4.2092,-4.2092,-4.2092,-4.2092,-4.2092,-4.2092,-4.2092,-4.2092,-4.2092,-4.1926,-4.1438,-4.0788,-4.0085,-3.9349,-3.8258,-3.7433,-3.7108,-3.6982,-3.6885,-3.6885,-3.7236,-3.7073,-3.6405,-3.6405,-3.6795,-3.7475,-3.7475,-3.809,-2.5259,0.0,0.0,0.0,0.0,0.0,0.0,0.0,0.0,0.0,0.0,0.0,0.0,0.0,0.0,0.0,0.0,0.0,0.0,0.0,0.0,0.0,0.0,0.0,0.0,0.0,0.0,0.0,0.0,0.0,-3.7853,-3.7201,-3.672,-3.6493,-3.6605,-3.7056,-3.7897,-3.7897,-3.7999,-3.8202,-3.8202,-3.8202,-3.8202,-3.8501,-3.8819,-3.9256,-3.999,-4.0581,-4.1138,-4.1456,-4.1873,-4.2268,-4.1778,-4.1889,-4.2252,-4.1762,-4.1588,-4.1588,-4.1588,-4.1588,-4.1588,-4.1522,-4.1677,-4.1755,-4.103,-4.143,-4.1952,-4.1292,-4.157,-4.2092,-4.2092,-4.2092,-4.2092,-4.2092,-4.2092,-4.2092,-4.2092,-4.2092,-4.2092,-4.2092,-4.2092,-4.2092,-4.2092,-4.2092,-4.2092,-4.2092,-4.2092,-4.2092,-4.2092,-4.2092,-4.2092,-4.2092,-4.2092,-4.1926,-4.1438,-4.0788,-4.0085,-3.9349,-3.8213,-3.7524,-3.7377,-3.7273,-3.7274,-3.7462,-3.7814,-3.7651,-3.6958,-3.6958,-3.7199,-3.7751,-3.7751,-3.8253,0.0,0.0,0.0,0.0,0.0,0.0,0.0,0.0,0.0,0.0,0.0,0.0,0.0,0.0,0.0,0.0,0.0,0.0,0.0,0.0,0.0,0.0,0.0,0.0,0.0,0.0,0.0,0.0,0.0,-3.7149,-3.7164,-3.6766,-3.6449,-3.6286,-3.5726,-3.6017,-3.7259,-3.7302,-3.7593,-3.8173,-3.8188,-3.8202,-3.8202,-3.8202,-3.8427,-3.8855,-3.9585,-4.0374,-4.1138,-4.1456,-4.1588,-4.1588,-4.1588,-4.1588,-4.1588,-4.1588,-4.1588,-4.1588,-4.1588,-4.1588,-4.1555,-4.1357,-4.1389,-4.1357,-4.0731,-4.1068,-4.1577,-4.1168,-4.157,-4.2092,-4.2092,-4.2092,-4.2092,-4.2092,-4.2092,-4.2092,-4.2092,-4.2092,-4.2092,-4.2092,-4.2107,-4.2121,-4.2121,-4.2136,-4.215,-4.215,-4.2136,-4.2121,-4.215,-4.2136,-4.2121,-4.215,-4.2136,-4.1941,-4.1466,-4.0916,-4.0244,-3.9407,-3.8395,-3.7878,-3.7954,-3.7513,-3.7487,-3.8027,-3.8052,-3.8052,-3.8052,-3.8027,-3.8291,-3.8894,-3.8906,-3.9157,-2.3156,0.0,0.0,0.0,0.0,0.0,0.0,0.0,0.0,0.0,0.0,0.0,0.0,0.0,0.0,0.0,0.0,0.0,0.0,0.0,0.0,0.0,0.0,0.0,0.0,0.0,0.0,0.0,-3.6279,-3.6038,-3.6246,-3.5458,-3.5223,-3.5639,-3.5494,-3.5799,-3.6577,-3.707,-3.7389,-3.7564,-3.7984,-3.8202,-3.8202,-3.8366,-3.8723,-3.9256,-3.9849,-4.0493,-4.1138,-4.1456,-4.1588,-4.1588,-4.1588,-4.1588,-4.1588,-4.1588,-4.1588,-4.1588,-4.1588,-4.1489,-4.1323,-4.1021,-4.077,-4.042,-3.9721,-4.0203,-4.0891,-4.0498,-4.1207,-4.2092,-4.2092,-4.2092,-4.2092,-4.2092,-4.2092,-4.2092,-4.2092,-4.2092,-4.2092,-4.2092,-4.244,-4.2745,-4.2745,-4.3137,-4.3471,-4.3471,-4.305,-4.2919,-4.3398,-4.305,-4.2934,-4.3413,-4.3036,-4.2619,-4.238,-4.144,-4.0756,-4.0498,-3.9344,-3.8744,-3.8833,-3.8574,-3.8529,-3.863,-3.9019,-3.9233,-3.922,-3.8404,-3.809,-3.8253,-3.868,-3.9007,-2.3354,-2.3901,0.0,0.0,0.0,0.0,0.0,0.0,0.0,0.0,0.0,0.0,0.0,0.0,0.0,0.0,0.0,0.0,0.0,0.0,0.0,0.0,0.0,0.0,0.0,0.0,0.0,-3.6076,-3.5648,-3.5391,-3.5394,-3.4854,-3.4656,-3.4985,-3.4965,-3.5305,-3.5909,-3.6301,-3.6635,-3.6896,-3.7244,-3.7586,-3.7958,-3.8216,-3.875,-3.9559,-4.0196,-4.0715,-4.1138,-4.1456,-4.1588,-4.1588,-4.1588,-4.1588,-4.1588,-4.1588,-4.1588,-4.1588,-4.1588,-4.1456,-4.1223,-4.0817,-4.0355,-3.9879,-3.9199,-3.9673,-4.0393,-4.0182,-4.1062,-4.2092,-4.2092,-4.2092,-4.2092,-4.2092,-4.2092,-4.2092,-4.2092,-4.2092,-4.2092,-4.2092,-4.2586,-4.2992,-4.2992,-4.3544,-4.3993,-4.3993,-4.3427,-4.3239,-4.3906,-4.3398,-4.3253,-4.3921,-4.3398,-4.295,-4.2837,-4.1992,-4.1383,-4.1221,-4.0087,-3.9481,-3.9693,-3.9193,-3.9032,-3.9207,-3.9534,-3.9697,-3.9697,-3.9032,-3.8705,-3.8718,-3.9057,-3.922,-2.4365,-2.4795,-2.506,0.0,0.0,0.0,-2.4961,-2.6006,0.0,0.0,0.0,0.0,0.0,0.0,0.0,0.0,0.0,0.0,0.0,0.0,0.0,0.0,0.0,0.0,0.0,-3.6041,-3.5785,-3.5537,-3.5294,-3.5049,-3.4731,-3.4698,-3.4597,-3.4414,-3.4414,-3.4724,-3.5325,-3.5398,-3.5703,-3.627,-3.6307,-3.6814,-3.7709,-3.8023,-3.8771,-3.9859,-4.0558,-4.0969,-4.1171,-4.1489,-4.1588,-4.1588,-4.1588,-4.1588,-4.1588,-4.1588,-4.1588,-4.1588,-4.1588,-4.1456,-4.1189,-4.0615,-4.0076,-3.9538,-3.8943,-3.9355,-4.0133,-4.0278,-4.1178,-4.2092,-4.2092,-4.2092,-4.2092,-4.2092,-4.2092,-4.2092,-4.2092,-4.2092,-4.2092,-4.2092,-4.2644,-4.3108,-4.3108,-4.3718,-4.4197,-4.4197,-4.3573,-4.334,-4.4008,-4.3442,-4.3253,-4.3878,-4.3341,-4.2907,-4.2907,-4.2315,-4.1794,-4.1485,-4.0494,-4.0047,-4.037,-3.9409,-3.9132,-3.9685,-3.9697,-3.9697,-3.9697,-3.9697,-3.9697,-3.9697,-3.9697,-3.9697,-2.6652,-2.6319,-2.5937,-2.5805,0.0,0.0,0.0,-2.4431,0.0,0.0,0.0,0.0,0.0,0.0,0.0,0.0,0.0,0.0,0.0,0.0,0.0,0.0,0.0,0.0,0.0,-3.5308,-3.5286,-3.5492,-3.5148,-3.4935,-3.4868,-3.4616,-3.4448,-3.4414,-3.4563,-3.4689,-3.4854,-3.5473,-3.5864,-3.5982,-3.6461,-3.7225,-3.8251,-3.8477,-3.9328,-4.0593,-4.0901,-4.1223,-4.1522,-4.1555,-4.1588,-4.1588,-4.1588,-4.1588,-4.1588,-4.1588,-4.1588,-4.1588,-4.1588,-4.1406,-4.1018,-4.027,-3.9778,-3.9307,-3.856,-3.9164,-4.0321,-4.141,-4.1903,-4.2092,-4.2092,-4.2092,-4.2092,-4.2092,-4.2092,-4.2092,-4.2092,-4.2092,-4.2092,-4.2092,-4.3021,-4.379,-4.379,-4.4748,-4.5518,-4.5518,-4.4545,-4.4023,-4.4632,-4.3703,-4.3182,-4.3647,-4.2926,-4.2382,-4.2224,-4.144,-4.0925,-4.0732,-3.9965,-3.9666,-4.0039,-3.9309,-3.9132,-3.9685,-3.9697,-3.9697,-3.9697,-3.9697,-3.9697,-3.9697,-3.9697,-3.9697,-2.7845,-2.7315,-2.6568,-2.5839,0.0,0.0,0.0,0.0,0.0,0.0,0.0,0.0,0.0,0.0,0.0,0.0,0.0,0.0,0.0,0.0,0.0,0.0,0.0,0.0,0.0,-3.4622,-3.4605,-3.4825,-3.4676,-3.4614,-3.4802,-3.465,-3.4563,-3.4563,-3.4817,-3.4986,-3.5052,-3.5627,-3.5908,-3.589,-3.6219,-3.7027,-3.8311,-3.8598,-3.9554,-4.0969,-4.1223,-4.1423,-4.1588,-4.1588,-4.1588,-4.1588,-4.1588,-4.1588,-4.1588,-4.1588,-4.1588,-4.1588,-4.1588,-4.1372,-4.0966,-4.0165,-3.9672,-3.9256,-3.8464,-3.9088,-4.0307,-4.1323,-4.1845,-4.2092,-4.2092,-4.2092,-4.2092,-4.2092,-4.2092,-4.2092,-4.2092,-4.2092,-4.2092,-4.2092,-4.2861,-4.3485,-4.3485,-4.4298,-4.4937,-4.4937,-4.411,-4.3718,-4.4356,-4.3587,-4.3111,-4.3444,-4.2566,-4.1835,-4.1499,-4.0519,-3.9939,-3.9969,-3.9368,-3.911,-3.938,-3.9056,-3.9057,-3.9283,-3.9546,-3.9559,-3.9283,-3.9559,-3.9697,-3.9697,-3.9697,-3.9697,0.0,0.0,0.0,0.0,0.0,-2.3686,0.0,0.0,0.0,-2.3669,0.0,0.0,0.0,0.0,0.0,0.0,0.0,0.0,0.0,0.0,0.0,0.0,0.0,0.0,0.0,-3.3859,-3.3789,-3.3882,-3.3801,-3.3938,-3.4321,-3.4416,-3.4474,-3.4507,-3.5026,-3.535,-3.5497,-3.5864,-3.6054,-3.6054,-3.6023,-3.6758,-3.8179,-3.8627,-3.9632,-4.1017,-4.1442,-4.1588,-4.1588,-4.1588,-4.1588,-4.1588,-4.1588,-4.1588,-4.1588,-4.1588,-4.1588,-4.1588,-4.1588,-4.1372,-4.0966,-4.0165,-3.9565,-3.9068,-3.8535,-3.9117,-4.006,-4.0713,-4.1294,-4.1744,-4.1874,-4.1903,-4.1932,-4.2063,-4.2092,-4.2092,-4.2092,-4.2092,-4.2092,-4.2092,-4.2484,-4.2861,-4.2977,-4.3544,-4.3993,-4.3993,-4.3427,-4.3195,-4.3732,-4.3224,-4.2837,-4.294,-4.1976,-4.1157,-4.0672,-3.9629,-3.9024,-3.9096,-3.8594,-3.8398,-3.8546,-3.8804,-3.8919,-3.8919,-3.9421,-3.9421,-3.8919,-3.9421,-3.9697,-3.9697,-3.9697,-3.9634,0.0,0.0,0.0,0.0,-2.5988,0.0,0.0,0.0,-2.2924,-2.3007,0.0,0.0,0.0,0.0,0.0,0.0,0.0,0.0,0.0,0.0,0.0,0.0,0.0,0.0,0.0,0.0,-3.281,-3.2691,-3.2404,-3.2485,-3.3003,-3.3412,-3.3704,-3.3805,-3.5001,-3.5705,-3.5849,-3.6352,-3.6616,-3.6616,-3.6476,-3.7002,-3.8044,-3.8699,-3.9594,-4.0686,-4.1336,-4.1588,-4.1588,-4.1588,-4.1588,-4.1588,-4.1588,-4.1588,-4.1588,-4.1588,-4.1588,-4.1588,-4.1588,-4.1372,-4.0966,-4.0165,-3.919,-3.8416,-3.8937,-3.9189,-3.9421,-4.0046,-4.0263,-4.0466,-4.1062,-4.1207,-4.1366,-4.1961,-4.2092,-4.2092,-4.2092,-4.2092,-4.2092,-4.2092,-4.215,-4.2368,-4.2905,-4.3544,-4.3993,-4.3993,-4.3427,-4.3021,-4.3094,-4.2571,-4.2056,-4.1652,-4.09,-4.0269,-3.9788,-3.8859,-3.8226,-3.8077,-3.757,-3.742,-3.7696,-3.8515,-3.8919,-3.8919,-3.9421,-3.9421,-3.8919,-3.9421,-3.9697,-3.9697,-3.9697,-3.9433,0.0,0.0,0.0,0.0,0.0,0.0,-2.3553,0.0,-2.3537,0.0,0.0,0.0,0.0,0.0,0.0,0.0,0.0,0.0,0.0,0.0,0.0,0.0,0.0,0.0,0.0,0.0,0.0,0.0,0.0,-3.1189,-3.2013,-3.2603,-3.3241,-3.3965,-3.4997,-3.5814,-3.6461,-3.7103,-3.7373,-3.727,-3.7135,-3.7495,-3.8292,-3.8575,-3.9188,-3.9977,-4.0261,-4.0625,-4.102,-4.102,-4.1241,-4.1588,-4.1588,-4.1588,-4.1588,-4.1588,-4.1588,-4.1588,-4.1456,-4.1122,-4.0578,-3.96,-3.8767,-3.826,-3.8536,-3.8884,-3.9247,-3.9509,-4.0104,-4.0742,-4.1018,-4.1381,-4.1744,-4.2034,-4.2092,-4.2092,-4.2092,-4.2092,-4.2092,-4.2092,-4.2092,-4.2179,-4.2426,-4.2702,-4.289,-4.289,-4.2658,-4.2469,-4.2469,-4.2252,-4.1926,-4.1438,-4.0816,-4.0201,-3.9499,-3.8549,-3.7835,-3.7479,-3.6968,-3.6893,-3.7354,-3.7748,-3.7889,-3.7889,-3.8429,-3.8442,-3.7889,-3.8442,-3.8718,-3.873,-3.9383,-3.9396,-3.1648,0.0,0.0,0.0,0.0,0.0,0.0,0.0,0.0,0.0,0.0,0.0,0.0,0.0,0.0,0.0,0.0,0.0,0.0,0.0,0.0,0.0,0.0,0.0,0.0,0.0,0.0,0.0,0.0,0.0,-3.1052,-3.1911,-3.2893,-3.4126,-3.508,-3.6069,-3.7117,-3.774,-3.7976,-3.7847,-3.7671,-3.7852,-3.8344,-3.855,-3.8898,-3.9358,-3.9548,-4.0056,-4.0721,-4.0673,-4.1053,-4.167,-4.1621,-4.1588,-4.1588,-4.1588,-4.1555,-4.1489,-4.1256,-4.0699,-3.9955,-3.9075,-3.8538,-3.8202,-3.8202,-3.8551,-3.8928,-3.8928,-3.9726,-4.0612,-4.0786,-4.1323,-4.1874,-4.2049,-4.2092,-4.2092,-4.2092,-4.2092,-4.2092,-4.2092,-4.2092,-4.2092,-4.2092,-4.2092,-4.2092,-4.2092,-4.2092,-4.2092,-4.1995,-4.1953,-4.1745,-4.1269,-4.0688,-4.0027,-3.9247,-3.8291,-3.7466,-3.6922,-3.6593,-3.6656,-3.7161,-3.7186,-3.7186,-3.7186,-3.7726,-3.7739,-3.7186,-3.7739,-3.8002,-3.8027,-3.8856,-3.8931,0.0,0.0,0.0,-2.7613,0.0,0.0,0.0,0.0,-2.506,0.0,0.0,0.0,0.0,0.0,0.0,0.0,0.0,0.0,0.0,0.0,0.0,0.0,0.0,0.0,0.0,0.0,0.0,0.0,0.0,0.0,-3.0071,-3.1323,-3.2615,-3.3939,-3.5341,-3.6603,-3.7655,-3.8135,-3.8323,-3.818,-3.7992,-3.7921,-3.7924,-3.8656,-3.9006,-3.907,-3.9711,-4.0384,-4.107,-4.0881,-4.123,-4.1866,-4.167,-4.1588,-4.1588,-4.1588,-4.1489,-4.1256,-4.0935,-4.0091,-3.9104,-3.887,-3.8538,-3.8202,-3.8202,-3.8217,-3.8231,-3.8231,-3.8739,-3.9392,-3.9973,-4.0626,-4.1294,-4.1947,-4.2092,-4.2092,-4.2092,-4.2092,-4.2092,-4.2092,-4.2092,-4.2092,-4.2092,-4.2092,-4.2092,-4.2092,-4.2092,-4.1995,-4.1744,-4.1549,-4.1227,-4.0787,-4.0055,-3.9428,-3.8953,-3.8031,-3.7214,-3.6452,-3.6405,-3.6656,-3.7161,-3.7186,-3.7186,-3.7186,-3.7726,-3.7739,-3.7186,-3.7739,-3.8002,-3.8002,-3.804,-3.7764,0.0,0.0,-2.9893,-2.8936,0.0,0.0,0.0,0.0,0.0,0.0,0.0,0.0,0.0,0.0,0.0,0.0,0.0,0.0,0.0,0.0,0.0,0.0,0.0,0.0,0.0,0.0,0.0,0.0,0.0,0.0,0.0,-3.0644,-3.2031,-3.369,-3.524,-3.6474,-3.7428,-3.8244,-3.86,-3.8444,-3.8307,-3.8221,-3.8237,-3.8479,-3.8605,-3.8637,-3.8834,-3.9291,-3.9831,-3.9617,-3.9909,-4.0483,-4.0293,-4.0498,-4.0988,-4.143,-4.1489,-4.1189,-4.037,-3.9559,-3.887,-3.8501,-3.8315,-3.8202,-3.8202,-3.8202,-3.8202,-3.8202,-3.8681,-3.9334,-3.9944,-4.0597,-4.1265,-4.1932,-4.2092,-4.2092,-4.2092,-4.2092,-4.2092,-4.2092,-4.2092,-4.2092,-4.2092,-4.2092,-4.2092,-4.2092,-4.2092,-4.1968,-4.1549,-4.1128,-4.0674,-4.0244,-3.9664,-3.9135,-3.8702,-3.7776,-3.6981,-3.6452,-3.6405,-3.6493,-3.6681,-3.6681,-3.6681,-3.6681,-3.687,-3.687,-3.6681,-3.6822,-3.6923,-3.6923,-3.6923,-3.701,-3.3856,-3.2564,0.0,-3.0026,-2.892,0.0,-2.6816,0.0,0.0,0.0,0.0,0.0,0.0,0.0,0.0,0.0,0.0,0.0,0.0,0.0,0.0,0.0,0.0,0.0,0.0,0.0,-2.7441,-2.6633,0.0,0.0,0.0,0.0,-3.1667,-3.358,-3.5273,-3.6572,-3.7427,-3.839,-3.8805,-3.8667,-3.8572,-3.8544,-3.8544,-3.8544,-3.8544,-3.8544,-3.8544,-3.8853,-3.9344,-3.9106,-3.9344,-3.9845,-3.9596,-3.9945,-4.0656,-4.1083,-4.107,-4.0684,-3.9864,-3.9162,-3.8523,-3.8277,-3.8202,-3.8202,-3.8202,-3.8202,-3.8202,-3.8202,-3.8681,-3.9291,-3.9683,-4.0263,-4.0844,-4.1279,-4.1381,-4.1453,-4.1686,-4.1744,-4.1802,-4.2049,-4.2092,-4.2092,-4.2092,-4.2092,-4.2092,-4.2092,-4.2092,-4.1926,-4.1438,-4.0859,-4.0303,-3.9826,-3.9224,-3.8612,-3.8069,-3.7361,-3.6781,-3.6405,-3.6405,-3.6405,-3.6405,-3.6405,-3.6405,-3.6405,-3.6405,-3.6405,-3.6405,-3.6405,-3.6405,-3.6405,-3.6405,-3.6606]},{"header":{"parameterUnit":"m.s-1","parameterCategory":1,"la1":30.6,"la2":29.2853,"lo1":-89.7004,"lo2":-87.6739,"dy":0.0162,"dx":0.0183,"nx":112,"ny":82,"refTime":"2026-04-26T00:00:00:Z","depth":0,"parameterNumber":3,"parameterNumberName":"V-component_of_WINDS"},"data":[0.0,0.0,0.0,0.0,0.0,0.0,0.0,0.0,0.0,0.0,0.0,0.0,0.0,0.0,0.0,0.0,0.0,0.0,0.0,0.0,0.0,0.0,0.0,0.0,0.0,0.0,0.0,0.0,0.0,0.0,0.0,0.0,0.0,0.0,0.0,0.0,0.0,0.0,0.0,0.0,0.0,0.0,0.0,0.0,0.0,0.0,0.0,0.0,0.0,0.0,0.0,0.0,0.0,0.0,0.0,0.0,0.0,0.0,0.0,0.0,0.0,0.0,0.0,0.0,0.0,0.0,0.0,0.0,0.0,0.0,0.0,0.0,0.0,0.0,0.0,0.0,0.0,0.0,0.0,0.0,0.0,0.0,0.0,0.0,0.0,0.0,0.0,0.0,0.0,0.0,0.0,-3.0399,-3.4085,-3.6148,-3.5722,-3.4685,-3.3309,-3.1641,0.0,0.0,0.0,0.0,0.0,0.0,0.0,0.0,0.0,0.0,0.0,0.0,0.0,0.0,0.0,0.0,0.0,0.0,0.0,0.0,0.0,0.0,0.0,0.0,0.0,0.0,0.0,0.0,0.0,0.0,0.0,0.0,0.0,0.0,0.0,0.0,0.0,0.0,0.0,0.0,0.0,0.0,0.0,0.0,0.0,0.0,0.0,0.0,0.0,0.0,0.0,0.0,0.0,0.0,0.0,0.0,0.0,0.0,0.0,0.0,0.0,0.0,0.0,0.0,0.0,0.0,0.0,0.0,0.0,0.0,0.0,0.0,0.0,0.0,0.0,0.0,0.0,0.0,0.0,0.0,0.0,0.0,0.0,0.0,0.0,0.0,0.0,0.0,0.0,0.0,0.0,0.0,0.0,0.0,0.0,0.0,0.0,0.0,0.0,0.0,0.0,0.0,0.0,0.0,-2.8563,-3.296,-3.5129,-3.6352,-3.6487,-3.5916,-3.4837,-3.3174,0.0,0.0,0.0,0.0,0.0,0.0,0.0,0.0,0.0,0.0,0.0,0.0,0.0,0.0,0.0,0.0,0.0,0.0,0.0,0.0,0.0,0.0,0.0,0.0,0.0,0.0,0.0,0.0,0.0,0.0,0.0,0.0,0.0,0.0,0.0,0.0,0.0,0.0,0.0,0.0,0.0,0.0,0.0,0.0,0.0,0.0,0.0,0.0,0.0,0.0,0.0,0.0,0.0,0.0,0.0,0.0,0.0,0.0,0.0,0.0,0.0,0.0,0.0,0.0,0.0,0.0,0.0,0.0,0.0,0.0,0.0,0.0,0.0,0.0,0.0,0.0,0.0,0.0,0.0,0.0,0.0,0.0,0.0,0.0,0.0,0.0,0.0,0.0,0.0,0.0,0.0,0.0,0.0,0.0,0.0,0.0,0.0,0.0,0.0,0.0,0.0,0.0,0.0,-2.798,-3.124,-3.3717,-3.5518,-3.6414,-3.6227,-3.5729,-3.4691,-3.2926,-2.9677,0.0,0.0,0.0,0.0,0.0,0.0,0.0,0.0,0.0,0.0,0.0,0.0,0.0,0.0,0.0,0.0,0.0,0.0,0.0,0.0,0.0,0.0,0.0,0.0,0.0,0.0,0.0,0.0,0.0,0.0,0.0,0.0,0.0,0.0,0.0,0.0,0.0,0.0,0.0,0.0,0.0,0.0,0.0,0.0,0.0,0.0,0.0,0.0,0.0,0.0,0.0,0.0,0.0,0.0,0.0,0.0,0.0,0.0,0.0,0.0,0.0,0.0,0.0,0.0,0.0,0.0,0.0,0.0,0.0,0.0,0.0,0.0,0.0,0.0,0.0,0.0,0.0,0.0,0.0,0.0,0.0,0.0,0.0,0.0,0.0,0.0,0.0,0.0,0.0,0.0,0.0,0.0,0.0,0.0,0.0,0.0,0.0,0.0,0.0,0.0,0.0,0.0,-3.0879,-3.3394,-3.4206,-3.5614,-3.628,-3.5643,-3.5114,-3.3991,-3.2113,-2.9515,0.0,0.0,0.0,0.0,0.0,0.0,0.0,0.0,0.0,0.0,0.0,0.0,0.0,0.0,0.0,0.0,0.0,0.0,0.0,0.0,0.0,0.0,0.0,0.0,0.0,0.0,0.0,0.0,0.0,0.0,0.0,0.0,0.0,0.0,0.0,0.0,0.0,0.0,0.0,0.0,0.0,0.0,0.0,0.0,0.0,0.0,0.0,0.0,0.0,0.0,0.0,0.0,0.0,0.0,0.0,0.0,0.0,0.0,0.0,0.0,0.0,0.0,0.0,0.0,0.0,0.0,0.0,0.0,0.0,0.0,0.0,0.0,0.0,0.0,0.0,0.0,0.0,0.0,0.0,0.0,0.0,0.0,0.0,0.0,0.0,0.0,0.0,0.0,0.0,0.0,0.0,0.0,0.0,0.0,0.0,0.0,0.0,0.0,0.0,0.0,0.0,0.0,-3.1938,-3.3956,-3.4999,-3.5627,-3.5696,-3.5101,-3.4449,-3.324,-3.1233,-2.8389,0.0,0.0,0.0,0.0,0.0,0.0,0.0,0.0,0.0,0.0,0.0,0.0,0.0,0.0,0.0,0.0,0.0,0.0,0.0,0.0,0.0,0.0,0.0,0.0,0.0,0.0,0.0,0.0,0.0,0.0,0.0,0.0,0.0,0.0,0.0,0.0,0.0,0.0,0.0,0.0,0.0,0.0,0.0,0.0,0.0,0.0,0.0,0.0,0.0,0.0,0.0,0.0,0.0,0.0,0.0,0.0,0.0,0.0,0.0,0.0,0.0,0.0,0.0,0.0,0.0,0.0,0.0,0.0,0.0,0.0,0.0,0.0,0.0,0.0,0.0,0.0,0.0,0.0,0.0,0.0,0.0,0.0,0.0,0.0,0.0,0.0,0.0,0.0,0.0,0.0,0.0,0.0,0.0,0.0,0.0,0.0,0.0,0.0,0.0,0.0,0.0,0.0,-3.2506,-3.4523,0.0,-3.6213,-3.6146,-3.5496,-3.476,-3.319,-3.0583,0.0,0.0,0.0,0.0,0.0,0.0,0.0,0.0,0.0,0.0,0.0,0.0,0.0,0.0,0.0,0.0,0.0,0.0,0.0,0.0,0.0,0.0,0.0,0.0,0.0,0.0,0.0,0.0,0.0,0.0,0.0,0.0,0.0,0.0,0.0,0.0,0.0,0.0,0.0,0.0,0.0,0.0,0.0,0.0,0.0,0.0,0.0,0.0,0.0,0.0,0.0,0.0,0.0,0.0,0.0,0.0,0.0,0.0,0.0,0.0,0.0,0.0,0.0,0.0,0.0,0.0,0.0,0.0,0.0,0.0,0.0,0.0,0.0,0.0,0.0,0.0,0.0,0.0,0.0,0.0,0.0,0.0,0.0,0.0,0.0,0.0,0.0,0.0,0.0,0.0,0.0,0.0,0.0,0.0,0.0,0.0,0.0,0.0,0.0,0.0,0.0,0.0,-3.0599,-3.3062,-3.5014,0.0,-3.6603,-3.634,-3.5375,-3.4656,-3.2946,-3.0035,0.0,0.0,0.0,0.0,0.0,0.0,0.0,0.0,0.0,0.0,0.0,0.0,0.0,0.0,0.0,0.0,0.0,0.0,0.0,0.0,0.0,0.0,0.0,0.0,0.0,0.0,0.0,0.0,0.0,0.0,0.0,0.0,0.0,0.0,0.0,0.0,0.0,0.0,0.0,0.0,0.0,0.0,0.0,0.0,0.0,0.0,0.0,0.0,0.0,0.0,0.0,0.0,0.0,0.0,0.0,0.0,0.0,0.0,0.0,0.0,0.0,0.0,0.0,0.0,0.0,0.0,0.0,0.0,0.0,0.0,0.0,0.0,0.0,0.0,0.0,0.0,0.0,0.0,0.0,0.0,0.0,0.0,0.0,0.0,0.0,0.0,0.0,0.0,0.0,0.0,0.0,0.0,0.0,0.0,0.0,0.0,0.0,0.0,0.0,0.0,0.0,0.0,-3.1309,-3.3677,-3.5433,-3.6595,-3.6709,-3.6129,-3.4625,-3.3949,-3.2385,0.0,0.0,0.0,0.0,0.0,0.0,0.0,0.0,0.0,0.0,0.0,0.0,0.0,0.0,0.0,0.0,0.0,0.0,0.0,0.0,0.0,0.0,0.0,0.0,0.0,0.0,0.0,0.0,0.0,0.0,0.0,0.0,0.0,0.0,0.0,0.0,0.0,0.0,0.0,0.0,0.0,0.0,0.0,0.0,0.0,0.0,0.0,0.0,0.0,0.0,0.0,0.0,0.0,0.0,0.0,0.0,0.0,0.0,0.0,0.0,0.0,0.0,0.0,0.0,0.0,0.0,0.0,0.0,0.0,0.0,0.0,0.0,0.0,0.0,0.0,0.0,0.0,0.0,0.0,0.0,0.0,0.0,0.0,0.0,0.0,0.0,0.0,0.0,0.0,0.0,0.0,0.0,0.0,0.0,0.0,0.0,0.0,0.0,0.0,0.0,0.0,0.0,0.0,-3.1902,-3.4118,-3.5865,-3.7389,-3.7214,-3.6616,-3.5703,-3.5122,-3.3391,-3.0061,0.0,0.0,0.0,0.0,0.0,0.0,0.0,0.0,0.0,0.0,0.0,0.0,0.0,0.0,0.0,0.0,0.0,0.0,0.0,0.0,0.0,0.0,0.0,0.0,0.0,0.0,0.0,0.0,0.0,0.0,0.0,0.0,0.0,0.0,0.0,0.0,0.0,0.0,0.0,0.0,0.0,0.0,0.0,0.0,0.0,0.0,0.0,0.0,0.0,0.0,0.0,0.0,0.0,0.0,0.0,0.0,0.0,0.0,0.0,0.0,0.0,0.0,0.0,0.0,0.0,0.0,0.0,0.0,0.0,0.0,0.0,0.0,0.0,0.0,0.0,0.0,0.0,0.0,0.0,0.0,0.0,0.0,0.0,0.0,0.0,0.0,0.0,0.0,0.0,0.0,0.0,0.0,0.0,0.0,0.0,0.0,0.0,0.0,0.0,0.0,0.0,0.0,-3.1522,-3.4173,-3.6178,-3.7397,-3.7247,-3.6813,-3.6131,-3.5391,-3.3561,-3.0296,0.0,0.0,0.0,0.0,0.0,0.0,0.0,0.0,0.0,0.0,0.0,0.0,0.0,0.0,0.0,0.0,0.0,0.0,0.0,0.0,0.0,0.0,0.0,0.0,0.0,0.0,0.0,0.0,0.0,0.0,0.0,0.0,0.0,0.0,0.0,0.0,0.0,0.0,0.0,0.0,0.0,0.0,0.0,0.0,0.0,0.0,0.0,0.0,0.0,0.0,0.0,0.0,0.0,0.0,0.0,0.0,0.0,0.0,0.0,0.0,0.0,0.0,0.0,0.0,0.0,0.0,0.0,0.0,0.0,0.0,0.0,0.0,0.0,0.0,0.0,0.0,0.0,0.0,0.0,0.0,0.0,0.0,0.0,0.0,0.0,0.0,0.0,0.0,0.0,0.0,0.0,0.0,0.0,0.0,0.0,0.0,0.0,0.0,0.0,0.0,0.0,0.0,-3.0529,-3.3888,-3.6188,-3.6854,-3.692,-3.6671,-3.6083,-3.5077,-3.326,-3.0361,0.0,0.0,0.0,0.0,0.0,0.0,0.0,0.0,0.0,0.0,0.0,0.0,0.0,0.0,0.0,0.0,0.0,0.0,0.0,0.0,0.0,0.0,0.0,0.0,0.0,0.0,0.0,0.0,0.0,0.0,0.0,0.0,0.0,0.0,0.0,0.0,0.0,0.0,0.0,0.0,0.0,0.0,0.0,0.0,0.0,0.0,0.0,0.0,0.0,0.0,0.0,0.0,0.0,0.0,0.0,0.0,0.0,0.0,0.0,0.0,-2.3535,0.0,0.0,0.0,0.0,0.0,0.0,0.0,0.0,0.0,0.0,0.0,0.0,0.0,0.0,0.0,0.0,0.0,0.0,0.0,0.0,0.0,0.0,0.0,0.0,0.0,0.0,0.0,0.0,0.0,0.0,0.0,0.0,0.0,0.0,0.0,0.0,0.0,0.0,0.0,0.0,0.0,-3.0477,-3.3195,-3.5155,-3.6188,-3.6292,-3.607,-3.5521,-3.5247,-3.3875,-3.0986,-2.8935,0.0,0.0,0.0,0.0,0.0,0.0,0.0,0.0,0.0,0.0,0.0,0.0,0.0,0.0,0.0,0.0,0.0,0.0,0.0,0.0,0.0,0.0,0.0,0.0,0.0,0.0,0.0,0.0,0.0,0.0,0.0,0.0,0.0,0.0,0.0,0.0,0.0,0.0,0.0,0.0,0.0,0.0,0.0,0.0,0.0,0.0,0.0,0.0,0.0,0.0,0.0,0.0,0.0,0.0,0.0,0.0,0.0,0.0,0.0,0.0,-2.4937,0.0,0.0,0.0,0.0,0.0,0.0,0.0,0.0,0.0,0.0,0.0,0.0,0.0,0.0,0.0,0.0,0.0,0.0,0.0,0.0,0.0,0.0,0.0,0.0,0.0,0.0,0.0,0.0,0.0,0.0,0.0,0.0,0.0,0.0,0.0,0.0,0.0,0.0,0.0,0.0,-3.0124,-3.2816,-3.4737,-3.5626,-3.5717,-3.56,-3.5325,-3.4789,-3.3483,-3.113,-2.9091,0.0,0.0,0.0,0.0,0.0,0.0,0.0,0.0,0.0,0.0,0.0,0.0,0.0,0.0,0.0,0.0,0.0,0.0,0.0,0.0,0.0,0.0,0.0,0.0,0.0,0.0,0.0,0.0,0.0,0.0,0.0,0.0,0.0,0.0,0.0,0.0,0.0,0.0,0.0,0.0,0.0,0.0,0.0,0.0,0.0,0.0,0.0,0.0,0.0,0.0,0.0,0.0,0.0,-2.8718,-2.9085,-2.9397,-2.9397,-2.958,-2.98,-2.8214,-2.7493,-2.7417,0.0,0.0,0.0,0.0,0.0,0.0,0.0,0.0,0.0,0.0,0.0,0.0,0.0,0.0,0.0,0.0,0.0,0.0,0.0,0.0,0.0,0.0,0.0,0.0,0.0,-2.9575,-2.9411,0.0,0.0,0.0,0.0,0.0,0.0,0.0,0.0,0.0,0.0,0.0,0.0,-2.9735,-3.2555,-3.4489,-3.5077,-3.5142,-3.5142,-3.5185,-3.4271,-3.2961,-3.1361,-2.9214,-2.7308,0.0,0.0,0.0,0.0,0.0,0.0,0.0,0.0,0.0,0.0,0.0,0.0,0.0,0.0,0.0,0.0,0.0,0.0,0.0,0.0,0.0,0.0,0.0,0.0,0.0,0.0,0.0,0.0,0.0,0.0,0.0,0.0,-1.8793,-1.9191,0.0,0.0,0.0,0.0,0.0,0.0,0.0,0.0,0.0,0.0,0.0,0.0,0.0,-2.8113,-2.8507,-2.9709,-3.0341,-3.0396,-3.08,-3.1011,-3.1066,-3.1066,-3.1093,-3.1148,-3.1249,0.0,-2.9194,-2.9497,0.0,0.0,0.0,0.0,0.0,0.0,0.0,0.0,0.0,0.0,0.0,0.0,0.0,0.0,0.0,0.0,0.0,0.0,0.0,0.0,0.0,0.0,-3.2208,-3.257,-3.2616,-3.2634,0.0,-3.0884,-2.8999,-2.8224,-2.6721,0.0,0.0,0.0,0.0,0.0,0.0,0.0,-2.9787,-3.2215,-3.3901,-3.4463,-3.4515,-3.4599,-3.4833,-3.424,-3.341,-3.2359,-3.0871,-2.9384,-2.7962,-2.618,0.0,0.0,0.0,0.0,0.0,0.0,0.0,0.0,0.0,0.0,0.0,0.0,0.0,0.0,0.0,0.0,0.0,0.0,0.0,0.0,0.0,0.0,0.0,0.0,0.0,0.0,0.0,0.0,0.0,-1.9446,-2.1042,-2.1122,-2.2133,-2.2606,0.0,0.0,0.0,0.0,0.0,0.0,0.0,0.0,0.0,-2.8024,-2.9571,-3.0616,-3.1011,-3.1992,-3.2597,-3.2826,-3.2991,-3.3202,-3.3431,-3.3431,-3.3431,-3.3441,-3.3624,-3.3274,-3.2473,-3.1813,-3.1321,-3.0998,0.0,0.0,0.0,0.0,-3.1421,-3.1743,-3.2523,-3.2799,0.0,-3.2799,0.0,0.0,0.0,0.0,0.0,0.0,0.0,0.0,0.0,0.0,-3.3927,-3.428,-3.473,-3.509,-3.4952,-3.3972,-3.2681,0.0,-2.9544,-2.7958,-2.672,0.0,0.0,0.0,0.0,-2.8856,-3.0805,-3.2555,-3.3796,-3.4345,-3.4397,-3.4494,-3.4756,-3.4337,-3.3715,-3.2981,-3.1761,-3.0543,-2.9342,-2.7647,-2.6318,0.0,0.0,0.0,0.0,0.0,0.0,0.0,0.0,0.0,0.0,0.0,0.0,0.0,0.0,0.0,0.0,0.0,0.0,0.0,0.0,0.0,0.0,0.0,0.0,0.0,0.0,0.0,0.0,-2.1616,-2.2997,-2.3098,-2.418,-2.4611,0.0,0.0,0.0,0.0,0.0,0.0,-2.6756,-2.8278,-2.9489,-3.0176,-3.1671,-3.2652,-3.3055,-3.3771,-3.4275,-3.4559,-3.4559,-3.4724,-3.5027,-3.5027,-3.5027,-3.5027,-3.4917,-3.4947,-3.4981,-3.4127,-3.3809,-3.3859,-3.3624,-3.3546,-3.3623,-3.4102,-3.4418,-3.475,-3.5508,-3.5853,-3.5956,-3.5956,0.0,-3.3427,-3.1631,0.0,0.0,0.0,0.0,-3.1553,-3.3118,-3.4521,-3.5563,-3.5844,-3.6634,-3.7158,-3.654,-3.6271,-3.555,0.0,-3.1901,-3.0388,-2.9248,0.0,0.0,0.0,0.0,-3.0451,-3.1836,-3.3077,-3.3953,-3.4358,-3.4397,-3.447,-3.4627,-3.4179,-3.37,-3.3282,-3.2278,-3.1231,-3.0225,-2.8855,-2.7639,-2.6541,0.0,0.0,0.0,0.0,0.0,0.0,0.0,0.0,0.0,0.0,0.0,0.0,0.0,0.0,0.0,0.0,0.0,0.0,0.0,0.0,0.0,0.0,0.0,0.0,0.0,0.0,0.0,0.0,0.0,-2.5221,-2.6289,0.0,0.0,0.0,0.0,-2.6435,-2.7884,-2.8792,-2.8828,-3.0378,-3.146,-3.1873,-3.3083,-3.3908,-3.4303,-3.4752,-3.4981,-3.4999,-3.4999,-3.5009,-3.5027,-3.5027,-3.5027,-3.5009,-3.4605,-3.4835,-3.5553,-3.6539,-3.6654,-3.6217,-3.7151,-3.7484,-3.746,-3.7012,-3.7471,-3.8321,-3.8378,-3.87,-3.9078,-3.9078,-3.7248,-3.4899,-3.3842,-3.2652,0.0,0.0,-3.3124,-3.4103,-3.498,-3.6156,-3.7233,-3.7741,-3.8449,-3.8807,-3.82,-3.7811,-3.704,0.0,-3.3539,-3.2202,-3.1052,0.0,-2.9905,-2.9957,-3.0936,-3.1902,-3.2568,-3.3652,-3.4371,-3.4397,-3.4397,-3.4341,-3.4219,-3.3687,-3.3282,-3.3108,-3.2337,-3.1438,-3.0425,-2.9888,-2.8835,-2.7175,-2.581,0.0,0.0,0.0,0.0,0.0,0.0,0.0,0.0,0.0,0.0,0.0,0.0,0.0,0.0,0.0,0.0,0.0,0.0,0.0,0.0,0.0,0.0,0.0,0.0,0.0,0.0,0.0,0.0,-2.7242,-2.8608,0.0,-2.8746,-2.8581,-2.8728,-2.925,-3.0057,-3.0873,-3.1671,-3.2744,-3.3642,-3.4312,-3.4999,-3.5421,-3.5568,-3.5715,-3.5788,-3.5788,-3.5788,-3.5788,-3.5788,-3.5788,-3.5788,-3.576,-3.5357,-3.5467,-3.6028,-3.7539,-3.7749,-3.7335,-3.8717,-3.9044,-3.878,-3.8929,-3.9216,-3.9597,-3.9597,-3.9641,-3.9687,-3.9044,-3.7881,-3.658,-3.5905,-3.4805,-3.3915,-3.4457,-3.4584,-3.4896,-3.6195,-3.7398,-3.8429,-3.9126,-3.9803,-4.0172,-3.9607,-3.8795,-3.7889,-3.7069,-3.522,-3.3652,-3.3247,-3.2398,-3.1784,-3.1784,-3.2463,-3.3038,-3.3247,-3.3927,-3.4397,-3.4397,-3.4397,-3.4299,-3.4032,-3.3555,-3.3178,-3.2917,-3.1982,-3.1346,-3.1135,-3.0274,-2.9486,-2.8773,-2.7826,-2.6597,0.0,0.0,0.0,0.0,0.0,0.0,0.0,0.0,0.0,0.0,0.0,0.0,0.0,0.0,0.0,0.0,0.0,0.0,0.0,0.0,0.0,0.0,0.0,0.0,0.0,0.0,-2.7939,-2.8893,-3.0305,-3.1047,-3.0635,-3.0479,-3.0616,-3.1157,-3.1698,-3.2423,-3.3367,-3.4183,-3.4926,-3.5595,-3.6008,-3.621,-3.621,-3.621,-3.621,-3.621,-3.621,-3.621,-3.621,-3.621,-3.621,-3.6182,-3.565,-3.5627,-3.6195,-3.7849,-3.8402,-3.8402,-4.0124,-4.0628,-4.0353,-4.0513,-4.0632,-4.0574,-4.0229,-4.0114,-3.9976,-3.909,-3.8538,-3.8099,-3.7828,-3.715,-3.6521,-3.6711,-3.6469,-3.647,-3.7481,-3.8662,-3.9813,-4.0522,-4.1139,-4.1407,-4.0964,-3.9847,-3.8855,-3.8546,-3.6651,-3.5047,-3.4837,-3.4099,-3.3496,-3.33,-3.36,-3.3862,-3.3862,-3.4175,-3.4397,-3.4397,-3.4241,-3.3983,-3.3647,-3.3185,-3.2701,-3.2226,-3.1541,-3.1048,-3.0904,-3.0311,-2.9919,-2.9758,-2.8987,-2.7683,-2.5904,0.0,0.0,0.0,0.0,0.0,0.0,0.0,0.0,0.0,0.0,0.0,0.0,0.0,0.0,0.0,0.0,0.0,0.0,0.0,0.0,0.0,0.0,0.0,-2.4891,-2.7011,-2.892,-3.0112,-3.1322,-3.19,-3.1497,-3.1827,-3.2065,-3.2065,-3.2808,-3.3431,-3.3826,-3.4614,-3.5229,-3.5623,-3.6008,-3.621,-3.621,-3.621,-3.621,-3.621,-3.621,-3.621,-3.621,-3.621,-3.6201,-3.6146,-3.5366,-3.5386,-3.6157,-3.7516,-3.8542,-3.9441,-4.1474,-4.2275,-4.2206,-4.1776,-4.1581,-4.1471,-4.0482,-4.0126,-4.0011,-3.9457,-3.9384,-3.9518,-3.9518,-3.9549,-3.9525,-3.8984,-3.8827,-3.8803,-3.8778,-3.9981,-4.1319,-4.1878,-4.2301,-4.2525,-4.2272,-4.103,-3.9865,-3.9394,-3.7832,-3.6383,-3.5762,-3.5457,-3.509,-3.4489,-3.4397,0.0,-3.4397,-3.4397,-3.4397,-3.4397,-3.3914,-3.342,-3.3041,-3.2434,-3.1755,-3.1025,-3.0967,-3.0591,-2.9722,-3.0016,-3.0161,-3.0144,-2.9224,-2.7836,-2.6016,0.0,0.0,0.0,0.0,0.0,0.0,0.0,0.0,0.0,0.0,0.0,0.0,0.0,0.0,0.0,0.0,0.0,0.0,0.0,0.0,0.0,0.0,-2.5047,-2.5888,-2.8378,-3.047,-3.1405,-3.2579,-3.3276,-3.3156,-3.3248,-3.3321,-3.3321,-3.3789,-3.4257,-3.4678,-3.5183,-3.5641,-3.6026,-3.6146,-3.621,-3.621,-3.621,-3.621,-3.621,-3.621,-3.621,-3.621,-3.621,-3.6054,-3.5751,-3.5247,-3.5281,-3.58,-3.7452,-3.8542,-3.9441,-4.1474,-4.2275,-4.2252,-4.2178,-4.1661,-4.0984,-4.0709,-4.0123,-3.9492,-3.9354,-3.9522,-3.9768,-3.9977,-3.9945,-3.9762,-3.947,-3.9116,-3.8803,-3.8778,-3.9981,-4.1319,-4.1878,-4.2301,-4.2494,-4.206,-4.0955,-3.9865,-3.9394,-3.8604,-3.7657,-3.6449,-3.5733,-3.509,-3.4489,-3.4397,0.0,-3.4397,-3.4397,-3.4397,-3.4397,-3.3914,-3.3392,-3.2817,-3.224,-3.1504,-3.0639,-3.0268,-3.0008,-2.9709,-2.9844,-3.0332,-3.1234,-3.015,-2.9214,0.0,0.0,0.0,0.0,0.0,0.0,0.0,0.0,0.0,0.0,0.0,0.0,0.0,0.0,0.0,0.0,0.0,0.0,0.0,0.0,0.0,0.0,-2.4778,-2.6504,-2.7232,-2.926,-3.0954,-3.1902,-3.2979,-3.3678,-3.3817,-3.3817,-3.3817,-3.3817,-3.4027,-3.433,-3.4752,-3.4981,-3.5375,-3.5944,-3.5962,-3.6045,-3.621,-3.621,-3.621,-3.621,-3.621,-3.621,-3.6201,-3.6036,-3.5834,0.0,-3.5018,-3.5049,-3.562,-3.7392,-3.8542,0.0,0.0,0.0,0.0,0.0,-4.1501,-4.0789,-4.0571,-3.9974,-3.9308,-3.9308,-3.9555,-3.9802,-4.0013,-4.0151,-4.0093,-3.9579,-3.9271,-3.908,-3.8839,-3.9981,-4.1319,-4.1878,-4.2301,-4.248,-4.2105,-4.0955,-3.9865,-3.9394,-3.8904,0.0,-3.7069,-3.6205,-3.5443,-3.4868,-3.4554,-3.4397,-3.4397,-3.4397,-3.4397,-3.4397,-3.3692,-3.3064,-3.2725,-3.1954,0.0,0.0,0.0,-2.9956,-3.0271,-3.0897,0.0,0.0,0.0,0.0,0.0,0.0,0.0,0.0,-2.7311,-2.8049,0.0,0.0,0.0,0.0,0.0,0.0,0.0,0.0,0.0,0.0,0.0,0.0,0.0,0.0,0.0,0.0,-2.6235,-2.7922,-2.8637,-2.9605,-3.0697,-3.1913,-3.2782,-3.3409,-3.3747,-3.3817,-3.3817,-3.3817,-3.3853,-3.4027,-3.4385,0.0,0.0,0.0,0.0,-3.5788,-3.6136,-3.6182,-3.621,-3.621,-3.621,-3.6182,-3.6127,-3.5779,-3.5568,-3.544,-3.4715,-3.4798,-3.5563,-3.7371,-3.8674,-3.9703,-4.1614,-4.2275,-4.2218,-4.1834,-4.1306,-4.0755,-4.0295,0.0,0.0,-3.9308,-3.9496,-3.9743,-3.9802,-4.0153,-4.0382,-3.9371,-3.9308,-3.9411,-3.8912,-3.9981,-4.1319,-4.1828,-4.2309,-4.2565,-4.2196,-4.0996,-3.9859,-3.9349,-3.8859,-3.8352,-3.7611,-3.6731,-3.5926,-3.5378,-3.4789,-3.4397,-3.4397,-3.4397,-3.4397,-3.4397,0.0,0.0,-3.2698,-3.1705,-3.0952,-3.0694,-3.0214,-3.031,-3.122,-3.2495,-3.32,-3.3163,-3.2839,-3.2336,-3.1763,-3.1763,-3.1794,-3.184,-3.0489,-3.0812,0.0,0.0,0.0,0.0,0.0,0.0,0.0,0.0,0.0,0.0,0.0,0.0,0.0,0.0,0.0,-2.5788,-2.7193,-2.826,-2.8725,-2.9438,-3.0418,-3.1478,-3.2645,-3.3339,-3.3409,-3.3608,-3.3817,-3.3817,-3.411,-3.4321,-3.4394,-3.4724,-3.4981,-3.5137,-3.5449,-3.566,-3.5733,-3.6045,-3.621,-3.621,0.0,0.0,-3.5733,-3.566,-3.5256,-3.4623,-3.4468,-3.464,-3.5154,-3.725,-3.954,-4.1742,-4.2136,-4.2275,-4.2264,-4.2224,-4.1616,-4.0812,-4.0709,-4.0077,-3.9308,-3.9308,-3.9367,-3.9426,-3.9743,-3.9861,0.0,-3.9258,-3.9129,-3.9168,-3.8859,-3.9981,-4.1282,-4.167,-4.2413,-4.2763,-4.1805,-4.0845,-3.9906,-3.9136,-3.8607,-3.8219,-3.8068,-3.698,-3.5926,-3.5378,-3.4789,-3.4397,-3.4397,-3.4397,-3.4397,-3.4397,-3.3809,-3.3221,-3.2738,-3.2071,-3.131,-3.0517,-3.0586,-3.1146,-3.2113,-3.284,-3.3501,-3.4187,-3.4137,-3.4043,-3.3904,-3.3904,-3.4181,-3.466,-3.3275,-3.2829,0.0,0.0,0.0,0.0,0.0,0.0,0.0,0.0,0.0,0.0,0.0,-2.2431,-2.377,0.0,-2.5797,-2.7124,-2.7989,-2.8614,-2.8991,-2.9539,-3.0228,-3.114,-3.1985,-3.2558,-3.2972,-3.3121,-3.333,-3.3539,-3.3721,-3.39,-3.4101,-3.4303,-3.4513,-3.4706,-3.4908,-3.5201,-3.5614,-3.5815,-3.6008,-3.621,-3.6008,-3.588,-3.5896,-3.549,-3.5145,-3.4948,-3.4752,-3.5023,-3.585,-3.8231,-4.042,-4.2275,-4.2275,-4.2275,-4.2275,-4.2275,-4.1633,-4.0823,-4.0823,-4.0158,-3.9308,-3.9308,-3.9308,-3.9308,-3.9496,-3.9488,-3.929,-3.8794,-3.8717,-3.8735,-3.8627,-3.9866,-4.1282,-4.1634,-4.2303,-4.2611,-4.1543,-4.0516,-3.9529,-3.8714,-3.8258,-3.7952,-3.765,-3.6786,-3.6018,-3.5744,-3.4959,-3.4397,-3.4397,-3.4397,-3.4397,-3.4397,-3.3914,-3.3352,-3.2738,-3.2069,-3.1463,-3.0851,-3.1702,-3.2525,-3.3179,-3.3995,-3.4619,-3.4983,-3.5013,-3.5013,-3.5013,-3.5013,-3.5537,-3.6476,-3.5784,-3.5276,0.0,0.0,0.0,0.0,0.0,0.0,0.0,0.0,-2.161,-2.2705,-2.3529,-2.4379,-2.5443,-2.6199,-2.7056,-2.8134,-2.8631,-2.8982,-2.9273,-2.9581,-3.0049,-3.0689,-3.1286,-3.1826,-3.2429,-3.2596,-3.285,-3.313,-3.3269,-3.3409,-3.3678,-3.3747,-3.3954,-3.4275,-3.4367,-3.4715,-3.5375,-3.5467,-3.566,-3.5981,-3.566,-3.5685,-3.5945,-3.5477,-3.541,-3.5654,-3.5654,-3.6238,-3.7374,-3.9441,-4.11,-4.2264,-4.2224,-4.219,-4.219,-4.219,-4.1616,-4.0812,-4.0709,-4.0077,-3.9308,-3.9308,-3.9308,-3.9308,-3.9308,-3.9127,-3.8838,-3.8453,-3.833,-3.8413,-3.8554,-3.9879,-4.1282,-4.1634,-4.2158,-4.2304,-4.1251,-4.0133,-3.9117,-3.8364,-3.8057,-3.7717,-3.7103,-3.6502,-3.607,-3.5966,-3.5064,-3.4397,-3.4397,-3.4397,-3.4397,-3.4397,-3.3914,-3.33,-3.2594,-3.2006,-3.1602,-3.1485,-3.2884,-3.3854,-3.4253,-3.5362,-3.5929,-3.5891,-3.603,-3.6076,-3.6076,-3.6076,-3.663,-3.7692,-3.7692,-3.74,-1.394,-1.5491,-1.7764,-1.9296,-2.0426,-2.1317,0.0,0.0,-2.3091,-2.3879,-2.465,-2.542,-2.6217,-2.697,-2.7749,-2.858,-2.9016,-2.9265,-2.9307,-2.935,-2.9521,-2.9982,-3.0993,-3.1651,-3.1695,-3.2297,-3.271,-3.278,-3.313,-3.3339,-3.3339,-3.3608,-3.3835,-3.3881,-3.422,-3.444,-3.4541,-3.4908,-3.5119,-3.5164,-3.5119,-3.5113,-3.5177,-3.5956,-3.6318,-3.6453,-3.7642,-3.8806,-3.9812,-4.0495,-4.1357,-4.2293,-4.1834,-4.1661,-4.1661,-4.1661,-4.1306,-4.0755,-4.0295,-3.9767,-3.9308,-3.9308,-3.9308,-3.9308,-3.9308,-3.8964,-3.8643,-3.8634,-3.8485,-3.8443,-3.9028,-4.0185,-4.1282,-4.1634,-4.1917,-4.1835,-4.0924,-3.9901,-3.8932,-3.8319,-3.8057,-3.7717,-3.7103,-3.6502,-3.594,-3.5456,-3.4816,-3.4397,-3.4397,-3.4397,-3.4397,-3.4397,-3.3914,-3.3143,-3.1993,-3.188,-3.2069,-3.25,-3.3492,-3.4413,-3.5198,-3.628,-3.6985,-3.7277,-3.7861,-3.8169,-3.8169,-3.8169,-3.8246,-3.84,-3.84,-3.8354,-1.6032,-1.803,-2.0321,0.0,-2.2765,-2.3892,-2.4446,-2.465,-2.4907,-2.5437,-2.6148,-2.6842,-2.7381,-2.792,-2.8468,0.0,-2.9213,-2.9307,-2.9307,-2.9307,-2.9367,-2.9539,-3.0169,-3.0718,-3.0857,-3.1158,-3.1556,-3.2,-3.2226,-3.2601,-3.326,-3.3409,-3.3608,-3.3807,-3.3972,-3.4174,-3.4403,-3.4578,-3.486,-3.5323,-3.5145,-3.5416,-3.6265,-3.6622,-3.7277,-3.8109,-3.9101,-3.9899,-4.0625,-4.1153,-4.1572,-4.1868,-4.1661,-4.1397,-4.1133,-4.1133,-4.0812,-4.0341,-4.0195,-3.9721,-3.9308,-3.9308,-3.9308,-3.9308,-3.9308,-3.8746,-3.8194,-3.8371,-3.8261,-3.8262,-3.8878,-4.0134,-4.1217,-4.1002,-4.1227,-4.1233,-4.0001,-3.9289,-3.8727,-3.8116,-3.7658,-3.7194,-3.658,-3.6005,-3.5443,-3.4855,-3.4554,-3.4397,-3.4397,-3.4397,-3.428,-3.3966,-3.3117,-3.2332,-3.185,-3.1854,-3.2228,-3.296,-3.3796,-3.4725,-3.572,-3.6628,-3.722,-3.7492,-3.8169,-3.8508,-3.8508,-3.8508,-3.8708,-3.9059,-3.9059,-3.9308,-1.7946,-2.0139,0.0,-2.3204,-2.4522,-2.5754,-2.6028,-2.6088,-2.6199,-2.6576,-2.6996,-2.745,-2.7938,-2.8186,-2.8494,-2.9068,-2.9162,-2.9196,-2.9299,-2.9307,-2.9307,-2.9307,-2.9564,-2.9838,-3.0095,-3.0309,-3.0617,-3.1245,-3.1435,-3.1973,-3.2811,-3.3146,-3.3409,-3.3678,-3.3747,-3.3954,-3.4238,-3.4238,-3.4606,-3.5274,-3.5219,-3.5883,-3.7102,-3.7728,-3.8772,-4.0094,-4.0571,-4.096,-4.1217,-4.1595,-4.1702,-4.1547,-4.126,-4.0927,-4.0594,-4.0456,-4.0249,-4.0091,-3.9953,-3.9618,-3.9308,-3.9308,-3.9308,-3.9285,-3.9147,-3.8481,-3.7872,-3.8059,-3.8086,-3.825,-3.8868,-4.0147,-4.1191,-4.0664,-4.0694,-4.055,-3.9375,-3.8766,-3.837,-3.7978,-3.7416,-3.6815,-3.6214,-3.5652,-3.509,-3.4489,-3.4397,-3.4397,-3.4397,-3.4267,-3.3901,-3.3182,-3.2306,-3.1745,-3.1575,-3.1822,-3.2322,-3.3227,-3.407,-3.499,-3.6022,-3.7036,-3.764,-3.7769,-3.8631,-3.9062,-3.9062,-3.9062,-3.929,-3.9767,-3.9767,-4.0028,-1.9302,0.0,-2.3735,-2.4231,-2.5405,-2.6456,-2.6465,-2.6473,-2.6585,-2.6979,-2.6773,-2.6747,-2.7484,-2.7347,-2.7492,-2.8614,-2.8794,-2.8914,-2.9265,-2.9307,-2.9307,-2.9307,-2.9316,-2.9333,0.0,-3.0001,-3.0438,-3.0446,-3.1141,-3.1643,-3.1651,-3.2715,-3.3269,-3.3339,-3.3608,-3.3817,-3.3826,-3.3826,-3.4043,-3.4486,-3.5382,-3.6248,-3.7069,-3.9583,-4.1229,-4.2212,-4.2212,-4.2212,-4.2229,-4.1799,-4.1581,-4.1466,-4.0551,-4.0149,-4.008,-3.9526,-3.9652,-4.0045,-3.9492,-3.932,-3.9308,-3.9308,-3.9308,-3.9216,-3.8746,-3.8229,-3.7802,-3.7906,-3.8138,-3.8579,-3.9426,-4.0504,-4.1217,-4.0873,-4.0403,-3.987,-3.9249,-3.8477,-3.7926,-3.79,-3.7416,-3.6815,-3.6214,-3.5652,-3.509,-3.4489,-3.4397,-3.4397,-3.4397,-3.394,-3.3169,-3.198,-3.1823,-3.1575,-3.1065,-3.168,-3.2511,-3.3437,-3.4361,-3.527,-3.6164,-3.7657,-3.8477,-3.8477,-3.9751,-4.0428,-4.0428,-4.0428,-4.0443,-4.0459,-4.0459,-4.0474,-2.034,0.0,-2.5264,-2.5692,-2.6722,-2.7552,-2.7287,-2.7227,-2.7124,-2.6756,-2.6388,-2.6277,-2.6773,-2.6765,-2.6979,-2.7852,-2.8434,-2.8828,-2.8939,-2.9162,-2.9307,-2.9307,-2.9102,0.0,0.0,0.0,0.0,-3.0061,-3.0556,-3.1012,-3.1556,-3.2428,-3.299,-3.3269,-3.3608,-3.3955,-3.4232,-3.4232,-3.4706,-3.5772,-3.7575,-3.8838,-3.9572,-4.0884,-4.1625,-4.1834,-4.1834,-4.1639,-4.1317,-4.1145,-4.0881,-4.0597,-4.0252,-3.9848,-3.9538,-3.9365,-3.9411,-3.9526,-3.9365,-3.9308,-3.9308,-3.9308,-3.909,-3.8791,-3.8642,-3.7976,-3.7365,-3.7789,-3.8275,-3.8816,-3.953,-4.0209,-4.0579,-4.0127,-3.9585,-3.8995,-3.8431,-3.8077,-3.79,-3.79,-3.709,-3.6345,-3.6136,-3.5325,-3.4633,-3.4424,-3.4397,-3.4397,-3.4397,-3.3574,-3.2842,-3.245,-3.1731,-3.1196,-3.0999,-3.1666,-3.2533,-3.3581,-3.4428,-3.5544,-3.6996,-3.7998,-3.8723,-3.917,-4.0028,-4.0489,-4.0489,-4.0489,-4.0489,-4.0489,-4.0489,-4.0489,-2.1526,-2.404,-2.6371,-2.6465,-2.7244,-2.7886,-2.7501,-2.7304,-2.703,-2.6422,-2.578,-2.5446,-2.5823,-2.5895,-2.6136,-2.7039,-2.7985,-2.8596,-2.8807,-2.9085,-2.9307,-2.9307,-2.9111,-2.9059,0.0,0.0,0.0,-2.9667,-3.0147,-3.0609,-3.1132,-3.214,-3.285,-3.306,-3.3539,-3.4024,-3.438,-3.4774,-3.5899,-3.7832,-3.9375,-4.0506,-4.1346,-4.1625,-4.1679,-4.157,-4.1386,-4.1122,-4.0812,-4.0628,-4.0353,-4.0103,-3.9919,-3.9584,-3.9308,-3.9308,-3.9308,-3.9308,-3.9308,-3.9308,-3.9274,-3.9101,-3.8837,-3.8516,-3.8137,-3.7563,-3.7056,-3.7356,-3.8012,-3.8804,-3.9362,-3.9904,-4.0145,-3.9694,-3.9155,-3.8553,-3.8018,-3.79,-3.79,-3.79,-3.7103,-3.6358,-3.6136,-3.5155,-3.4397,-3.4397,-3.4397,-3.4332,-3.4136,-3.3273,-3.262,-3.2411,-3.1548,-3.0986,-3.0986,-3.1666,-3.2569,-3.3636,-3.4665,-3.592,-3.7445,-3.8385,-3.9077,-3.9474,-4.0151,-4.0489,-4.0489,-4.0489,-4.0489,-4.0489,-4.0489,-4.0489,-2.2823,-2.5169,-2.7073,-2.667,-2.7124,-2.7561,-2.7167,-2.6773,-2.6371,-2.5885,-2.4885,-2.4256,0.0,0.0,-2.5061,-2.6274,-2.7392,-2.8322,-2.8768,-2.9076,-2.9307,0.0,0.0,0.0,0.0,0.0,0.0,-2.9307,0.0,-3.0429,-3.0429,-3.1852,-3.271,-3.271,-3.34,-3.3955,-3.4449,-3.55,-3.7477,-4.0268,-4.0625,-4.1346,-4.2218,-4.1799,-4.1547,-4.1466,-4.0996,-4.0766,-4.0709,-4.0215,-4.008,-4.0034,-3.9492,-3.9308,-3.9308,-3.9308,-3.9308,-3.9308,-3.9308,-3.9285,-3.9193,-3.8734,-3.855,-3.8321,-3.7333,-3.6956,-3.6953,-3.6731,-3.7507,-3.8461,-3.9025,-3.9525,-3.9861,-3.9633,-3.9081,-3.8527,-3.8018,-3.79,-3.79,-3.79,-3.739,-3.6763,-3.6162,-3.5142,-3.4397,-3.4397,-3.4397,-3.4214,-3.3705,-3.3104,-3.2515,-3.1902,-3.1365,-3.105,-3.1024,-3.1767,-3.2646,-3.3713,-3.5171,-3.6462,-3.7568,-3.8831,-3.9539,-3.9536,-4.0166,-4.0489,-4.0489,-4.0489,-4.0489,-4.0489,-4.0489,-4.0489,-2.4452,-2.6505,-2.8246,-2.786,-2.8117,-2.8237,-2.7287,-2.6773,-2.614,-2.4915,-2.3768,-2.3117,0.0,0.0,0.0,-2.6029,-2.7623,0.0,-2.901,-2.9155,0.0,-2.9307,0.0,-2.9025,-2.929,-2.9068,0.0,0.0,-3.0001,-3.0429,-3.0429,-3.1557,-3.2403,-3.271,-3.32,-3.3886,-3.4784,-3.6924,-3.8848,-4.0625,-4.1282,-4.1613,-4.1765,-4.1627,-4.1156,-4.0494,-4.0367,-4.0043,-3.9675,-3.9549,-3.9492,-3.948,-3.9354,-3.9308,-3.9308,-3.9308,-3.9308,-3.9308,-3.9308,-3.9067,-3.8746,-3.8631,-3.8057,-3.7379,-3.706,-3.6771,-3.6493,-3.6681,-3.7227,-3.7844,-3.8449,-3.8678,-3.877,-3.8948,-3.8558,-3.807,-3.7926,-3.79,-3.79,-3.79,-3.705,-3.6162,-3.56,-3.4894,-3.4397,-3.4397,-3.4397,-3.4345,-3.4201,-3.3705,-3.313,-3.2542,-3.2069,-3.171,-3.1447,-3.2718,-3.3916,-3.4837,-3.6237,-3.7613,-3.8952,-3.9339,-3.9721,-4.0228,-4.0397,-4.0489,-4.0489,-4.0489,-4.0489,-4.0489,-4.0489,-4.0489,-2.5621,-2.7306,-2.864,-2.8075,-2.81,-2.7963,-2.6833,-2.5891,-2.4932,-2.3742,-2.2567,0.0,-2.2364,0.0,0.0,0.0,0.0,0.0,-2.8936,-2.9293,-2.9513,0.0,-2.9487,0.0,-2.9757,-2.9591,-2.9557,0.0,-2.9997,-3.0266,-3.042,-3.1332,-3.2018,-3.2403,-3.299,-3.4283,-3.6296,-3.8052,-3.9671,-4.1159,-4.154,-4.1542,-4.1237,-4.1019,-4.0655,-4.0103,0.0,-3.9572,-3.9308,-3.9308,-3.9308,-3.9308,-3.9308,-3.9308,-3.9308,-3.9308,-3.9308,-3.9274,-3.9055,-3.8654,-3.824,-3.824,-3.7689,-3.6933,-3.6771,-3.6495,-3.632,-3.6483,-3.6904,-3.7483,-3.808,-3.8158,-3.8236,-3.8679,-3.8359,-3.79,-3.79,-3.79,-3.79,-3.79,-3.6933,-3.6005,-3.5704,-3.4959,-3.4397,-3.4397,-3.4397,-3.4397,-3.4397,-3.3927,-3.347,-3.3117,-3.2817,-3.2636,-3.263,-3.3795,-3.4902,-3.5811,-3.7124,-3.8299,-3.9324,-3.9733,-4.0105,-4.0489,-4.0489,-4.0489,-4.0489,-4.0489,-4.0489,-4.0505,-4.0812,-4.1001,-2.6621,-2.7826,-2.8665,-2.7878,-2.7612,-2.7227,-2.6054,-2.459,-2.3246,-2.2465,0.0,-2.065,-2.1518,-2.252,-2.3815,-2.5604,0.0,-2.8171,-2.8855,-2.9551,-2.995,-3.0067,-3.0443,-3.0694,-3.0694,-3.0694,-3.0694,-3.0694,-3.0417,-3.0301,-3.047,-3.12,-3.1773,-3.2158,-3.302,-3.4908,-3.7957,-3.8779,-3.996,-4.1478,-4.1478,-4.1214,-4.0697,-4.0321,-4.008,-3.9988,0.0,0.0,-3.9308,-3.9308,-3.9308,-3.9308,-3.9308,-3.9308,-3.9308,-3.9308,-3.9262,-3.9147,-3.8734,-3.8194,-3.7689,-3.7689,-3.7345,-3.6851,-3.6404,-3.632,-3.632,-3.632,-3.6599,-3.7026,-3.7613,-3.7741,-3.7827,-3.8454,-3.8247,-3.79,-3.79,-3.79,-3.79,-3.79,-3.6933,-3.6109,-3.6109,-3.5155,-3.4397,-3.4397,-3.4397,-3.4397,-3.4397,-3.3979,-3.3679,-3.36,-3.3516,-3.3601,-3.3941,-3.4868,-3.5811,-3.6758,-3.7948,-3.8847,-3.9325,-4.0098,-4.0489,-4.0489,-4.0489,-4.0489,-4.0489,-4.0489,-4.0551,-4.0659,-4.1309,-4.1648,-2.7761,-2.8533,-2.9033,-2.828,-2.7621,-2.679,-2.5343,-2.3605,0.0,0.0,-1.9999,-1.9475,-2.0338,-2.1534,-2.3089,-2.5191,0.0,0.0,0.0,0.0,-3.0928,0.0,0.0,0.0,0.0,0.0,0.0,0.0,0.0,-3.1643,-3.0866,-3.1272,-3.1791,-3.2462,-3.3794,-3.5363,-3.7356,-3.839,-3.9567,-4.095,-4.095,-4.0686,-4.0252,-4.016,-3.9825,-3.9434,-3.9342,0.0,-3.9308,-3.9308,-3.9308,-3.9308,-3.9308,-3.9308,-3.9308,-3.9308,-3.9055,-3.87,-3.8619,-3.7965,-3.7161,-3.7161,-3.6817,-3.6392,-3.63,-3.632,-3.632,-3.632,-3.6021,-3.5913,-3.652,-3.6645,-3.6714,-3.7251,-3.7642,-3.79,-3.79,-3.79,-3.79,-3.79,-3.6933,-3.6109,-3.6109,-3.5155,-3.4397,-3.4397,-3.4397,-3.4397,-3.4397,-3.4319,-3.4084,-3.3639,-3.4007,-3.4305,-3.4389,-3.5783,-3.7034,-3.789,-3.9048,-3.9849,-4.0093,-4.0374,-4.0489,-4.0489,-4.0489,-4.0489,-4.0489,-4.0489,-4.0797,-4.1417,-4.154,-4.1909,-2.8143,-2.8742,-2.9128,-2.8383,-2.7598,-2.6606,-2.5022,0.0,0.0,0.0,-1.948,-1.8904,-1.9984,0.0,0.0,0.0,0.0,0.0,0.0,0.0,0.0,0.0,0.0,0.0,0.0,0.0,0.0,0.0,0.0,-3.2628,-3.2012,-3.2349,-3.277,-3.3378,-3.435,-3.5711,-3.7445,-3.8343,-3.9359,-4.0422,-4.0422,-4.0158,-3.9664,-3.9664,-3.9526,-3.9308,-3.9308,0.0,-3.9308,-3.9308,-3.9308,-3.9308,-3.9308,-3.9147,-3.8929,-3.8929,-3.8608,-3.8137,-3.7873,-3.746,-3.6933,-3.6725,-3.6472,-3.632,-3.632,-3.632,-3.632,-3.632,-3.591,-3.5626,-3.6233,-3.636,-3.6431,-3.6955,-3.7518,-3.79,-3.79,-3.79,-3.79,-3.79,-3.6933,-3.6109,-3.6109,-3.5155,-3.4397,-3.4397,-3.4397,-3.4397,-3.4397,-3.4397,-3.4293,-3.4031,-3.4686,-3.5272,-3.5708,-3.6901,-3.7974,-3.8752,-3.9566,-4.0031,-4.0137,-4.0366,-4.0489,-4.0489,-4.0489,-4.0489,-4.0489,-4.0909,-4.1263,-4.1617,-4.2309,-4.2802,-2.8169,-2.8742,-2.9128,-2.8446,-2.7635,-2.6539,-2.5053,-2.2846,0.0,0.0,-1.9243,-1.8649,-1.9772,0.0,-2.2044,0.0,0.0,0.0,0.0,0.0,0.0,0.0,0.0,0.0,0.0,0.0,0.0,0.0,0.0,0.0,-3.3051,-3.3375,-3.3743,-3.4144,-3.4848,-3.606,-3.7602,-3.8364,-3.9115,-3.9953,-3.9953,-3.9687,-3.9308,-3.9308,-3.9308,-3.9308,-3.9308,0.0,0.0,-3.9308,-3.9308,-3.9297,-3.9193,-3.8918,-3.8573,-3.8459,-3.808,-3.7575,-3.7173,-3.6911,-3.6805,-3.6404,-3.632,-3.632,-3.632,-3.632,-3.632,-3.632,-3.583,-3.5476,-3.6069,-3.6192,-3.6357,-3.7081,-3.7582,-3.79,-3.79,-3.79,-3.7861,-3.773,-3.6841,-3.607,-3.5953,-3.5077,-3.4397,-3.4397,-3.4397,-3.4397,-3.4397,-3.4397,-3.4397,-3.4397,-3.5182,-3.6044,-3.6841,-3.7706,-3.8538,-3.9352,-3.9747,-3.996,-4.0011,-4.0296,-4.0455,-4.0489,-4.0489,-4.0566,-4.072,-4.1324,-4.174,-4.2048,-4.3116,-4.3685,-2.8092,-2.8742,-2.9201,-2.8772,-2.7857,-2.6751,-2.5439,0.0,0.0,-2.0335,-1.9197,-1.8517,-1.9188,-1.9665,-2.056,0.0,0.0,-2.5001,0.0,0.0,0.0,0.0,0.0,0.0,0.0,0.0,0.0,0.0,0.0,0.0,-3.3413,-3.3705,-3.4031,-3.4355,-3.5335,-3.6313,-3.7444,-3.8071,-3.878,-3.9365,-3.9365,-3.9354,-3.9308,-3.9308,-3.9308,-3.9308,-3.9308,0.0,0.0,-3.9308,-3.9308,-3.9262,-3.8826,-3.8619,-3.8527,-3.8045,-3.754,-3.7092,-3.6991,-3.6725,-3.6335,-3.6289,-3.632,-3.632,-3.632,-3.632,-3.632,-3.632,-3.56,-3.497,-3.5542,-3.5651,-3.6028,-3.749,-3.7847,-3.79,-3.79,-3.79,-3.7743,-3.7194,-3.6554,-3.5953,-3.5456,-3.4829,-3.4397,-3.4397,-3.4397,-3.4397,-3.4397,-3.4397,-3.4397,-3.4397,-3.5182,-3.6044,-3.6841,-3.7706,-3.8538,-3.9352,-3.9625,-3.9803,-3.9996,-4.0207,-4.0366,-4.0489,-4.0489,-4.0812,-4.1509,-4.1571,-4.2217,-4.3424,-4.3547,-4.3932,-2.7415,-2.82,-2.8841,-2.8571,-2.789,-2.6885,-2.5475,0.0,-2.131,-2.0468,-1.93,-1.8556,-1.9066,-1.9493,-2.0218,-2.1455,-2.2439,-2.3898,-2.6351,0.0,0.0,0.0,0.0,0.0,0.0,0.0,0.0,0.0,0.0,0.0,-3.46,-3.4922,-3.5242,-3.5603,-3.6391,-3.7182,-3.7916,-3.8406,-3.8882,-3.9308,-3.9308,-3.9308,-3.9308,-3.9308,-3.9308,-3.9308,-3.9308,0.0,0.0,-3.8872,-3.8688,-3.8378,-3.8183,-3.7919,-3.7632,-3.7414,-3.7012,-3.6576,-3.6576,-3.6449,-3.632,-3.632,-3.632,-3.632,-3.632,-3.632,-3.6208,-3.5898,-3.543,-3.5143,-3.5482,-3.6064,-3.6734,-3.7657,-3.79,-3.79,-3.79,-3.79,-3.773,-3.7116,-3.6515,-3.5926,-3.5391,-3.4789,-3.4397,-3.4397,-3.4397,-3.4397,-3.4397,-3.4397,-3.4397,-3.4397,-3.5182,-3.6044,-3.6841,-3.7706,-3.8538,-3.9352,-3.9589,-3.9732,-3.9803,-4.0137,-4.0347,-4.0366,-4.0885,-4.1324,-4.1601,-4.2402,-4.31,-4.3624,-4.4024,-4.4363,-2.6893,-2.8027,-2.8951,-2.8697,-2.8186,-2.7327,0.0,-2.3673,-2.175,-2.079,-1.9571,-1.8774,-1.9031,-1.9367,-1.9886,-2.0762,-2.1569,-2.2832,-2.4985,0.0,0.0,0.0,0.0,0.0,0.0,0.0,0.0,0.0,0.0,0.0,0.0,-3.5455,-3.5907,-3.6423,-3.7082,-3.7687,-3.8298,-3.8585,-3.8882,-3.9308,-3.9308,-3.9308,-3.9308,-3.9308,-3.9308,-3.9308,0.0,0.0,0.0,-3.8585,-3.8275,-3.777,-3.762,-3.7345,-3.6956,-3.6863,-3.6576,-3.632,-3.632,-3.632,-3.632,-3.632,-3.632,-3.6297,-3.6094,-3.6048,-3.6021,-3.5718,-3.5532,-3.5517,-3.5855,-3.6491,-3.7261,-3.7762,-3.79,-3.79,-3.79,-3.79,-3.7678,-3.6894,-3.6397,-3.5874,-3.5155,-3.4672,-3.4397,-3.4397,-3.4397,-3.4397,-3.4397,-3.4397,-3.4397,-3.4397,-3.5059,-3.5884,-3.6738,-3.7567,-3.8389,-3.9265,-3.943,-3.9574,-3.9696,-4.0031,-4.0242,-4.0312,-4.1177,-4.1694,-4.1909,-4.3017,-4.3701,-4.3917,-4.4394,-4.461,-2.6713,-2.8286,-2.9525,-2.9347,-2.8869,-2.8075,0.0,-2.431,-2.2242,-2.1311,-2.0027,-1.9108,-1.9108,-1.9108,-1.9409,-2.0286,-2.0824,-2.1776,-2.3639,0.0,0.0,0.0,0.0,0.0,0.0,0.0,0.0,0.0,0.0,0.0,0.0,-3.4797,-3.556,-3.634,-3.7082,-3.7687,-3.838,-3.838,-3.8727,-3.9308,-3.9308,-3.9308,-3.9308,-3.9308,-3.9308,0.0,0.0,0.0,0.0,-3.8585,-3.8275,-3.7735,-3.7242,-3.6979,-3.6911,-3.6461,-3.6277,-3.632,-3.632,-3.632,-3.632,-3.632,-3.632,-3.6174,-3.568,-3.5531,-3.5573,-3.5839,-3.5924,-3.6101,-3.659,-3.6909,-3.7261,-3.7762,-3.79,-3.79,-3.79,-3.79,-3.7547,-3.6345,-3.6109,-3.5744,-3.4607,-3.4397,-3.4397,-3.4397,-3.4397,-3.4397,-3.4397,-3.4397,-3.4397,-3.4397,-3.4825,-3.5507,-3.6506,-3.7197,-3.8028,-3.9031,-3.9104,-3.9286,-3.9681,-3.9889,-4.0101,-4.0312,-4.1177,-4.1925,-4.2602,-4.3248,-4.3947,-4.461,-4.461,-4.461,-2.5513,-2.7,-2.8315,-2.8239,-2.8062,-2.7512,-2.5936,-2.3957,-2.2149,-2.086,-1.9799,-1.9108,-1.9108,-1.9108,-1.9399,-2.0276,-2.0509,0.0,0.0,0.0,0.0,0.0,0.0,0.0,0.0,0.0,0.0,0.0,0.0,0.0,0.0,-3.4564,-3.5156,-3.5923,-3.6909,-3.7687,-3.8358,-3.8585,-3.8712,-3.8814,-3.9147,-3.9136,-3.8826,-3.9147,0.0,0.0,0.0,0.0,0.0,-3.7529,-3.7219,-3.6736,-3.6576,-3.6507,-3.6495,-3.6335,-3.6048,-3.5761,-3.5761,-3.5543,-3.5267,-3.5267,-3.5267,-3.5233,-3.5072,-3.5256,-3.5529,-3.5652,-3.5853,-3.6141,-3.6819,-3.7307,-3.7703,-3.7854,-3.79,-3.79,-3.79,-3.79,-3.7547,-3.6332,-3.6109,-3.5744,-3.4593,-3.4397,-3.4397,-3.4397,-3.4397,-3.4397,-3.4397,-3.4397,-3.4397,-3.4397,-3.4701,-3.5182,-3.591,-3.673,-3.7558,-3.8427,-3.876,-3.9068,-3.9481,-3.9818,-4.0031,-4.0101,-4.1551,-4.2402,-4.2602,-4.371,-4.4409,-4.461,-4.461,-4.461,-2.4263,-2.5793,-2.712,-2.7146,-2.707,-2.6632,-2.5235,-2.3422,-2.1683,-2.0602,-1.9706,-1.9108,-1.9108,-1.9108,-1.9399,-2.0276,-2.0385,0.0,0.0,0.0,0.0,0.0,0.0,0.0,0.0,0.0,0.0,0.0,0.0,0.0,0.0,-3.3955,-3.4351,-3.4823,-3.6226,-3.732,-3.8167,-3.8275,-3.8451,-3.8585,-3.8688,-3.8573,-3.8298,-3.8596,0.0,0.0,0.0,0.0,0.0,-3.6979,-3.6736,-3.632,-3.632,-3.632,-3.6309,-3.6059,-3.5795,-3.5485,-3.5313,-3.5049,-3.4796,-3.4796,-3.4659,-3.4498,-3.4498,-3.4861,-3.5293,-3.5545,-3.5842,-3.6345,-3.7168,-3.7657,-3.79,-3.79,-3.79,-3.79,-3.79,-3.79,-3.7547,-3.6332,-3.6109,-3.5744,-3.4593,-3.4397,-3.4397,-3.4397,-3.4397,-3.4397,-3.4397,-3.4397,-3.4397,-3.4397,-3.4535,-3.4812,-3.5196,-3.6097,-3.7003,-3.7924,-3.8263,-3.8723,-3.9265,-3.9604,-3.9975,-4.0375,-4.178,-4.2637,-4.2971,-4.4048,-4.461,-4.461,-4.461,-4.461,0.0,-2.4693,-2.6174,-2.6227,-2.6094,-2.5627,-2.4621,-2.2678,0.0,-2.0472,-1.9686,-1.9119,-1.915,-1.915,-1.945,-2.0327,-2.0467,0.0,0.0,0.0,0.0,0.0,0.0,0.0,0.0,0.0,0.0,0.0,0.0,0.0,0.0,-3.311,-3.3348,-3.3379,-3.5157,-3.6627,-3.7768,-3.761,-3.7843,-3.847,-3.8011,-3.777,-3.7735,-3.777,0.0,0.0,0.0,0.0,0.0,-3.6922,-3.6702,-3.632,-3.632,-3.6309,-3.6162,-3.5692,-3.5474,-3.5347,-3.49,-3.4716,-3.4693,-3.4693,-3.436,-3.3947,-3.3947,-3.4303,-3.4852,-3.5417,-3.6013,-3.664,-3.7657,-3.79,-3.79,-3.79,-3.79,-3.79,-3.79,-3.79,-3.756,-3.6397,-3.6162,-3.5809,-3.4711,-3.4515,-3.4502,-3.4463,-3.4463,-3.445,-3.441,-3.4397,-3.4397,-3.4397,-3.4397,-3.4397,-3.4397,-3.5345,-3.6375,-3.7414,-3.7696,-3.8188,-3.8995,-3.9309,-3.9914,-4.0946,-4.1916,-4.2787,-4.3685,-4.4317,-4.461,-4.461,-4.461,-4.461,-2.1523,0.0,-2.5941,-2.5874,-2.5863,-2.5461,0.0,-2.2263,-2.0886,-2.0079,-1.9492,-1.9212,-1.9564,-1.9637,-1.9927,-2.0803,-2.1248,0.0,0.0,0.0,0.0,0.0,0.0,0.0,0.0,0.0,0.0,0.0,0.0,0.0,0.0,-3.283,-3.3037,-3.3368,-3.4286,-3.5268,-3.633,-3.6825,-3.7155,-3.7402,-3.7666,-3.7586,-3.7219,-3.7609,0.0,0.0,0.0,0.0,-3.6449,-3.6449,-3.6381,-3.632,-3.632,-3.6036,-3.568,-3.5566,-3.5026,-3.4337,-3.4234,-3.3947,-3.3637,-3.3637,-3.3556,-3.3453,-3.3453,-3.3854,-3.4464,-3.5368,-3.6013,-3.664,-3.7657,-3.79,-3.79,-3.79,-3.79,-3.79,-3.79,-3.79,-3.7691,-3.6933,-3.6789,-3.6567,-3.5822,-3.5704,-3.5561,-3.5142,-3.509,-3.492,-3.4463,-3.4397,-3.4397,-3.4397,-3.4397,-3.4397,-3.4397,-3.4936,-3.5548,-3.6096,-3.6794,-3.7582,-3.8389,-3.9395,-4.018,-4.0749,-4.2284,-4.3477,-4.4379,-4.4533,-4.461,-4.461,-4.461,-4.461,-2.1059,-2.2896,-2.445,-2.4286,-2.4428,-2.4271,-2.2873,-2.1487,-2.0348,-1.9896,0.0,-1.9243,-1.971,-1.9969,-2.0369,-2.128,-2.1818,0.0,0.0,0.0,0.0,0.0,0.0,0.0,0.0,0.0,0.0,0.0,0.0,0.0,0.0,-3.2669,-3.284,-3.3068,-3.3643,-3.4604,-3.5874,-3.6301,-3.6692,-3.6979,-3.7069,-3.6955,-3.6691,-3.6966,-3.6943,0.0,0.0,0.0,-3.632,-3.632,-3.632,-3.6309,-3.6013,-3.5761,-3.5462,-3.4992,-3.4475,-3.397,-3.3752,-3.3499,-3.3281,-3.3281,-3.3281,-3.3281,-3.3281,-3.3679,-3.431,-3.5343,-3.6013,-3.664,-3.7657,-3.79,-3.79,-3.79,-3.79,-3.79,-3.79,-3.79,-3.773,-3.7116,-3.6998,-3.6815,-3.6214,-3.6109,-3.5926,-3.5378,-3.5299,-3.5077,-3.4476,-3.4397,-3.4397,-3.4397,-3.4397,-3.4397,-3.4397,-3.4605,-3.5018,-3.5535,-3.6177,-3.7091,-3.8304,-3.92,-4.0352,-4.1729,-4.3174,-4.4142,-4.461,-4.461,-4.461,-4.461,-4.461,-4.461,-2.1006,-2.2107,-2.2858,-2.2826,-2.3094,-2.3153,-2.2232,0.0,0.0,0.0,0.0,0.0,-2.001,-2.0379,0.0,0.0,0.0,0.0,0.0,0.0,0.0,0.0,0.0,0.0,0.0,0.0,0.0,0.0,0.0,0.0,0.0,-3.2638,-3.2669,-3.2669,-3.3296,-3.4282,-3.5645,-3.5879,-3.6296,-3.6909,-3.6484,-3.632,-3.632,-3.632,-3.632,0.0,0.0,0.0,-3.6162,-3.6162,-3.6117,-3.6002,-3.5577,-3.5359,-3.5175,-3.4314,-3.3958,-3.3832,-3.343,-3.3281,-3.3281,-3.3281,-3.3281,-3.3281,-3.3281,-3.3679,-3.431,-3.5343,-3.6013,-3.664,-3.7657,-3.79,-3.79,-3.79,-3.79,-3.79,-3.79,-3.79,-3.7756,-3.7246,-3.7142,-3.6985,-3.6462,-3.6384,-3.6162,-3.5521,-3.5417,-3.5168,-3.4489,-3.4397,-3.4397,-3.4397,-3.4397,-3.4397,-3.4397,-3.4397,-3.4647,-3.5236,-3.5629,-3.668,-3.8506,-3.9184,-4.061,-4.2993,-4.4029,-4.4549,-4.461,-4.4572,-4.4572,-4.461,-4.461,-4.461,-2.0824,-2.2098,-2.3289,-2.403,-2.4248,-2.4053,-2.3184,-2.1901,0.0,0.0,0.0,0.0,0.0,-2.1549,0.0,0.0,0.0,0.0,0.0,0.0,0.0,0.0,0.0,0.0,0.0,0.0,0.0,0.0,0.0,0.0,0.0,-3.2463,-3.2669,-3.2669,-3.3296,-3.3961,-3.4698,-3.5213,-3.58,-3.6392,-3.63,-3.632,-3.632,-3.632,-3.632,0.0,0.0,-3.6025,-3.5634,-3.5634,-3.5393,-3.5014,-3.4934,-3.4636,-3.4211,-3.4062,-3.374,-3.3384,-3.3315,-3.3281,-3.3281,-3.3281,-3.3281,-3.3281,-3.3281,-3.3679,-3.431,-3.5343,-3.6013,-3.664,-3.7657,-3.79,-3.79,-3.79,-3.79,-3.79,-3.79,-3.79,-3.7874,-3.7782,-3.7769,-3.773,-3.7639,-3.7625,-3.726,-3.6149,-3.5979,-3.56,-3.4541,-3.4397,-3.4397,-3.4397,-3.4397,-3.4397,-3.4397,-3.4397,-3.4439,-3.4564,-3.4977,-3.6321,-3.8744,-4.0198,-4.1676,-4.3199,-4.3795,-4.4243,-4.461,-4.4435,-4.4435,-4.461,-4.461,-4.461,-2.0463,-2.1943,-2.335,-2.4022,-2.455,-2.4631,-2.3764,-2.2677,-2.1797,0.0,0.0,0.0,0.0,0.0,0.0,0.0,0.0,0.0,0.0,0.0,0.0,0.0,0.0,0.0,0.0,0.0,0.0,0.0,0.0,0.0,0.0,0.0,-3.2002,-3.2002,-3.2538,-3.3124,-3.3715,-3.4335,-3.5156,-3.632,-3.632,-3.632,-3.632,-3.632,-3.6117,-3.5864,0.0,-3.5588,-3.5129,-3.5129,-3.5003,-3.4773,-3.4486,-3.4222,-3.397,-3.3706,-3.3476,-3.3281,-3.3281,-3.3281,-3.3281,-3.3281,-3.3281,-3.3281,-3.3281,-3.3679,-3.431,-3.5343,-3.6013,-3.664,-3.7657,-3.79,-3.79,-3.79,-3.79,-3.79,-3.79,-3.79,-3.79,-3.79,-3.79,-3.79,-3.79,-3.79,-3.7495,-3.6279,-3.6109,-3.5691,-3.4541,-3.4397,-3.4397,-3.4397,-3.4397,-3.4397,-3.4397,-3.4397,-3.4439,-3.4618,-3.5617,-3.7001,-3.8668,-4.072,-4.232,-4.3269,-4.3981,-4.4435,-4.461,-4.4511,-4.4511,-4.461,-4.461,-4.4772,-2.0133,-2.1538,-2.2977,-2.3432,-2.4312,-2.4869,-2.4322,-2.3484,-2.2842,0.0,0.0,0.0,0.0,0.0,0.0,0.0,0.0,0.0,0.0,0.0,0.0,0.0,0.0,0.0,0.0,0.0,0.0,0.0,0.0,0.0,0.0,0.0,-3.1381,-3.1381,-3.2004,-3.2577,-3.3167,-3.3721,-3.4634,-3.5921,-3.5921,-3.5921,-3.5921,-3.5921,-3.5715,-3.5359,-3.5359,-3.5072,-3.4613,-3.4613,-3.4544,-3.4406,-3.3993,-3.3832,-3.3786,-3.3419,-3.3281,-3.3281,-3.3281,-3.3281,-3.3281,-3.3281,-3.3281,-3.3281,-3.3281,-3.3679,-3.431,-3.5343,-3.6013,-3.664,-3.7657,-3.79,-3.79,-3.79,-3.79,-3.79,-3.79,-3.79,-3.79,-3.79,-3.79,-3.79,-3.79,-3.79,-3.7547,-3.6475,-3.6305,-3.59,-3.4763,-3.4607,-3.4554,-3.441,-3.4397,-3.4397,-3.4397,-3.4397,-3.4546,-3.4912,-3.6202,-3.736,-3.8325,-4.0707,-4.2316,-4.3111,-4.402,-4.4511,-4.461,-4.4534,-4.4534,-4.461,-4.461,-4.4941,-1.9948,-2.0834,-2.2014,-2.248,-2.3598,-2.4642,-2.5003,-2.4436,0.0,-2.427,0.0,0.0,0.0,0.0,0.0,0.0,0.0,0.0,0.0,0.0,0.0,0.0,0.0,0.0,0.0,0.0,0.0,0.0,0.0,0.0,0.0,0.0,0.0,-3.1381,-3.2156,-3.2835,-3.3486,-3.3974,-3.4505,-3.49,-3.49,-3.49,-3.49,-3.49,-3.4888,-3.4854,-3.4854,-3.4555,-3.4062,-3.4062,-3.3798,-3.3384,-3.335,-3.3338,-3.3338,-3.3292,-3.3281,-3.3281,-3.3281,-3.3281,-3.3281,-3.3281,-3.3281,-3.3281,-3.3281,-3.3679,-3.431,-3.5343,-3.6013,-3.664,-3.7657,-3.79,-3.79,-3.79,-3.79,-3.79,-3.79,-3.79,-3.79,-3.79,-3.79,-3.79,-3.79,-3.79,-3.7691,-3.7037,-3.6946,-3.6528,-3.5378,-3.5234,-3.5012,-3.4463,-3.4397,-3.4397,-3.4397,-3.4397,-3.4633,-3.525,-3.5826,-3.6631,-3.7612,-3.9816,-4.1504,-4.2629,-4.3551,-4.4243,-4.461,-4.4396,-4.4435,-4.461,-4.461,-4.4941,-2.0151,-2.0969,-2.1983,-2.2739,-2.3536,0.0,0.0,-2.5595,-2.5723,-2.6134,-2.6227,0.0,0.0,0.0,0.0,0.0,0.0,0.0,0.0,0.0,0.0,0.0,0.0,0.0,0.0,0.0,0.0,0.0,0.0,0.0,0.0,0.0,0.0,-3.0522,-3.1296,-3.2164,-3.3072,-3.3606,-3.4124,-3.4566,-3.4733,-3.4796,-3.4796,-3.4796,-3.4624,-3.4303,-3.4303,-3.4016,-3.3556,-3.3556,-3.3453,-3.3281,-3.3281,-3.3281,-3.3281,-3.3281,-3.3281,-3.3281,-3.3281,-3.3281,-3.3281,-3.3281,-3.3281,-3.3281,-3.3281,-3.3679,-3.431,-3.5343,-3.6013,-3.664,-3.7657,-3.79,-3.79,-3.79,-3.79,-3.79,-3.79,-3.79,-3.79,-3.79,-3.79,-3.79,-3.79,-3.79,-3.7704,-3.709,-3.6998,-3.6593,-3.5443,-3.5299,-3.5064,-3.4463,-3.4397,-3.4397,-3.4397,-3.4397,-3.4659,-3.526,-3.5809,-3.6703,-3.803,-3.9885,-4.1378,-4.24,-4.3591,-4.4243,-4.4396,-4.4458,-4.4549,-4.461,-4.461,-4.5172,-2.0379,-2.1,-2.1776,-2.2563,0.0,0.0,-2.5575,-2.6283,-2.6791,-2.7345,-2.7469,-2.7376,-2.7055,0.0,0.0,0.0,0.0,0.0,0.0,0.0,0.0,0.0,0.0,0.0,0.0,0.0,0.0,0.0,0.0,0.0,0.0,0.0,0.0,0.0,-3.1219,-3.2167,-3.3151,-3.3819,-3.4311,-3.4653,-3.4769,-3.4623,-3.4326,-3.4326,-3.4119,-3.3775,-3.3775,-3.3591,-3.3281,-3.3281,-3.3281,-3.3281,-3.3281,-3.3281,-3.3281,-3.3281,-3.3281,-3.3281,-3.3281,-3.3281,-3.3281,-3.3281,-3.3281,-3.3281,-3.3281,-3.3679,-3.431,-3.5343,-3.6013,-3.664,-3.7657,-3.79,-3.79,-3.79,-3.79,-3.79,-3.79,-3.79,-3.79,-3.79,-3.79,-3.79,-3.79,-3.79,-3.7756,-3.7351,-3.7286,-3.6933,-3.5966,-3.5835,-3.5534,-3.4763,-3.4515,-3.4397,-3.4397,-3.4397,-3.4724,-3.5495,-3.59,-3.6796,-3.8342,-3.9968,-4.1267,-4.2293,-4.3472,-4.4166,-4.4281,-4.4435,-4.4549,-4.461,-4.461,-4.5295,-2.0519,-2.0762,-2.1238,0.0,0.0,0.0,-2.5575,-2.6248,-2.6837,-2.7759,-2.7945,-2.7886,-2.7924,0.0,0.0,0.0,0.0,0.0,0.0,0.0,0.0,0.0,0.0,0.0,0.0,0.0,0.0,0.0,0.0,0.0,0.0,0.0,0.0,0.0,-3.2095,-3.3189,-3.3981,-3.4824,-3.5174,-3.5199,-3.492,-3.4298,-3.3331,-3.3281,-3.3281,-3.3281,-3.3281,-3.3281,-3.3281,-3.3281,-3.3281,-3.3281,-3.3281,-3.3281,-3.3281,-3.3281,-3.3281,-3.3281,-3.3281,-3.3281,-3.3281,-3.3281,-3.3281,-3.3281,-3.3281,-3.3679,-3.431,-3.5343,-3.6013,-3.664,-3.7657,-3.79,-3.79,-3.79,-3.79,-3.79,-3.79,-3.79,-3.79,-3.79,-3.79,-3.79,-3.79,-3.79,-3.79,-3.79,-3.79,-3.7691,-3.709,-3.6998,-3.6554,-3.5417,-3.4763,-3.4397,-3.4397,-3.4397,-3.4881,-3.6031,-3.6109,-3.6796,-3.8355,-3.981,-4.1113,-4.2252,-4.3225,-4.391,-4.4281,-4.4281,-4.4396,-4.461,-4.4625,-4.5311,-2.0426,-2.0963,0.0,-2.2584,0.0,0.0,0.0,-2.6962,0.0,0.0,-2.9125,-2.869,-2.8038,0.0,0.0,0.0,0.0,0.0,0.0,0.0,0.0,0.0,0.0,0.0,0.0,0.0,0.0,0.0,0.0,0.0,0.0,0.0,0.0,0.0,-3.195,-3.3156,-3.3855,-3.4903,-3.5301,-3.5065,-3.522,-3.481,-3.3878,-3.3679,-3.358,-3.358,-3.3381,-3.3281,-3.3281,-3.3281,-3.3281,-3.3281,-3.3281,-3.3281,-3.3281,-3.3281,-3.3281,-3.3281,-3.3281,-3.3281,-3.3281,-3.3281,-3.3281,-3.3281,-3.3281,-3.3679,-3.431,-3.5343,-3.6013,-3.664,-3.7657,-3.79,-3.79,-3.79,-3.79,-3.79,-3.79,-3.79,-3.79,-3.79,-3.79,-3.79,-3.79,-3.79,-3.79,-3.79,-3.79,-3.7691,-3.709,-3.6305,-3.5678,-3.5338,-3.4763,-3.4397,-3.4397,-3.4397,-3.4881,-3.6031,-3.6109,-3.6981,-3.8935,-4.0047,-4.1071,-4.2073,-4.313,-4.3769,-4.3871,-4.4166,-4.432,-4.4412,-4.5026,-4.5757,-2.0824,-2.1518,0.0,-2.3453,-2.4405,-2.5482,-2.7034,0.0,0.0,0.0,0.0,0.0,0.0,0.0,0.0,0.0,0.0,0.0,0.0,0.0,0.0,0.0,0.0,0.0,0.0,0.0,0.0,0.0,0.0,0.0,0.0,0.0,0.0,0.0,-3.2426,-3.3559,-3.4276,-3.5163,-3.546,-3.5162,-3.537,-3.518,-3.4631,-3.4399,-3.4188,-3.3941,-3.3519,-3.3281,-3.3281,-3.3281,-3.3281,-3.3281,-3.3281,-3.3281,-3.3281,-3.3281,-3.3281,-3.3281,-3.3281,-3.3281,-3.3281,-3.3281,-3.3281,-3.3281,-3.3281,-3.3679,-3.431,-3.5343,-3.6013,-3.664,-3.7657,-3.79,-3.79,-3.79,-3.79,-3.79,-3.79,-3.79,-3.79,-3.79,-3.79,-3.79,-3.79,-3.79,-3.79,-3.79,-3.79,-3.7769,-3.7403,-3.6554,-3.5979,-3.5979,-3.543,-3.5077,-3.5077,-3.5077,-3.5469,-3.6397,-3.6462,-3.7325,-3.922,-4.0158,-4.1029,-4.199,-4.301,-4.3596,-4.369,-4.3949,-4.4089,-4.4181,-4.5008,-4.576,-2.1331,0.0,0.0,-2.4104,-2.5244,0.0,-2.8162,0.0,-2.9363,0.0,0.0,0.0,0.0,0.0,0.0,0.0,0.0,0.0,0.0,0.0,0.0,0.0,0.0,0.0,0.0,0.0,0.0,0.0,0.0,0.0,0.0,0.0,0.0,-3.1984,-3.3254,-3.4226,-3.4908,-3.5473,-3.5618,0.0,-3.5384,-3.5398,-3.5462,-3.5275,-3.4884,-3.4337,-3.3607,-3.3281,-3.3281,-3.3281,-3.3281,-3.3281,-3.3281,-3.3281,-3.3281,-3.3281,-3.3281,-3.3281,-3.3281,-3.3281,-3.3281,-3.3281,-3.3281,-3.3281,-3.3281,-3.3679,-3.431,-3.5343,-3.6013,-3.664,-3.7657,-3.79,-3.79,-3.79,-3.79,-3.79,-3.79,-3.79,-3.79,-3.79,-3.79,-3.79,-3.79,-3.79,-3.79,-3.79,-3.79,-3.79,-3.79,-3.7377,-3.6998,-3.6998,-3.6462,-3.6109,-3.6109,-3.6109,-3.6358,-3.6972,-3.6998,-3.7709,-3.9234,-4.0158,-4.1029,-4.199,-4.2875,-4.3423,-4.3651,-4.369,-4.3823,-4.4079,-4.4762,-4.555,-2.0545,-2.159,0.0,0.0,0.0,0.0,0.0,0.0,0.0,0.0,0.0,0.0,0.0,0.0,0.0,0.0,0.0,0.0,0.0,0.0,0.0,0.0,0.0,0.0,0.0,0.0,0.0,0.0,0.0,0.0,0.0,0.0,0.0,-3.1961,-3.3387,-3.4172,-3.4281,-3.5033,-3.5161,0.0,-3.5076,-3.5319,-3.5344,-3.4965,-3.4558,-3.4078,-3.3519,-3.3281,-3.3281,-3.3281,-3.3281,-3.3281,-3.3281,-3.3281,-3.3281,-3.3281,-3.3281,-3.3281,-3.3281,-3.3281,-3.3281,-3.3281,-3.3281,-3.3281,-3.3281,-3.3679,-3.431,-3.5343,-3.6013,-3.664,-3.7657,-3.79,-3.79,-3.79,-3.79,-3.79,-3.79,-3.79,-3.79,-3.79,-3.79,-3.79,-3.79,-3.79,-3.79,-3.79,-3.79,-3.79,-3.79,-3.7377,-3.6998,-3.6998,-3.6462,-3.6109,-3.6109,-3.6109,-3.6358,-3.6972,-3.6998,-3.7709,-3.9234,-4.0158,-4.1029,-4.199,-4.2875,-4.3329,-4.3384,-4.3596,-4.3986,-4.4508,-4.5364,-4.6168,0.0,0.0,0.0,0.0,0.0,0.0,0.0,0.0,0.0,0.0,0.0,0.0,0.0,0.0,0.0,0.0,0.0,0.0,0.0,0.0,0.0,0.0,0.0,0.0,0.0,0.0,0.0,0.0,0.0,0.0,0.0,-3.1569,-3.2108,-3.2469,-3.3566,-3.4178,-3.4243,-3.4669,-3.4711,-3.4397,-3.4711,-3.4884,-3.4938,-3.4786,-3.4593,-3.4335,-3.3618,-3.3281,-3.3281,-3.3281,-3.3281,-3.3281,-3.3281,-3.3281,-3.3258,-3.2994,-3.2902,-3.2868,-3.2638,-3.2607,-3.2607,-3.2607,-3.2607,-3.2607,-3.2607,-3.311,-3.3919,-3.4953,-3.5814,-3.664,-3.7657,-3.79,-3.79,-3.79,-3.79,-3.79,-3.79,-3.79,-3.79,-3.79,-3.79,-3.79,-3.79,-3.79,-3.79,-3.79,-3.79,-3.79,-3.79,-3.7625,-3.7429,-3.7429,-3.7155,-3.6972,-3.6972,-3.6972,-3.7135,-3.7571,-3.7688,-3.8314,-3.9587,-4.046,-4.1254,-4.199,-4.2875,-4.329,-4.329,-4.3423,-4.3848,-4.4479,-4.5277,-4.6079,0.0,0.0,0.0,0.0,0.0,0.0,0.0,0.0,0.0,0.0,0.0,0.0,0.0,0.0,0.0,0.0,0.0,0.0,0.0,0.0,0.0,0.0,0.0,0.0,0.0,0.0,0.0,0.0,0.0,0.0,-3.1881,-3.2537,-3.2957,-3.3116,-3.381,-3.4243,-3.4397,-3.4397,-3.4397,-3.4397,-3.4397,-3.4458,-3.4579,-3.4508,-3.4516,-3.4594,-3.3578,-3.3201,-3.3281,-3.3281,-3.3281,-3.3281,-3.3281,-3.3281,-3.3224,-3.2684,-3.2489,-3.2408,-3.1974,-3.1813,-3.1813,-3.1813,-3.1871,-3.194,-3.1988,-3.2707,-3.3767,-3.4719,-3.5759,-3.6747,-3.7657,-3.79,-3.79,-3.79,-3.79,-3.79,-3.79,-3.79,-3.79,-3.79,-3.79,-3.79,-3.79,-3.79,-3.79,-3.79,-3.79,-3.79,-3.79,-3.79,-3.79,-3.79,-3.79,-3.79,-3.79,-3.79,-3.8024,-3.8258,-3.853,-3.9114,-4.0083,-4.0986,-4.1645,-4.2114,-4.2915,-4.329,-4.329,-4.329,-4.3678,-4.4496,-4.5035,-4.5833,0.0,0.0,0.0,0.0,0.0,0.0,0.0,0.0,0.0,0.0,0.0,0.0,0.0,0.0,0.0,0.0,0.0,0.0,0.0,0.0,0.0,0.0,0.0,0.0,0.0,0.0,0.0,0.0,0.0,0.0,-3.2853,-3.3356,-3.3598,-3.3586,-3.4105,-3.4356,-3.4397,-3.4397,-3.4397,-3.4397,-3.4397,-3.4458,-3.4553,-3.3724,-3.3616,-3.4054,-3.3031,-3.2856,-3.3281,-3.3281,-3.3281,-3.3281,-3.3281,-3.3281,-3.3224,-3.2684,-3.2489,-3.2408,-3.1974,-3.1813,-3.1813,-3.1813,-3.2101,-3.2434,-3.2677,-3.362,-3.4764,-3.5616,-3.6389,-3.7121,-3.7749,-3.79,-3.79,-3.79,-3.79,-3.79,-3.79,-3.79,-3.79,-3.79,-3.79,-3.79,-3.79,-3.79,-3.79,-3.79,-3.79,-3.79,-3.79,-3.79,-3.79,-3.79,-3.79,-3.79,-3.79,-3.79,-3.807,-3.8512,-3.8895,-3.959,-4.0573,-4.1464,-4.2129,-4.2607,-4.305,-4.329,-4.329,-4.329,-4.3958,-4.517,-4.5259,-4.5963,-1.9499,-2.1776,-2.3815,0.0,0.0,0.0,0.0,0.0,0.0,0.0,0.0,0.0,0.0,0.0,0.0,0.0,0.0,0.0,0.0,0.0,0.0,0.0,0.0,0.0,0.0,0.0,0.0,0.0,0.0,-3.222,-3.3081,-3.3471,-3.3713,-3.3713,-3.4147,-3.4397,-3.4397,-3.4397,-3.4397,-3.4397,-3.4397,-3.4373,-3.4294,-3.3333,-3.3118,-3.3479,-3.2544,-3.2262,-3.248,-3.248,-3.2592,-3.281,-3.2535,-3.2592,-3.2741,-3.1949,-3.1662,-3.1593,-3.1077,-3.0893,-3.0893,-3.0893,-3.1343,-3.1935,-3.2324,-3.3457,-3.4784,-3.5728,-3.6527,-3.7214,-3.7749,-3.79,-3.79,-3.79,-3.79,-3.79,-3.79,-3.79,-3.79,-3.79,-3.79,-3.79,-3.79,-3.79,-3.79,-3.79,-3.79,-3.79,-3.79,-3.79,-3.79,-3.79,-3.79,-3.7946,-3.8057,-3.8194,-3.8544,-3.9145,-3.9692,-4.0402,-4.1241,-4.1978,-4.2552,-4.2875,-4.317,-4.329,-4.329,-4.329,-4.4003,-4.5289,-4.5289,-4.6022,-1.9292,-2.1166,-2.2842,-2.4333,0.0,0.0,0.0,0.0,0.0,0.0,0.0,0.0,0.0,0.0,0.0,0.0,0.0,0.0,0.0,0.0,0.0,0.0,0.0,0.0,0.0,0.0,0.0,0.0,0.0,-3.2394,-3.3081,-3.3471,-3.3661,-3.3478,-3.4069,-3.4332,-3.4188,-3.4332,-3.4397,-3.4397,-3.4397,-3.4272,-3.4076,-3.327,-3.297,-3.2998,-3.2113,-3.1746,-3.1813,-3.1813,-3.202,-3.2271,-3.1963,-3.1984,-3.219,-3.1329,-3.1019,-3.0939,-3.0399,-3.0216,-3.0216,-3.0216,-3.0847,-3.1693,-3.2257,-3.3542,-3.5004,-3.5995,-3.6775,-3.7413,-3.7808,-3.79,-3.79,-3.79,-3.79,-3.79,-3.79,-3.79,-3.79,-3.79,-3.79,-3.79,-3.79,-3.79,-3.79,-3.79,-3.79,-3.79,-3.79,-3.79,-3.79,-3.79,-3.79,-3.8024,-3.8258,-3.8575,-3.9056,-3.9823,-4.0574,-4.1311,-4.1951,-4.2526,-4.293,-4.3076,-4.321,-4.329,-4.329,-4.329,-4.4003,-4.5289,-4.5289,-4.6022,-1.8216,-1.9499,0.0,0.0,0.0,0.0,0.0,0.0,0.0,0.0,0.0,0.0,0.0,0.0,0.0,0.0,0.0,0.0,0.0,0.0,0.0,0.0,0.0,0.0,0.0,0.0,0.0,0.0,0.0,-3.2605,-3.3068,-3.3471,-3.3482,-3.2941,-3.3874,-3.4162,-3.3639,-3.4136,-3.4397,-3.4397,-3.4397,-3.4272,-3.4076,-3.3611,-3.3124,-3.2692,-3.1788,-3.1564,-3.1813,-3.1813,-3.1825,-3.1848,-3.1825,-3.1825,-3.179,-3.1215,-3.1019,-3.0939,-3.0399,-3.0216,-3.0216,-3.0216,-3.1067,-3.2218,-3.3014,-3.4499,-3.6058,-3.6824,-3.7433,-3.7854,-3.79,-3.79,-3.79,-3.79,-3.79,-3.79,-3.79,-3.79,-3.79,-3.79,-3.79,-3.79,-3.79,-3.79,-3.79,-3.79,-3.79,-3.79,-3.79,-3.79,-3.79,-3.79,-3.79,-3.807,-3.8557,-3.8939,-3.9577,-4.0559,-4.1464,-4.217,-4.2648,-4.305,-4.325,-4.329,-4.329,-4.329,-4.329,-4.329,-4.4003,-4.5289,-4.5289,-4.6022,-1.6922,-1.8113,0.0,0.0,0.0,0.0,0.0,0.0,0.0,0.0,0.0,0.0,0.0,0.0,0.0,0.0,0.0,0.0,0.0,0.0,0.0,0.0,0.0,0.0,0.0,0.0,0.0,0.0,0.0,0.0,-3.2685,-3.2702,-3.2654,-3.2583,-3.3411,-3.3953,-3.411,-3.4293,-3.4397,-3.4397,-3.4397,-3.4356,-3.4272,-3.381,-3.3343,-3.284,-3.193,-3.1415,-3.1193,-3.0905,-3.0973,-3.1249,-3.0905,-3.0985,-3.1215,-3.0698,-3.0503,-3.048,-3.0285,-3.0216,-3.0216,-3.0216,-3.0962,-3.2041,-3.2947,-3.4391,-3.5911,-3.6799,-3.7462,-3.79,-3.79,-3.79,-3.79,-3.79,-3.79,-3.79,-3.79,-3.79,-3.79,-3.79,-3.79,-3.79,-3.79,-3.79,-3.79,-3.79,-3.79,-3.79,-3.79,-3.79,-3.79,-3.79,-3.79,-3.8083,-3.8557,-3.9131,-3.9823,-4.0659,-4.166,-4.2404,-4.2688,-4.3492,-4.3958,-4.3958,-4.4377,-4.4182,-4.329,-4.329,-4.3753,-4.4661,-4.4661,-4.5394,-1.5784,0.0,0.0,0.0,0.0,0.0,0.0,0.0,0.0,0.0,0.0,0.0,0.0,0.0,0.0,0.0,0.0,0.0,0.0,0.0,0.0,0.0,0.0,0.0,0.0,0.0,0.0,0.0,0.0,0.0,-3.2187,-3.2196,-3.2273,-3.25,-3.2815,-3.3365,-3.4123,-3.4123,-3.4214,-3.4397,-3.4397,-3.4397,-3.4397,-3.4063,-3.367,-3.3159,-3.2239,-3.1492,-3.0859,-3.0397,-3.0422,-3.0709,-3.0354,-3.0434,-3.0698,-3.0342,-3.0216,-3.0216,-3.0216,-3.0216,-3.0216,-3.0306,-3.1051,-3.2112,-3.3003,-3.4457,-3.5989,-3.6773,-3.7429,-3.79,-3.79,-3.79,-3.79,-3.79,-3.79,-3.79,-3.79,-3.79,-3.79,-3.79,-3.79,-3.79,-3.79,-3.79,-3.79,-3.79,-3.79,-3.79,-3.79,-3.79,-3.79,-3.79,-3.79,-3.8083,-3.8557,-3.9131,-3.9823,-4.0659,-4.1702,-4.2506,-4.2998,-4.3834,-4.4421,-4.4646,-4.5065,-4.487,-4.3947,-4.3947,-4.4332,-4.499,-4.499,-4.5589,0.0,0.0,0.0,0.0,0.0,0.0,0.0,0.0,0.0,0.0,0.0,0.0,0.0,0.0,0.0,0.0,0.0,0.0,0.0,0.0,0.0,0.0,0.0,0.0,0.0,0.0,0.0,0.0,0.0,-3.1658,-3.1671,-3.2102,-3.2461,-3.2672,-3.2098,-3.2359,-3.3548,-3.3587,-3.3849,-3.4371,-3.4384,-3.4397,-3.4397,-3.4397,-3.4147,-3.3628,-3.2704,-3.1757,-3.0859,-3.0397,-3.0216,-3.0216,-3.0216,-3.0216,-3.0216,-3.0216,-3.0216,-3.0216,-3.0216,-3.0216,-3.0261,-3.0532,-3.1402,-3.253,-3.3279,-3.4767,-3.6302,-3.6824,-3.7429,-3.79,-3.79,-3.79,-3.79,-3.79,-3.79,-3.79,-3.79,-3.79,-3.79,-3.79,-3.7913,-3.7926,-3.7926,-3.7939,-3.7952,-3.7952,-3.7939,-3.7926,-3.7952,-3.7939,-3.7926,-3.7952,-3.7939,-3.8096,-3.8584,-3.8997,-3.9634,-4.063,-4.1535,-4.2532,-4.3661,-4.4117,-4.4676,-4.5319,-4.5349,-4.5349,-4.5349,-4.5319,-4.5633,-4.6249,-4.6264,-4.6666,-1.4469,0.0,0.0,0.0,0.0,0.0,0.0,0.0,0.0,0.0,0.0,0.0,0.0,0.0,0.0,0.0,0.0,0.0,0.0,0.0,0.0,0.0,0.0,0.0,0.0,0.0,0.0,0.0,-3.0509,-3.0643,-3.1301,-3.1371,-3.1576,-3.2019,-3.1889,-3.2163,-3.2934,-3.3378,-3.3666,-3.3822,-3.4201,-3.4397,-3.4397,-3.4243,-3.381,-3.3159,-3.2413,-3.1637,-3.0859,-3.0397,-3.0216,-3.0216,-3.0216,-3.0216,-3.0216,-3.0216,-3.0216,-3.0216,-3.0216,-3.0352,-3.0578,-3.0982,-3.1567,-3.2296,-3.3183,-3.4488,-3.5782,-3.6225,-3.7103,-3.79,-3.79,-3.79,-3.79,-3.79,-3.79,-3.79,-3.79,-3.79,-3.79,-3.79,-3.8214,-3.8488,-3.8488,-3.8841,-3.9141,-3.9141,-3.8762,-3.8645,-3.9076,-3.8762,-3.8658,-3.9089,-3.8749,-3.8628,-3.8919,-3.8983,-3.953,-4.0764,-4.1824,-4.2935,-4.4086,-4.5164,-4.5816,-4.6037,-4.6501,-4.6756,-4.6741,-4.5768,-4.5394,-4.5589,-4.6097,-4.6384,-1.4593,-1.4935,0.0,0.0,0.0,0.0,0.0,0.0,0.0,0.0,0.0,0.0,0.0,0.0,0.0,0.0,0.0,0.0,0.0,0.0,0.0,0.0,0.0,0.0,0.0,0.0,0.0,-3.0204,-3.0045,-3.0227,-3.0971,-3.0904,-3.1068,-3.1432,-3.1483,-3.1719,-3.2333,-3.2685,-3.2986,-3.3221,-3.3535,-3.3768,-3.3879,-3.3588,-3.3242,-3.2828,-3.2045,-3.1383,-3.0859,-3.0397,-3.0216,-3.0216,-3.0216,-3.0216,-3.0216,-3.0216,-3.0216,-3.0216,-3.0216,-3.0397,-3.0713,-3.125,-3.1813,-3.2438,-3.3258,-3.4563,-3.5815,-3.6022,-3.6972,-3.79,-3.79,-3.79,-3.79,-3.79,-3.79,-3.79,-3.79,-3.79,-3.79,-3.79,-3.8344,-3.871,-3.871,-3.9207,-3.9612,-3.9612,-3.9102,-3.8932,-3.9534,-3.9076,-3.8945,-3.9547,-3.9076,-3.8757,-3.8911,-3.8648,-3.91,-4.0508,-4.1602,-4.2898,-4.4472,-4.5687,-4.6414,-4.6726,-4.7115,-4.7309,-4.7309,-4.6516,-4.6127,-4.6142,-4.6546,-4.6741,-1.5225,-1.5494,-1.5697,0.0,0.0,0.0,-1.5597,-1.6211,0.0,0.0,0.0,0.0,0.0,0.0,0.0,0.0,0.0,0.0,0.0,0.0,0.0,0.0,0.0,0.0,0.0,-2.8797,-2.9238,-2.9753,-3.0011,-3.0267,-3.066,-3.0698,-3.0811,-3.0986,-3.0986,-3.1197,-3.1667,-3.1733,-3.2006,-3.2515,-3.262,-3.2786,-3.307,-3.2619,-3.2461,-3.2494,-3.1617,-3.1083,-3.0814,-3.0352,-3.0216,-3.0216,-3.0216,-3.0216,-3.0216,-3.0216,-3.0216,-3.0216,-3.0216,-3.0397,-3.0758,-3.1448,-3.2164,-3.2884,-3.3556,-3.4895,-3.6136,-3.6266,-3.7077,-3.79,-3.79,-3.79,-3.79,-3.79,-3.79,-3.79,-3.79,-3.79,-3.79,-3.79,-3.8397,-3.8815,-3.8815,-3.9364,-3.9795,-3.9795,-3.9233,-3.9024,-3.9625,-3.9115,-3.8945,-3.9594,-3.911,-3.8804,-3.8804,-3.8352,-3.8719,-4.0237,-4.1207,-4.2665,-4.4835,-4.5837,-4.6636,-4.7294,-4.7309,-4.7309,-4.7309,-4.7309,-4.7309,-4.7309,-4.7309,-4.7309,-1.6614,-1.6446,-1.6247,-1.6164,0.0,0.0,0.0,-1.5266,0.0,0.0,0.0,0.0,0.0,0.0,0.0,0.0,0.0,0.0,0.0,0.0,0.0,0.0,0.0,0.0,0.0,-2.8338,-2.883,-2.9715,-3.0152,-3.0368,-3.0444,-3.0761,-3.0949,-3.0986,-3.0849,-3.0825,-3.0904,-3.1177,-3.1383,-3.1486,-3.1976,-3.2288,-3.2382,-3.2143,-3.1847,-3.1572,-3.1172,-3.0713,-3.0306,-3.0261,-3.0216,-3.0216,-3.0216,-3.0216,-3.0216,-3.0216,-3.0216,-3.0216,-3.0216,-3.0499,-3.105,-3.1889,-3.25,-3.3129,-3.3966,-3.5109,-3.6305,-3.7286,-3.773,-3.79,-3.79,-3.79,-3.79,-3.79,-3.79,-3.79,-3.79,-3.79,-3.79,-3.79,-3.8736,-3.9429,-3.9429,-4.0292,-4.0984,-4.0984,-4.0109,-3.9638,-4.0187,-3.9351,-3.8966,-3.9733,-3.9507,-3.9349,-3.9547,-3.9239,-3.9608,-4.0999,-4.1747,-4.3099,-4.5157,-4.5923,-4.6636,-4.7294,-4.7309,-4.7309,-4.7309,-4.7309,-4.7309,-4.7309,-4.7309,-4.7309,-1.7358,-1.7027,-1.6601,-1.6146,0.0,0.0,0.0,0.0,0.0,0.0,0.0,0.0,0.0,0.0,0.0,0.0,0.0,0.0,0.0,0.0,0.0,0.0,0.0,0.0,0.0,-2.7725,-2.8336,-2.9416,-2.9682,-3.0023,-3.052,-3.0723,-3.0849,-3.0849,-3.0533,-3.0279,-3.0203,-3.0161,-3.0131,-3.0182,-3.0459,-3.0863,-3.1302,-3.0978,-3.0903,-3.1083,-3.0713,-3.0442,-3.0216,-3.0216,-3.0216,-3.0216,-3.0216,-3.0216,-3.0216,-3.0216,-3.0216,-3.0216,-3.0216,-3.0544,-3.1151,-3.2021,-3.263,-3.3159,-3.4105,-3.5195,-3.6292,-3.7207,-3.7678,-3.79,-3.79,-3.79,-3.79,-3.79,-3.79,-3.79,-3.79,-3.79,-3.79,-3.79,-3.8593,-3.9155,-3.9155,-3.9886,-4.0461,-4.0461,-3.9716,-3.9364,-3.9939,-3.9246,-3.9074,-3.9984,-3.9867,-3.9873,-4.025,-4.0079,-4.0465,-4.1662,-4.231,-4.3341,-4.4905,-4.583,-4.6444,-4.6815,-4.713,-4.7145,-4.6815,-4.7145,-4.7309,-4.7309,-4.7309,-4.7309,0.0,0.0,0.0,0.0,0.0,-1.48,0.0,0.0,0.0,-1.479,0.0,0.0,0.0,0.0,0.0,0.0,0.0,0.0,0.0,0.0,0.0,0.0,0.0,0.0,0.0,-2.7054,-2.7792,-2.8747,-2.8932,-2.9372,-3.0298,-3.0515,-3.0567,-3.053,-3.0114,-2.9793,-2.9588,-2.9172,-2.8937,-2.8937,-2.8976,-2.937,-3.003,-2.9773,-3.0001,-3.0629,-3.0317,-3.0216,-3.0216,-3.0216,-3.0216,-3.0216,-3.0216,-3.0216,-3.0216,-3.0216,-3.0216,-3.0216,-3.0216,-3.0544,-3.1151,-3.2021,-3.276,-3.3441,-3.4318,-3.5221,-3.607,-3.6658,-3.7181,-3.7586,-3.7704,-3.773,-3.7756,-3.7874,-3.79,-3.79,-3.79,-3.79,-3.79,-3.79,-3.8253,-3.8593,-3.8697,-3.9207,-3.9612,-3.9612,-3.9102,-3.8893,-3.9377,-3.8919,-3.8911,-3.9867,-4.0008,-4.0181,-4.0672,-4.0769,-4.1213,-4.211,-4.2676,-4.3401,-4.444,-4.5635,-4.6279,-4.6279,-4.698,-4.698,-4.6279,-4.698,-4.7309,-4.7309,-4.7309,-4.7234,0.0,0.0,0.0,0.0,-1.6239,0.0,0.0,0.0,-1.4324,-1.4376,0.0,0.0,0.0,0.0,0.0,0.0,0.0,0.0,0.0,0.0,0.0,0.0,0.0,0.0,0.0,0.0,-2.7167,-2.7492,-2.786,-2.8363,-2.9135,-2.9822,-3.0082,-2.9908,-2.9631,-2.9367,-2.916,-2.8593,-2.8287,-2.8287,-2.8498,-2.865,-2.8799,-2.9228,-2.9499,-2.9696,-3.0032,-3.0216,-3.0216,-3.0216,-3.0216,-3.0216,-3.0216,-3.0216,-3.0216,-3.0216,-3.0216,-3.0216,-3.0216,-3.0544,-3.1151,-3.2021,-3.3177,-3.4363,-3.4982,-3.5286,-3.5495,-3.6057,-3.6253,-3.6436,-3.6972,-3.7103,-3.7246,-3.7782,-3.79,-3.79,-3.79,-3.79,-3.79,-3.79,-3.7952,-3.8148,-3.8632,-3.9207,-3.9612,-3.9612,-3.9102,-3.8736,-3.8802,-3.8331,-3.8201,-3.8756,-3.9324,-3.9832,-4.0312,-4.1128,-4.1717,-4.2011,-4.2465,-4.3142,-4.4039,-4.5496,-4.6279,-4.6279,-4.698,-4.698,-4.6279,-4.698,-4.7309,-4.7309,-4.7309,-4.6995,0.0,0.0,0.0,0.0,0.0,0.0,-1.4718,0.0,-1.4707,0.0,0.0,0.0,0.0,0.0,0.0,0.0,0.0,0.0,0.0,0.0,0.0,0.0,0.0,0.0,0.0,0.0,0.0,0.0,0.0,-2.7412,-2.8573,-2.9291,-2.9603,-2.946,-2.8721,-2.8361,-2.8359,-2.758,-2.7278,-2.7452,-2.7667,-2.7935,-2.827,-2.8479,-2.8734,-2.9045,-2.9251,-2.9515,-2.9802,-2.9802,-2.9963,-3.0216,-3.0216,-3.0216,-3.0216,-3.0216,-3.0216,-3.0216,-3.0397,-3.0847,-3.156,-3.2717,-3.37,-3.445,-3.4698,-3.5012,-3.5338,-3.5574,-3.6109,-3.6684,-3.6933,-3.726,-3.7586,-3.7848,-3.79,-3.79,-3.79,-3.79,-3.79,-3.79,-3.79,-3.7978,-3.82,-3.8449,-3.8619,-3.8619,-3.841,-3.824,-3.824,-3.8044,-3.8083,-3.8557,-3.9073,-3.9678,-4.0459,-4.1339,-4.202,-4.2363,-4.2809,-4.3388,-4.4124,-4.4788,-4.5155,-4.5155,-4.5798,-4.5813,-4.5155,-4.5813,-4.6142,-4.6157,-4.6935,-4.695,-1.9824,0.0,0.0,0.0,0.0,0.0,0.0,0.0,0.0,0.0,0.0,0.0,0.0,0.0,0.0,0.0,0.0,0.0,0.0,0.0,0.0,0.0,0.0,0.0,0.0,0.0,0.0,0.0,0.0,0.0,-2.7715,-2.8482,-2.8846,-2.8699,-2.7841,-2.7427,-2.7528,-2.6734,-2.6467,-2.6685,-2.6933,-2.725,-2.7603,-2.7752,-2.8003,-2.8334,-2.8471,-2.8836,-2.9315,-2.9415,-2.969,-3.0136,-3.017,-3.0216,-3.0216,-3.0216,-3.0261,-3.0352,-3.0668,-3.1371,-3.2283,-3.3373,-3.4021,-3.4397,-3.4397,-3.4711,-3.5051,-3.5051,-3.577,-3.6567,-3.6724,-3.7207,-3.7704,-3.7861,-3.79,-3.79,-3.79,-3.79,-3.79,-3.79,-3.79,-3.79,-3.79,-3.79,-3.79,-3.79,-3.79,-3.79,-3.7979,-3.8024,-3.8253,-3.8737,-3.9206,-3.9853,-4.073,-4.1604,-4.2348,-4.285,-4.313,-4.3589,-4.4287,-4.4317,-4.4317,-4.4317,-4.496,-4.4975,-4.4317,-4.4975,-4.5289,-4.5319,-4.6307,-4.6396,0.0,0.0,0.0,-1.7213,0.0,0.0,0.0,0.0,-1.5697,0.0,0.0,0.0,0.0,0.0,0.0,0.0,0.0,0.0,0.0,0.0,0.0,0.0,0.0,0.0,0.0,0.0,0.0,0.0,0.0,0.0,-2.6198,-2.7289,-2.7733,-2.7484,-2.6996,-2.6777,-2.6921,-2.6271,-2.6032,-2.624,-2.6479,-2.6614,-2.6678,-2.713,-2.7312,-2.7357,-2.7871,-2.8408,-2.8824,-2.9093,-2.9477,-2.9931,-3.0136,-3.0216,-3.0216,-3.0216,-3.0352,-3.0668,-3.1128,-3.2176,-3.3398,-3.3641,-3.4021,-3.4397,-3.4397,-3.441,-3.4424,-3.4424,-3.4881,-3.5469,-3.5992,-3.658,-3.7181,-3.7769,-3.79,-3.79,-3.79,-3.79,-3.79,-3.79,-3.79,-3.79,-3.79,-3.79,-3.79,-3.79,-3.79,-3.7979,-3.8167,-3.8408,-3.8782,-3.9216,-3.9881,-4.0474,-4.0958,-4.1868,-4.2622,-4.325,-4.329,-4.3589,-4.4287,-4.4317,-4.4317,-4.4317,-4.496,-4.4975,-4.4317,-4.4975,-4.5289,-4.5289,-4.5334,-4.5005,0.0,0.0,-1.8725,-1.8081,0.0,0.0,0.0,0.0,0.0,0.0,0.0,0.0,0.0,0.0,0.0,0.0,0.0,0.0,0.0,0.0,0.0,0.0,0.0,0.0,0.0,0.0,0.0,0.0,0.0,0.0,0.0,-2.577,-2.6054,-2.6322,-2.5662,-2.548,-2.5784,-2.5554,-2.5549,-2.5748,-2.6021,-2.6146,-2.6157,-2.6323,-2.6347,-2.6369,-2.6565,-2.7004,-2.7631,-2.7869,-2.8336,-2.8943,-2.9141,-2.9424,-2.978,-3.0101,-3.0352,-3.0758,-3.1825,-3.2828,-3.3641,-3.4063,-3.4272,-3.4397,-3.4397,-3.4397,-3.4397,-3.4397,-3.4829,-3.5417,-3.5966,-3.6554,-3.7155,-3.7756,-3.79,-3.79,-3.79,-3.79,-3.79,-3.79,-3.79,-3.79,-3.79,-3.79,-3.79,-3.79,-3.79,-3.8037,-3.8408,-3.8774,-3.9193,-3.9634,-4.0187,-4.0703,-4.1141,-4.2046,-4.2824,-4.325,-4.329,-4.3394,-4.3618,-4.3618,-4.3618,-4.3618,-4.3843,-4.3843,-4.3618,-4.3883,-4.4003,-4.4003,-4.4003,-4.4107,-2.1155,-2.0348,0.0,-1.8808,-1.8071,0.0,-1.6757,0.0,0.0,0.0,0.0,0.0,0.0,0.0,0.0,0.0,0.0,0.0,0.0,0.0,0.0,0.0,0.0,0.0,0.0,0.0,-2.0213,-2.0762,0.0,0.0,0.0,0.0,-2.463,-2.5018,-2.4641,-2.461,-2.4949,-2.505,-2.52,-2.5411,-2.5591,-2.5633,-2.5633,-2.5633,-2.5633,-2.5633,-2.5633,-2.6084,-2.6788,-2.7066,-2.7613,-2.829,-2.8571,-2.9022,-2.9538,-2.9848,-3.046,-3.1359,-3.2426,-3.33,-3.4008,-3.4314,-3.4397,-3.4397,-3.4397,-3.4397,-3.4397,-3.4397,-3.4829,-3.5378,-3.573,-3.6253,-3.6776,-3.7168,-3.726,-3.7325,-3.7534,-3.7586,-3.7639,-3.7861,-3.79,-3.79,-3.79,-3.79,-3.79,-3.79,-3.79,-3.8083,-3.8557,-3.9029,-3.9519,-4.0,-4.0617,-4.1226,-4.1728,-4.2415,-4.297,-4.329,-4.329,-4.329,-4.329,-4.329,-4.329,-4.329,-4.329,-4.329,-4.329,-4.329,-4.329,-4.329,-4.329,-4.3529]}]]